[[{"header":{"parameterUnit":"m.s-1","parameterCategory":1,"la1":31.0,"la2":29.5877,"lo1":-88.7671,"lo2":-86.6584,"dy":0.0162,"dx":0.0185,"nx":115,"ny":88,"refTime":"2023-06-22T12:00:00:Z","depth":0,"parameterNumber":2,"parameterNumberName":"U-component_of_WINDS"},"data":[0.0,0.0,0.0,0.0,0.0,0.0,0.0,0.0,0.0,0.0,0.0,0.0,0.0,0.0,0.0,0.0,0.0,0.0,0.0,0.0,0.0,0.0,0.0,0.0,0.0,0.0,0.0,0.0,0.0,0.0,0.0,0.0,0.0,0.0,0.0,0.0,0.0,0.0,0.0,0.0,0.0,0.0,0.0,0.0,0.0,0.0,0.0,0.0,0.0,0.0,0.0,0.0,0.0,0.0,0.0,0.0,0.0,0.0,0.0,0.0,0.0,0.0,0.0,0.0,0.0,0.0,0.0,0.0,0.0,0.0,0.0,0.0,0.0,0.0,0.0,0.0,0.0,0.0,0.0,0.0,0.0,0.0,0.0,0.0,0.0,0.0,0.0,0.0,0.0,0.0,0.0,0.0,0.0,0.0,0.0,0.0,0.0,0.0,0.0,0.0,0.0,0.0,0.0,0.0,0.0,0.0,0.0,0.0,0.0,0.0,0.0,0.0,0.0,0.0,0.0,0.0,0.0,0.0,0.0,0.0,0.0,0.0,0.0,0.0,0.0,0.0,0.0,0.0,0.0,0.0,0.0,0.0,0.0,0.0,0.0,0.0,0.0,0.0,0.0,0.0,0.0,0.0,0.0,0.0,0.0,0.0,0.0,0.0,0.0,0.0,0.0,0.0,0.0,0.0,0.0,0.0,0.0,0.0,0.0,0.0,0.0,0.0,0.0,0.0,0.0,0.0,0.0,0.0,0.0,0.0,0.0,0.0,0.0,0.0,0.0,0.0,0.0,0.0,0.0,0.0,0.0,0.0,0.0,0.0,0.0,0.0,0.0,0.0,0.0,0.0,0.0,0.0,0.0,0.0,0.0,0.0,0.0,0.0,0.0,0.0,0.0,0.0,0.0,0.0,0.0,0.0,0.0,0.0,0.0,0.0,0.0,0.0,0.0,0.0,0.0,0.0,0.0,0.0,0.0,0.0,0.0,0.0,0.0,0.0,0.0,0.0,0.0,0.0,0.0,0.0,0.0,0.0,0.0,0.0,0.0,0.0,0.0,0.0,0.0,0.0,0.0,0.0,0.0,0.0,0.0,0.0,0.0,0.0,0.0,0.0,0.0,0.0,0.0,0.0,0.0,0.0,0.0,0.0,0.0,0.0,0.0,0.0,0.0,0.0,0.0,0.0,0.0,0.0,0.0,0.0,0.0,0.0,0.0,0.0,0.0,0.0,0.0,0.0,0.0,0.0,0.0,0.0,0.0,0.0,0.0,0.0,0.0,0.0,0.0,0.0,0.0,0.0,0.0,0.0,0.0,0.0,0.0,0.0,0.0,0.0,0.0,0.0,0.0,0.0,0.0,0.0,0.0,0.0,0.0,0.0,0.0,0.0,0.0,0.0,0.0,0.0,0.0,0.0,0.0,0.0,0.0,0.0,0.0,0.0,0.0,0.0,0.0,0.0,0.0,0.0,0.0,0.0,0.0,0.0,0.0,0.0,0.0,0.0,0.0,0.0,0.0,0.0,0.0,0.0,0.0,0.0,0.0,0.0,0.0,0.0,0.0,0.0,0.0,0.0,0.0,0.0,0.0,0.0,0.0,0.0,0.0,0.0,0.0,0.0,0.0,0.0,0.0,0.0,0.0,0.0,0.0,0.0,0.0,0.0,0.0,0.0,0.0,0.0,0.0,0.0,0.0,0.0,0.0,0.0,0.0,0.0,0.0,0.0,0.0,0.0,0.0,0.0,0.0,0.0,0.0,0.0,0.0,0.0,0.0,0.0,0.0,0.0,0.0,0.0,0.0,0.0,0.0,0.0,0.0,0.0,0.0,0.0,0.0,0.0,0.0,0.0,0.0,0.0,0.0,0.0,0.0,0.0,0.0,0.0,0.0,0.0,0.0,0.0,0.0,0.0,0.0,0.0,0.0,0.0,0.0,0.0,0.0,0.0,0.0,0.0,0.0,0.0,0.0,0.0,0.0,0.0,0.0,0.0,0.0,0.0,0.0,0.0,0.0,0.0,0.0,0.0,0.0,0.0,0.0,0.0,0.0,0.0,0.0,0.0,0.0,0.0,0.0,0.0,0.0,0.0,0.0,0.0,0.0,0.0,0.0,0.0,0.0,0.0,0.0,0.0,0.0,0.0,0.0,0.0,0.0,0.0,0.0,0.0,0.0,0.0,0.0,0.0,0.0,0.0,0.0,0.0,0.0,0.0,0.0,0.0,0.0,0.0,0.0,0.0,0.0,0.0,0.0,0.0,0.0,0.0,0.0,0.0,0.0,0.0,0.0,0.0,0.0,0.0,0.0,0.0,0.0,0.0,0.0,0.0,0.0,0.0,0.0,0.0,0.0,0.0,0.0,0.0,0.0,0.0,0.0,0.0,0.0,0.0,0.0,0.0,0.0,0.0,0.0,0.0,0.0,0.0,0.0,0.0,0.0,0.0,0.0,0.0,0.0,0.0,0.0,0.0,0.0,0.0,0.0,0.0,0.0,0.0,0.0,0.0,0.0,0.0,0.0,0.0,0.0,0.0,0.0,0.0,0.0,0.0,0.0,0.0,0.0,0.0,0.0,0.0,0.0,0.0,0.0,0.0,0.0,0.0,0.0,0.0,0.0,0.0,0.0,0.0,0.0,0.0,0.0,0.0,0.0,0.0,0.0,0.0,0.0,0.0,0.0,0.0,0.0,0.0,0.0,0.0,0.0,0.0,0.0,0.0,0.0,0.0,0.0,0.0,0.0,0.0,0.0,0.0,0.0,0.0,0.0,0.0,0.0,0.0,0.0,0.0,0.0,0.0,0.0,0.0,0.0,0.0,0.0,0.0,0.0,0.0,0.0,0.0,0.0,0.0,0.0,0.0,0.0,0.0,0.0,0.0,0.0,0.0,0.0,0.0,0.0,0.0,0.0,0.0,0.0,0.0,0.0,0.0,0.0,0.0,0.0,0.0,0.0,0.0,0.0,0.0,0.0,0.0,0.0,0.0,0.0,0.0,0.0,0.0,0.0,0.0,0.0,0.0,0.0,0.0,0.0,0.0,0.0,0.0,0.0,0.0,0.0,0.0,0.0,0.0,0.0,0.0,0.0,0.0,0.0,0.0,0.0,0.0,0.0,0.0,0.0,0.0,0.0,0.0,0.0,0.0,0.0,0.0,0.0,0.0,0.0,0.0,0.0,0.0,0.0,0.0,0.0,0.0,0.0,0.0,0.0,0.0,0.0,0.0,0.0,0.0,0.0,0.0,0.0,0.0,0.0,0.0,0.0,0.0,0.0,0.0,0.0,0.0,0.0,0.0,0.0,0.0,0.0,0.0,0.0,0.0,0.0,0.0,0.0,0.0,0.0,0.0,0.0,0.0,0.0,0.0,0.0,0.0,0.0,0.0,0.0,0.0,0.0,0.0,0.0,0.0,0.0,0.0,0.0,0.0,0.0,0.0,0.0,0.0,0.0,0.0,0.0,0.0,0.0,0.0,0.0,0.0,0.0,0.0,0.0,0.0,0.0,0.0,0.0,0.0,0.0,0.0,0.0,0.0,0.0,0.0,0.0,0.0,0.0,0.0,0.0,0.0,0.0,0.0,0.0,0.0,0.0,0.0,0.0,0.0,0.0,0.0,0.0,0.0,0.0,0.0,0.0,0.0,0.0,0.0,0.0,0.0,0.0,0.0,0.0,0.0,0.0,0.0,0.0,0.0,0.0,0.0,0.0,0.0,0.0,0.0,0.0,0.0,0.0,0.0,0.0,0.0,0.0,0.0,0.0,0.0,0.0,0.0,0.0,0.0,0.0,0.0,0.0,0.0,0.0,0.0,0.0,0.0,0.0,0.0,0.0,0.0,0.0,0.0,0.0,0.0,0.0,0.0,0.0,0.0,0.0,0.0,0.0,0.0,0.0,0.0,0.0,0.0,0.0,0.0,0.0,0.0,0.0,0.0,0.0,0.0,0.0,0.0,0.0,0.0,0.0,0.0,0.0,0.0,0.0,0.0,0.0,0.0,0.0,0.0,0.0,0.0,0.0,0.0,0.0,0.0,0.0,0.0,0.0,0.0,0.0,0.0,0.0,0.0,0.0,0.0,0.0,0.0,0.0,0.0,0.0,0.0,0.0,0.0,0.0,0.0,0.0,0.0,0.0,0.0,0.0,0.0,0.0,0.0,0.0,0.0,0.0,0.0,0.0,0.0,0.0,0.0,0.0,0.0,0.0,0.0,0.0,0.0,0.0,0.0,0.0,0.0,0.0,0.0,0.0,0.0,0.0,0.0,0.0,0.0,0.0,0.0,0.0,0.0,-2.7955,0.0,0.0,0.0,0.0,0.0,0.0,0.0,0.0,0.0,0.0,0.0,0.0,0.0,0.0,0.0,0.0,0.0,0.0,0.0,0.0,0.0,0.0,0.0,0.0,0.0,0.0,0.0,0.0,0.0,0.0,0.0,0.0,0.0,0.0,0.0,0.0,0.0,0.0,0.0,0.0,0.0,0.0,0.0,0.0,0.0,0.0,0.0,0.0,0.0,0.0,0.0,0.0,0.0,0.0,0.0,0.0,0.0,0.0,0.0,0.0,0.0,0.0,0.0,0.0,0.0,0.0,0.0,0.0,0.0,0.0,0.0,0.0,0.0,0.0,0.0,0.0,0.0,0.0,0.0,0.0,0.0,0.0,0.0,0.0,0.0,0.0,0.0,0.0,0.0,0.0,0.0,0.0,0.0,0.0,0.0,0.0,0.0,0.0,0.0,0.0,0.0,0.0,0.0,0.0,0.0,0.0,0.0,0.0,0.0,0.0,-2.8984,-2.8999,-2.9398,-2.9388,-2.8901,0.0,0.0,0.0,0.0,0.0,0.0,0.0,0.0,0.0,0.0,0.0,0.0,0.0,0.0,0.0,0.0,0.0,0.0,0.0,0.0,0.0,0.0,0.0,0.0,0.0,0.0,0.0,0.0,0.0,0.0,0.0,0.0,0.0,0.0,0.0,0.0,0.0,0.0,0.0,0.0,0.0,0.0,0.0,0.0,0.0,0.0,0.0,0.0,0.0,0.0,0.0,0.0,0.0,0.0,0.0,0.0,0.0,0.0,0.0,0.0,0.0,0.0,0.0,0.0,0.0,0.0,0.0,0.0,0.0,0.0,0.0,0.0,0.0,0.0,0.0,0.0,0.0,0.0,0.0,0.0,0.0,0.0,0.0,0.0,0.0,0.0,0.0,0.0,0.0,0.0,0.0,0.0,0.0,0.0,0.0,0.0,0.0,0.0,0.0,0.0,0.0,0.0,0.0,0.0,0.0,0.0,0.0,0.0,0.0,0.0,0.0,0.0,-3.0705,-3.0663,-2.9719,0.0,0.0,0.0,0.0,0.0,0.0,0.0,0.0,0.0,0.0,0.0,0.0,0.0,0.0,0.0,0.0,0.0,0.0,0.0,0.0,0.0,0.0,0.0,0.0,0.0,0.0,0.0,0.0,0.0,0.0,0.0,0.0,0.0,0.0,0.0,0.0,0.0,0.0,0.0,0.0,0.0,0.0,0.0,0.0,0.0,0.0,0.0,0.0,0.0,0.0,0.0,0.0,0.0,0.0,0.0,0.0,0.0,0.0,0.0,0.0,0.0,0.0,0.0,0.0,0.0,0.0,0.0,0.0,0.0,0.0,0.0,0.0,0.0,0.0,0.0,0.0,0.0,0.0,0.0,0.0,0.0,0.0,0.0,0.0,0.0,0.0,0.0,0.0,0.0,0.0,0.0,0.0,0.0,0.0,0.0,0.0,0.0,0.0,0.0,0.0,0.0,0.0,0.0,0.0,0.0,0.0,0.0,0.0,0.0,0.0,-3.0354,-3.037,-3.1006,0.0,-3.0012,0.0,0.0,0.0,0.0,0.0,0.0,0.0,0.0,0.0,0.0,0.0,0.0,0.0,0.0,0.0,0.0,0.0,0.0,0.0,0.0,0.0,0.0,0.0,0.0,0.0,0.0,0.0,0.0,0.0,0.0,0.0,0.0,0.0,0.0,0.0,0.0,0.0,0.0,0.0,0.0,0.0,0.0,0.0,0.0,0.0,0.0,0.0,0.0,0.0,0.0,0.0,0.0,0.0,0.0,0.0,0.0,0.0,0.0,0.0,0.0,0.0,0.0,0.0,0.0,0.0,0.0,0.0,0.0,0.0,0.0,0.0,0.0,0.0,0.0,0.0,0.0,0.0,0.0,0.0,0.0,0.0,0.0,0.0,0.0,0.0,0.0,0.0,0.0,0.0,0.0,0.0,0.0,0.0,0.0,0.0,0.0,0.0,0.0,0.0,0.0,0.0,0.0,0.0,0.0,0.0,0.0,0.0,0.0,0.0,0.0,-3.2118,-3.2007,-3.1694,-3.1302,0.0,0.0,0.0,0.0,0.0,0.0,0.0,0.0,0.0,0.0,0.0,0.0,0.0,0.0,0.0,0.0,0.0,0.0,0.0,0.0,0.0,0.0,0.0,0.0,0.0,0.0,0.0,0.0,0.0,0.0,0.0,0.0,0.0,0.0,0.0,0.0,0.0,0.0,0.0,0.0,0.0,0.0,0.0,0.0,0.0,0.0,0.0,0.0,0.0,0.0,0.0,0.0,0.0,0.0,0.0,0.0,0.0,0.0,0.0,0.0,0.0,0.0,0.0,0.0,0.0,0.0,0.0,0.0,0.0,0.0,0.0,0.0,0.0,0.0,0.0,0.0,0.0,0.0,0.0,0.0,0.0,0.0,0.0,0.0,0.0,0.0,0.0,0.0,0.0,0.0,0.0,0.0,0.0,0.0,0.0,0.0,0.0,0.0,0.0,0.0,0.0,0.0,0.0,0.0,0.0,0.0,0.0,0.0,0.0,0.0,-3.2653,-3.3599,-3.359,-3.2449,-3.1734,-3.1606,0.0,0.0,0.0,0.0,0.0,0.0,0.0,0.0,0.0,0.0,0.0,0.0,0.0,0.0,0.0,0.0,0.0,0.0,0.0,0.0,0.0,0.0,0.0,0.0,0.0,0.0,0.0,0.0,0.0,0.0,0.0,0.0,0.0,0.0,0.0,0.0,0.0,0.0,0.0,0.0,0.0,0.0,0.0,0.0,0.0,0.0,0.0,0.0,0.0,0.0,0.0,0.0,0.0,0.0,0.0,0.0,0.0,0.0,0.0,0.0,0.0,0.0,0.0,0.0,0.0,0.0,0.0,0.0,0.0,0.0,0.0,0.0,0.0,0.0,0.0,0.0,0.0,0.0,0.0,0.0,0.0,0.0,0.0,0.0,0.0,0.0,0.0,0.0,0.0,0.0,0.0,0.0,0.0,0.0,0.0,0.0,0.0,0.0,0.0,0.0,0.0,0.0,0.0,0.0,0.0,0.0,0.0,0.0,-3.1631,-3.3156,-3.4299,-3.4941,-3.3307,-3.2298,0.0,0.0,0.0,0.0,0.0,0.0,0.0,0.0,0.0,0.0,0.0,0.0,0.0,0.0,0.0,0.0,0.0,0.0,0.0,0.0,0.0,0.0,0.0,0.0,0.0,0.0,0.0,0.0,0.0,0.0,0.0,0.0,0.0,0.0,0.0,0.0,0.0,0.0,0.0,0.0,0.0,0.0,0.0,0.0,0.0,0.0,0.0,0.0,0.0,0.0,0.0,0.0,0.0,0.0,0.0,0.0,0.0,0.0,0.0,0.0,0.0,0.0,0.0,0.0,0.0,0.0,0.0,0.0,0.0,0.0,0.0,0.0,0.0,0.0,0.0,0.0,0.0,0.0,0.0,0.0,0.0,0.0,0.0,0.0,0.0,0.0,0.0,0.0,0.0,0.0,0.0,0.0,0.0,0.0,0.0,0.0,0.0,0.0,0.0,0.0,0.0,0.0,0.0,0.0,0.0,0.0,0.0,0.0,0.0,-3.3289,-3.4286,-3.5,-3.5304,-3.4008,-3.3034,0.0,0.0,0.0,0.0,0.0,0.0,0.0,0.0,0.0,0.0,0.0,0.0,0.0,0.0,0.0,0.0,0.0,0.0,0.0,0.0,0.0,0.0,0.0,0.0,0.0,0.0,0.0,0.0,0.0,0.0,0.0,0.0,0.0,0.0,0.0,0.0,0.0,0.0,0.0,0.0,0.0,0.0,0.0,0.0,0.0,0.0,0.0,0.0,0.0,0.0,0.0,0.0,0.0,0.0,0.0,0.0,0.0,0.0,0.0,0.0,0.0,0.0,0.0,0.0,0.0,0.0,0.0,0.0,0.0,0.0,0.0,0.0,0.0,0.0,0.0,0.0,0.0,0.0,0.0,0.0,0.0,0.0,0.0,0.0,0.0,0.0,0.0,0.0,0.0,0.0,0.0,0.0,0.0,0.0,0.0,0.0,0.0,0.0,0.0,0.0,0.0,0.0,0.0,0.0,0.0,0.0,0.0,0.0,0.0,-3.465,0.0,-3.5435,-3.5487,-3.4532,-3.3711,0.0,0.0,0.0,0.0,0.0,0.0,0.0,0.0,0.0,0.0,0.0,0.0,0.0,0.0,0.0,0.0,0.0,0.0,0.0,0.0,0.0,0.0,0.0,0.0,0.0,0.0,0.0,0.0,0.0,0.0,0.0,0.0,0.0,0.0,0.0,0.0,0.0,0.0,0.0,0.0,0.0,0.0,0.0,0.0,0.0,0.0,0.0,0.0,0.0,0.0,0.0,0.0,0.0,0.0,0.0,0.0,0.0,0.0,0.0,0.0,0.0,0.0,0.0,0.0,0.0,0.0,0.0,0.0,0.0,0.0,0.0,0.0,0.0,0.0,0.0,0.0,0.0,0.0,0.0,0.0,0.0,0.0,0.0,0.0,0.0,0.0,0.0,0.0,0.0,0.0,0.0,0.0,0.0,0.0,0.0,0.0,0.0,0.0,0.0,0.0,0.0,0.0,0.0,0.0,0.0,0.0,0.0,0.0,-3.4818,-3.5566,-3.5633,-3.5718,-3.5616,-3.4902,-3.4353,0.0,0.0,0.0,0.0,0.0,0.0,0.0,0.0,0.0,0.0,0.0,0.0,0.0,0.0,0.0,0.0,0.0,0.0,0.0,0.0,0.0,0.0,0.0,0.0,0.0,0.0,0.0,0.0,0.0,0.0,0.0,0.0,0.0,0.0,0.0,0.0,0.0,0.0,0.0,0.0,0.0,0.0,0.0,0.0,0.0,0.0,0.0,0.0,0.0,0.0,0.0,0.0,0.0,0.0,0.0,0.0,0.0,0.0,0.0,0.0,0.0,0.0,0.0,0.0,0.0,0.0,0.0,0.0,0.0,0.0,0.0,0.0,0.0,0.0,0.0,0.0,0.0,0.0,0.0,0.0,0.0,0.0,0.0,0.0,0.0,0.0,0.0,0.0,0.0,0.0,0.0,0.0,0.0,0.0,0.0,0.0,0.0,0.0,0.0,0.0,0.0,0.0,0.0,0.0,0.0,0.0,0.0,0.0,0.0,-3.6417,-3.6924,-3.7172,-3.7155,-3.6375,-3.5407,0.0,0.0,0.0,0.0,0.0,0.0,0.0,0.0,0.0,0.0,0.0,0.0,0.0,0.0,0.0,0.0,0.0,0.0,0.0,0.0,0.0,0.0,0.0,0.0,0.0,0.0,0.0,0.0,0.0,0.0,0.0,0.0,0.0,0.0,0.0,0.0,0.0,0.0,0.0,0.0,0.0,0.0,0.0,0.0,0.0,0.0,0.0,0.0,0.0,0.0,0.0,0.0,0.0,0.0,0.0,0.0,0.0,0.0,0.0,0.0,0.0,0.0,0.0,0.0,0.0,0.0,0.0,0.0,0.0,0.0,0.0,0.0,0.0,0.0,0.0,0.0,0.0,0.0,0.0,0.0,0.0,0.0,0.0,0.0,0.0,0.0,0.0,0.0,0.0,0.0,0.0,0.0,0.0,0.0,0.0,0.0,0.0,0.0,0.0,0.0,0.0,0.0,0.0,0.0,0.0,0.0,0.0,0.0,0.0,-3.917,-3.9217,-3.9197,-3.9197,-3.8618,-3.7378,-3.5464,0.0,0.0,0.0,0.0,0.0,0.0,0.0,0.0,0.0,0.0,0.0,0.0,0.0,0.0,0.0,0.0,0.0,0.0,0.0,0.0,0.0,0.0,0.0,0.0,0.0,0.0,0.0,0.0,0.0,0.0,0.0,0.0,0.0,0.0,0.0,0.0,0.0,0.0,0.0,0.0,0.0,0.0,0.0,0.0,0.0,0.0,0.0,0.0,0.0,0.0,0.0,0.0,0.0,0.0,0.0,0.0,0.0,0.0,0.0,0.0,0.0,0.0,0.0,0.0,0.0,0.0,0.0,0.0,0.0,0.0,0.0,0.0,0.0,0.0,0.0,0.0,0.0,0.0,0.0,0.0,0.0,0.0,0.0,0.0,0.0,0.0,0.0,0.0,0.0,0.0,0.0,0.0,0.0,0.0,0.0,0.0,0.0,0.0,0.0,0.0,0.0,0.0,0.0,0.0,0.0,0.0,0.0,0.0,-4.3484,-4.2449,-4.1844,-4.1767,-4.1528,-4.0069,0.0,0.0,0.0,0.0,0.0,0.0,0.0,0.0,0.0,0.0,0.0,0.0,0.0,0.0,0.0,0.0,0.0,0.0,0.0,0.0,0.0,0.0,0.0,0.0,0.0,0.0,0.0,0.0,0.0,0.0,0.0,0.0,0.0,0.0,0.0,0.0,0.0,0.0,0.0,0.0,0.0,0.0,0.0,0.0,0.0,0.0,0.0,0.0,0.0,0.0,0.0,0.0,0.0,0.0,0.0,0.0,0.0,0.0,0.0,0.0,0.0,0.0,0.0,0.0,0.0,0.0,0.0,0.0,0.0,0.0,0.0,0.0,0.0,0.0,0.0,0.0,0.0,0.0,0.0,0.0,0.0,0.0,0.0,0.0,0.0,0.0,0.0,0.0,0.0,0.0,0.0,0.0,0.0,0.0,0.0,0.0,0.0,0.0,0.0,0.0,0.0,0.0,0.0,0.0,0.0,0.0,0.0,0.0,0.0,-4.6473,-4.6976,-4.6783,-4.605,-4.4484,-4.2525,0.0,0.0,0.0,0.0,0.0,0.0,0.0,0.0,0.0,0.0,0.0,0.0,0.0,0.0,0.0,0.0,0.0,0.0,0.0,0.0,0.0,0.0,0.0,0.0,0.0,0.0,0.0,0.0,0.0,0.0,0.0,0.0,0.0,0.0,0.0,0.0,0.0,0.0,0.0,0.0,0.0,0.0,0.0,0.0,0.0,0.0,0.0,0.0,0.0,0.0,0.0,0.0,0.0,0.0,0.0,0.0,0.0,0.0,0.0,0.0,0.0,0.0,0.0,0.0,0.0,0.0,0.0,0.0,0.0,0.0,0.0,0.0,0.0,0.0,0.0,0.0,0.0,0.0,0.0,0.0,0.0,0.0,0.0,0.0,0.0,0.0,0.0,0.0,0.0,0.0,0.0,0.0,0.0,0.0,0.0,0.0,0.0,0.0,0.0,0.0,0.0,0.0,0.0,0.0,0.0,0.0,0.0,0.0,-4.3577,-4.7727,-4.9801,-5.072,-5.045,-4.752,-4.4595,0.0,0.0,0.0,0.0,0.0,0.0,0.0,0.0,0.0,0.0,0.0,0.0,0.0,0.0,0.0,0.0,0.0,0.0,0.0,0.0,0.0,0.0,0.0,0.0,0.0,0.0,0.0,0.0,0.0,0.0,0.0,0.0,0.0,0.0,0.0,0.0,0.0,0.0,0.0,0.0,0.0,0.0,0.0,0.0,0.0,0.0,0.0,0.0,0.0,0.0,0.0,0.0,0.0,0.0,0.0,0.0,0.0,0.0,0.0,0.0,0.0,0.0,0.0,0.0,0.0,0.0,0.0,0.0,0.0,0.0,0.0,0.0,0.0,0.0,0.0,0.0,0.0,0.0,0.0,0.0,0.0,0.0,0.0,0.0,0.0,0.0,0.0,0.0,0.0,0.0,0.0,0.0,0.0,0.0,0.0,0.0,0.0,0.0,0.0,0.0,0.0,0.0,0.0,0.0,0.0,0.0,0.0,0.0,-4.4595,-4.7647,-5.0953,-5.3129,-5.3958,-5.0206,-4.6496,0.0,0.0,0.0,0.0,0.0,0.0,0.0,0.0,0.0,0.0,0.0,0.0,0.0,0.0,0.0,0.0,0.0,0.0,0.0,0.0,0.0,0.0,0.0,0.0,0.0,0.0,0.0,0.0,0.0,0.0,0.0,0.0,0.0,0.0,0.0,0.0,0.0,0.0,0.0,0.0,0.0,0.0,0.0,0.0,0.0,0.0,0.0,0.0,0.0,0.0,0.0,0.0,0.0,0.0,0.0,0.0,0.0,0.0,0.0,0.0,0.0,0.0,0.0,0.0,0.0,0.0,0.0,0.0,0.0,0.0,0.0,0.0,0.0,0.0,0.0,0.0,0.0,0.0,0.0,0.0,0.0,0.0,0.0,0.0,0.0,0.0,0.0,0.0,0.0,0.0,0.0,0.0,0.0,0.0,0.0,0.0,0.0,0.0,0.0,0.0,0.0,0.0,0.0,0.0,0.0,0.0,0.0,0.0,-4.4241,-4.7753,-4.9194,-5.1051,-5.3402,-5.0937,-4.8403,0.0,0.0,0.0,0.0,0.0,0.0,0.0,0.0,0.0,0.0,0.0,0.0,0.0,0.0,0.0,0.0,0.0,0.0,0.0,0.0,0.0,0.0,0.0,0.0,0.0,0.0,0.0,0.0,0.0,0.0,0.0,0.0,0.0,0.0,0.0,0.0,0.0,0.0,0.0,0.0,0.0,0.0,0.0,0.0,0.0,0.0,0.0,0.0,-3.9487,0.0,0.0,0.0,0.0,0.0,0.0,0.0,0.0,0.0,0.0,0.0,0.0,0.0,0.0,0.0,0.0,0.0,0.0,0.0,0.0,0.0,0.0,0.0,0.0,0.0,0.0,0.0,0.0,0.0,0.0,0.0,0.0,0.0,0.0,0.0,0.0,0.0,0.0,0.0,0.0,0.0,0.0,0.0,0.0,0.0,0.0,0.0,0.0,0.0,0.0,0.0,0.0,0.0,0.0,0.0,0.0,0.0,0.0,0.0,-4.456,-4.7262,-4.8695,-5.0322,-5.2033,-5.0137,-4.8319,0.0,0.0,0.0,0.0,0.0,0.0,0.0,0.0,0.0,0.0,0.0,0.0,0.0,0.0,0.0,0.0,0.0,0.0,0.0,0.0,0.0,0.0,0.0,0.0,0.0,0.0,0.0,0.0,0.0,0.0,0.0,0.0,0.0,0.0,0.0,0.0,0.0,0.0,0.0,0.0,0.0,0.0,0.0,0.0,0.0,0.0,0.0,0.0,0.0,0.0,0.0,0.0,0.0,0.0,0.0,0.0,0.0,0.0,0.0,0.0,0.0,0.0,0.0,0.0,0.0,0.0,0.0,0.0,0.0,0.0,0.0,0.0,0.0,0.0,0.0,0.0,0.0,0.0,0.0,0.0,0.0,0.0,0.0,0.0,0.0,0.0,0.0,0.0,0.0,0.0,0.0,0.0,0.0,0.0,0.0,0.0,0.0,0.0,0.0,0.0,0.0,0.0,0.0,0.0,0.0,0.0,0.0,-4.2405,-4.482,-4.6539,-4.8316,-4.9658,-5.0471,-4.8596,-4.7196,-4.6401,0.0,0.0,0.0,0.0,0.0,0.0,0.0,0.0,0.0,0.0,0.0,0.0,0.0,0.0,0.0,0.0,0.0,0.0,0.0,0.0,0.0,0.0,0.0,0.0,0.0,0.0,0.0,0.0,0.0,0.0,0.0,0.0,0.0,0.0,0.0,0.0,0.0,0.0,-3.8403,-3.8437,0.0,0.0,0.0,0.0,0.0,0.0,0.0,0.0,-4.0899,0.0,0.0,0.0,0.0,0.0,0.0,0.0,0.0,0.0,0.0,0.0,0.0,0.0,0.0,0.0,0.0,0.0,0.0,0.0,0.0,0.0,0.0,0.0,0.0,0.0,0.0,0.0,0.0,0.0,0.0,0.0,0.0,0.0,0.0,0.0,0.0,0.0,0.0,0.0,0.0,0.0,0.0,0.0,0.0,0.0,0.0,0.0,0.0,0.0,0.0,0.0,0.0,0.0,0.0,0.0,0.0,-3.9952,-4.1723,-4.3685,-4.579,-4.6214,-4.7034,-4.829,-4.6912,-4.5645,-4.4692,0.0,0.0,0.0,0.0,0.0,0.0,0.0,0.0,0.0,0.0,0.0,0.0,0.0,0.0,0.0,0.0,0.0,0.0,0.0,0.0,0.0,0.0,0.0,0.0,0.0,0.0,0.0,0.0,0.0,0.0,0.0,0.0,0.0,0.0,0.0,0.0,0.0,0.0,0.0,-4.0824,-4.1333,0.0,0.0,0.0,0.0,0.0,0.0,0.0,0.0,-4.1634,0.0,0.0,0.0,0.0,0.0,0.0,0.0,0.0,0.0,0.0,0.0,0.0,0.0,0.0,0.0,0.0,0.0,0.0,0.0,0.0,0.0,0.0,0.0,0.0,0.0,0.0,0.0,0.0,0.0,0.0,0.0,0.0,0.0,0.0,0.0,0.0,0.0,0.0,0.0,0.0,0.0,0.0,0.0,0.0,0.0,0.0,0.0,0.0,0.0,0.0,0.0,0.0,0.0,0.0,0.0,-4.0646,-4.2134,-4.3792,-4.5635,-4.6075,-4.6786,-4.7821,-4.6853,-4.5575,0.0,0.0,0.0,0.0,0.0,0.0,0.0,0.0,0.0,0.0,0.0,0.0,0.0,0.0,0.0,0.0,0.0,0.0,0.0,0.0,0.0,0.0,0.0,0.0,0.0,0.0,0.0,0.0,0.0,0.0,0.0,0.0,0.0,0.0,0.0,0.0,0.0,0.0,0.0,0.0,-4.266,-4.3372,-4.402,0.0,0.0,0.0,0.0,0.0,0.0,-4.2983,-4.2429,0.0,0.0,0.0,0.0,0.0,0.0,0.0,0.0,0.0,0.0,0.0,0.0,0.0,0.0,0.0,0.0,0.0,0.0,0.0,0.0,0.0,0.0,0.0,0.0,0.0,0.0,0.0,0.0,0.0,0.0,0.0,0.0,0.0,0.0,0.0,0.0,0.0,0.0,0.0,0.0,0.0,0.0,0.0,0.0,0.0,0.0,0.0,0.0,0.0,0.0,0.0,0.0,0.0,0.0,0.0,-4.1187,-4.2648,-4.4079,-4.5432,-4.6041,-4.6633,-4.7208,-4.665,-4.5433,0.0,0.0,0.0,0.0,0.0,0.0,0.0,0.0,0.0,0.0,0.0,0.0,0.0,0.0,0.0,0.0,0.0,0.0,0.0,0.0,0.0,0.0,0.0,0.0,0.0,0.0,0.0,0.0,0.0,0.0,0.0,0.0,0.0,0.0,0.0,0.0,0.0,0.0,0.0,0.0,0.0,-4.532,-4.5643,-4.597,0.0,0.0,0.0,0.0,-4.4041,-4.4181,0.0,0.0,0.0,0.0,0.0,0.0,0.0,0.0,0.0,0.0,0.0,0.0,0.0,0.0,0.0,0.0,0.0,0.0,0.0,0.0,0.0,0.0,0.0,0.0,0.0,0.0,0.0,0.0,0.0,0.0,0.0,0.0,0.0,0.0,0.0,0.0,0.0,0.0,0.0,0.0,0.0,0.0,0.0,0.0,0.0,0.0,0.0,0.0,0.0,0.0,0.0,0.0,0.0,0.0,0.0,0.0,-4.1187,-4.2675,-4.3842,-4.4699,-4.4835,-4.4902,-4.4987,-4.4919,-4.3962,0.0,0.0,0.0,0.0,0.0,0.0,0.0,0.0,0.0,0.0,0.0,0.0,0.0,0.0,0.0,0.0,0.0,0.0,0.0,0.0,0.0,0.0,0.0,0.0,0.0,0.0,0.0,0.0,0.0,0.0,0.0,0.0,0.0,0.0,0.0,0.0,0.0,0.0,0.0,0.0,0.0,-4.7357,-4.8532,-4.8094,-4.7348,0.0,0.0,-4.6338,-4.6157,-4.7208,0.0,0.0,0.0,0.0,0.0,0.0,0.0,0.0,0.0,0.0,0.0,0.0,0.0,0.0,0.0,0.0,0.0,0.0,0.0,0.0,0.0,0.0,0.0,0.0,0.0,0.0,0.0,0.0,0.0,0.0,0.0,0.0,0.0,0.0,0.0,0.0,0.0,0.0,0.0,0.0,0.0,0.0,0.0,0.0,0.0,0.0,0.0,0.0,0.0,0.0,0.0,0.0,0.0,0.0,0.0,-4.0358,-4.1813,-4.3318,-4.4276,-4.4615,-4.4993,-4.5213,-4.5229,-4.5053,-4.4059,0.0,0.0,0.0,0.0,0.0,0.0,0.0,0.0,0.0,0.0,0.0,0.0,0.0,0.0,0.0,0.0,0.0,0.0,0.0,0.0,0.0,0.0,0.0,0.0,0.0,0.0,0.0,0.0,0.0,0.0,0.0,0.0,0.0,0.0,0.0,0.0,0.0,0.0,0.0,0.0,0.0,0.0,-4.9114,-4.9924,0.0,0.0,0.0,-4.8298,-4.7272,0.0,0.0,0.0,0.0,0.0,0.0,0.0,0.0,0.0,0.0,0.0,0.0,0.0,0.0,0.0,0.0,0.0,0.0,0.0,0.0,0.0,0.0,0.0,0.0,0.0,0.0,0.0,0.0,0.0,0.0,0.0,0.0,0.0,0.0,0.0,0.0,0.0,0.0,0.0,0.0,0.0,0.0,0.0,0.0,0.0,0.0,0.0,0.0,0.0,0.0,0.0,0.0,0.0,0.0,0.0,0.0,0.0,-4.2286,-4.3836,-4.4598,-4.4615,-4.5128,-4.5329,-4.5168,-4.4913,0.0,0.0,0.0,0.0,0.0,0.0,0.0,0.0,0.0,0.0,0.0,0.0,0.0,0.0,0.0,0.0,0.0,0.0,0.0,0.0,0.0,0.0,0.0,0.0,0.0,0.0,0.0,-3.3305,0.0,0.0,0.0,0.0,0.0,0.0,0.0,0.0,0.0,0.0,0.0,0.0,0.0,0.0,-4.9206,-4.9331,-5.1063,-5.1896,0.0,0.0,-4.9658,-4.8023,-4.8783,-4.8488,0.0,0.0,0.0,0.0,0.0,0.0,0.0,0.0,0.0,0.0,0.0,0.0,0.0,0.0,0.0,0.0,0.0,0.0,0.0,0.0,0.0,0.0,0.0,0.0,0.0,0.0,0.0,0.0,0.0,0.0,0.0,0.0,0.0,0.0,0.0,0.0,0.0,0.0,0.0,0.0,0.0,0.0,0.0,0.0,0.0,0.0,0.0,0.0,0.0,0.0,0.0,0.0,0.0,0.0,-4.0806,-4.2286,-4.3819,-4.4598,-4.4615,-4.4649,-4.4349,-4.3684,-4.3641,-4.2574,0.0,0.0,0.0,0.0,0.0,0.0,0.0,0.0,0.0,0.0,0.0,0.0,0.0,0.0,0.0,0.0,0.0,0.0,0.0,0.0,0.0,0.0,0.0,0.0,0.0,0.0,0.0,0.0,0.0,0.0,0.0,0.0,0.0,0.0,0.0,0.0,0.0,0.0,0.0,0.0,0.0,-4.9193,-4.9693,-5.1108,-5.2017,0.0,-5.1095,-5.0091,-4.841,-5.0543,-5.0675,-4.5545,0.0,0.0,0.0,0.0,0.0,0.0,0.0,0.0,0.0,0.0,0.0,0.0,0.0,0.0,0.0,0.0,0.0,0.0,0.0,0.0,0.0,0.0,0.0,0.0,0.0,0.0,0.0,0.0,0.0,0.0,0.0,0.0,0.0,0.0,0.0,0.0,0.0,0.0,0.0,0.0,0.0,0.0,0.0,0.0,0.0,0.0,0.0,0.0,0.0,0.0,0.0,0.0,0.0,-4.1508,-4.2963,-4.4073,-4.4598,-4.4598,-4.4598,-4.4253,-4.3495,-4.3336,-4.2211,0.0,0.0,0.0,0.0,0.0,0.0,0.0,0.0,0.0,0.0,0.0,0.0,0.0,0.0,0.0,0.0,0.0,0.0,0.0,0.0,0.0,0.0,0.0,0.0,0.0,0.0,0.0,0.0,-3.3997,-3.4181,-3.4801,0.0,0.0,0.0,0.0,0.0,0.0,0.0,0.0,0.0,0.0,-4.8591,-5.0138,-5.1246,0.0,0.0,-5.1162,-5.0108,-4.8444,-4.9193,-4.8927,-4.5862,-4.386,0.0,0.0,0.0,0.0,0.0,0.0,0.0,0.0,0.0,0.0,0.0,0.0,0.0,0.0,0.0,0.0,0.0,0.0,0.0,0.0,0.0,0.0,0.0,0.0,0.0,0.0,0.0,0.0,0.0,0.0,0.0,0.0,0.0,0.0,0.0,0.0,0.0,0.0,0.0,0.0,0.0,0.0,0.0,0.0,0.0,0.0,0.0,0.0,0.0,0.0,0.0,0.0,-4.1878,-4.3375,-4.4181,-4.4598,-4.4598,-4.4384,-4.3914,-4.3227,-4.2833,-4.1658,0.0,0.0,0.0,0.0,0.0,0.0,0.0,0.0,0.0,0.0,0.0,0.0,0.0,0.0,0.0,0.0,0.0,0.0,0.0,0.0,0.0,0.0,0.0,0.0,0.0,0.0,0.0,0.0,-3.4906,-3.4727,-3.4116,0.0,0.0,0.0,0.0,0.0,0.0,0.0,0.0,0.0,0.0,-4.7552,-4.904,-5.0109,-5.0744,-5.0677,-5.0042,-4.9142,-4.7996,-4.7863,-4.7266,-4.5448,0.0,0.0,0.0,0.0,0.0,0.0,0.0,0.0,0.0,0.0,0.0,0.0,0.0,0.0,0.0,0.0,0.0,0.0,0.0,0.0,0.0,0.0,0.0,0.0,0.0,0.0,0.0,0.0,0.0,0.0,-3.6492,0.0,0.0,0.0,0.0,0.0,0.0,0.0,0.0,0.0,0.0,0.0,0.0,0.0,0.0,0.0,0.0,0.0,0.0,0.0,0.0,0.0,0.0,-4.1782,-4.3358,-4.4153,-4.457,-4.4542,-4.3898,-4.3196,-4.2504,-4.1901,-4.0681,-3.8863,0.0,0.0,0.0,0.0,0.0,0.0,0.0,0.0,0.0,0.0,0.0,0.0,0.0,0.0,0.0,0.0,0.0,0.0,0.0,0.0,0.0,0.0,0.0,0.0,0.0,0.0,-3.528,-3.5584,-3.5052,0.0,0.0,0.0,0.0,0.0,0.0,0.0,0.0,0.0,0.0,-4.4264,-4.6065,-4.6026,-4.7348,-4.8394,-4.8166,-4.752,-4.6989,-4.6941,-4.6908,-4.6162,0.0,0.0,0.0,0.0,0.0,0.0,0.0,0.0,0.0,0.0,0.0,0.0,0.0,0.0,0.0,0.0,0.0,0.0,0.0,0.0,0.0,0.0,0.0,0.0,0.0,0.0,0.0,-3.7846,-3.78,0.0,0.0,0.0,0.0,0.0,0.0,0.0,0.0,0.0,0.0,0.0,-3.8818,-3.8921,0.0,0.0,0.0,0.0,0.0,0.0,0.0,0.0,0.0,0.0,0.0,0.0,-4.1404,-4.2464,-4.3386,-4.3663,-4.3229,-4.2953,-4.252,-4.1868,-4.1608,-4.0468,-3.8356,0.0,0.0,0.0,0.0,0.0,0.0,0.0,0.0,0.0,0.0,0.0,0.0,0.0,0.0,0.0,0.0,0.0,0.0,0.0,0.0,0.0,0.0,0.0,0.0,0.0,-3.4668,0.0,0.0,0.0,0.0,0.0,0.0,0.0,0.0,0.0,0.0,0.0,-4.1581,-4.2808,-4.4265,-4.5509,-4.6394,-4.7021,-4.7534,0.0,0.0,0.0,0.0,0.0,0.0,0.0,0.0,0.0,0.0,0.0,0.0,0.0,0.0,-4.2816,-4.2568,-4.3098,-4.3446,-4.2953,0.0,0.0,0.0,0.0,0.0,0.0,0.0,0.0,0.0,0.0,0.0,0.0,0.0,0.0,-3.8508,0.0,-3.8046,0.0,0.0,0.0,0.0,0.0,0.0,0.0,0.0,-3.8807,-3.9411,-4.0047,-4.0117,-3.9905,0.0,-3.955,-3.8934,0.0,0.0,0.0,0.0,0.0,0.0,0.0,0.0,-4.1106,-4.1983,-4.2761,-4.2937,-4.2504,-4.2269,-4.1949,-4.1477,-4.0772,-3.967,-3.8126,-3.6034,-3.4589,0.0,0.0,0.0,0.0,0.0,0.0,0.0,0.0,0.0,0.0,0.0,0.0,0.0,0.0,0.0,0.0,0.0,0.0,0.0,0.0,0.0,0.0,0.0,-3.4998,0.0,0.0,0.0,0.0,0.0,0.0,0.0,0.0,0.0,-4.0188,-4.1182,-4.2125,-4.3085,-4.4075,-4.4953,-4.5649,0.0,0.0,0.0,0.0,0.0,0.0,0.0,-4.4539,-4.4059,-4.4423,-4.474,-4.4754,-4.4539,-4.4605,-4.5317,0.0,0.0,-4.4556,-4.4754,-4.4937,-4.4473,-4.439,-4.436,-4.4343,-4.4373,-4.4062,0.0,0.0,0.0,0.0,0.0,0.0,0.0,0.0,-3.8758,-3.8708,0.0,-3.8616,0.0,0.0,0.0,0.0,0.0,-3.8154,0.0,0.0,-4.0801,-4.117,-4.0539,-4.0231,-4.007,-4.0008,-3.9769,-3.955,-3.9408,-3.7673,0.0,0.0,0.0,0.0,0.0,0.0,-4.0924,-4.1863,-4.2257,-4.2458,-4.2395,-4.1804,-4.1459,-4.1395,-3.9449,-3.8323,-3.8198,-3.6001,-3.4723,-3.4693,-3.3366,0.0,0.0,0.0,0.0,0.0,0.0,0.0,0.0,0.0,0.0,0.0,0.0,0.0,0.0,0.0,0.0,0.0,0.0,0.0,0.0,-3.5085,0.0,0.0,0.0,0.0,0.0,0.0,0.0,0.0,0.0,0.0,-4.013,-4.1559,-4.2539,-4.2539,0.0,0.0,0.0,0.0,-4.444,-4.3797,-4.3631,-4.3631,-4.3664,-4.4224,-4.4638,-4.4669,0.0,0.0,-4.6908,-4.6328,-4.6079,-4.6792,-4.7438,-4.7537,-4.6063,-4.5897,-4.593,-4.5881,-4.5864,-4.5847,-4.5814,-4.5732,-4.5367,-4.5226,0.0,0.0,0.0,0.0,-4.0907,-4.1233,-4.1713,-4.1503,-4.1155,-4.0678,-4.0136,0.0,0.0,0.0,0.0,0.0,0.0,-3.8877,-3.949,-3.9905,-4.0524,-4.1278,-4.1198,-4.114,-4.1125,-4.1043,-4.0737,-4.0179,-3.9175,-3.8466,-3.8023,0.0,0.0,0.0,0.0,-3.9759,-4.0578,-4.1373,-4.1558,-4.1091,-4.087,-4.0749,-4.0646,-3.8996,-3.8007,-3.7861,-3.6295,-3.5143,-3.4581,-3.4144,0.0,0.0,0.0,0.0,0.0,0.0,0.0,0.0,0.0,0.0,0.0,0.0,0.0,0.0,0.0,0.0,0.0,0.0,0.0,-3.5833,-3.4801,-3.4307,0.0,0.0,0.0,0.0,0.0,0.0,0.0,0.0,0.0,-4.1037,-4.2272,-4.3178,0.0,0.0,-4.383,-4.3615,-4.378,-4.4026,-4.4357,-4.3929,0.0,-4.4307,-4.4125,-4.3926,-4.3913,-4.5135,-4.646,-4.7504,-4.752,-4.7438,-4.7653,-4.7852,-4.7703,-4.6874,-4.7454,-4.7868,-4.752,-4.7371,-4.7173,-4.6725,-4.6576,-4.6129,-4.6817,-4.4127,-4.3006,-4.2457,-4.2352,-4.2403,-4.2669,-4.3058,-4.2509,-4.2062,-4.1646,-4.0832,-3.989,-3.8877,-3.82,0.0,0.0,0.0,-3.9244,-3.9874,-3.989,-4.032,-4.114,-4.1186,-4.1186,-4.117,-4.117,-4.094,-4.0489,-4.009,-3.9521,-3.8825,0.0,0.0,-3.8716,-3.9061,-3.9503,-4.001,-4.0714,-4.0904,-4.0524,-4.0175,-3.9879,-3.9501,-3.8177,-3.7416,-3.7285,-3.6225,-3.5409,-3.4906,-3.4638,-3.4173,0.0,0.0,0.0,0.0,0.0,0.0,0.0,0.0,0.0,0.0,0.0,-3.3956,-3.2925,0.0,0.0,0.0,-3.4158,-3.5579,-3.6746,-3.5759,0.0,0.0,0.0,0.0,0.0,0.0,0.0,-3.8215,-3.9494,-4.0528,-4.1231,-4.2043,-4.282,-4.3492,-4.3615,-4.3615,-4.3615,0.0,-4.3747,-4.4208,-4.3863,-4.3747,-4.4191,-4.4141,-4.4141,-4.444,-4.5185,-4.603,-4.6908,-4.7123,-4.7123,-4.7123,-4.7123,-4.699,-4.6543,-4.7206,-4.7669,-4.7239,-4.7355,-4.7305,-4.6609,-4.6477,-4.6096,-4.7718,-4.5697,-4.4529,-4.3971,-4.3845,-4.3576,-4.349,-4.3392,-4.2334,-4.1833,-4.174,-4.0963,-4.0213,-3.9536,-3.8921,0.0,-3.9567,-3.9601,-3.9905,-4.0489,-4.0489,-4.0489,-4.0489,-4.0505,-4.0489,-4.0505,-4.0489,-4.0489,-4.0489,-4.0489,-4.0216,-3.9601,-3.9166,-3.9054,-3.9233,-3.9581,-3.9871,-4.0053,-4.0337,-4.0459,-4.0413,-3.9692,-3.8962,-3.8256,-3.721,-3.6682,-3.6667,-3.5917,-3.5489,-3.5474,-3.4846,-3.4204,-3.3544,0.0,0.0,0.0,0.0,0.0,0.0,0.0,0.0,0.0,0.0,0.0,0.0,0.0,0.0,0.0,-3.3395,0.0,-3.7165,-3.724,0.0,0.0,0.0,-3.6785,-3.6845,-3.7038,-3.7688,-3.9001,0.0,0.0,-4.0707,-4.1051,-4.1723,-4.3183,-4.3459,-4.3539,-4.3598,-4.3615,-4.3615,-4.3648,-4.3615,-4.3615,-4.3681,-4.4125,-4.4705,-4.5367,-4.5698,-4.5715,-4.5864,-4.5881,-4.5814,-4.5881,-4.5814,-4.5781,-4.5732,-4.5831,-4.5765,-4.5682,-4.6262,-4.6593,-4.5881,-4.5698,-4.5467,-4.7262,-4.5744,-4.4879,-4.4832,-4.5234,-4.4472,-4.4089,-4.395,-4.2978,-4.2211,-4.1641,-4.1417,-4.0955,-4.0243,-4.009,-4.009,-4.0243,-4.0259,-4.0351,-4.0489,-4.0489,-4.0489,-4.0489,-4.0489,-4.0489,-4.0489,-4.0489,-4.0489,-4.0489,-4.0489,-4.0428,-4.0259,-4.0124,-3.9868,-3.9475,-3.9547,-3.9853,-4.038,-4.0447,-4.0209,-3.9581,-3.9276,-3.8694,-3.7857,-3.7007,-3.6528,-3.6514,-3.5881,-3.5489,-3.5474,-3.4846,-3.4188,-3.3529,-3.3176,0.0,0.0,0.0,0.0,0.0,0.0,0.0,0.0,0.0,-3.2741,-3.1619,0.0,-3.2647,0.0,-3.3903,-3.5085,-3.6552,-3.5821,0.0,0.0,-3.6944,-3.7458,-3.7937,-3.8497,-3.8808,-3.8806,-3.8998,-3.9152,-3.9299,-3.99,-4.0541,-4.1166,-4.2151,-4.3035,-4.3509,-4.3615,-4.3615,-4.3568,-4.3568,-4.3615,-4.3552,-4.3731,-4.4092,-4.4837,-4.4937,-4.5135,-4.5682,-4.5798,-4.5798,-4.5798,-4.5798,-4.5582,-4.5052,-4.5384,-4.5317,-4.4506,-4.5152,-4.5831,-4.5119,-4.4984,-4.4738,-4.6188,-4.4859,-4.4397,-4.4476,-4.4808,-4.4291,-4.3992,-4.3751,-4.2887,-4.2178,-4.1646,-4.1282,-4.0874,-4.0505,-4.0489,-4.0489,-4.0489,-4.0489,-4.0489,-4.0489,-4.0489,-4.0489,-4.0489,-4.0489,-4.0489,-4.0489,-4.0489,-4.0489,-4.0489,-4.0489,-4.0489,-4.0489,-4.0489,-4.0305,-3.9951,-3.9936,-4.0136,-4.0489,-4.0436,-3.9891,-3.8904,-3.8572,-3.7884,-3.6848,-3.6337,-3.5893,-3.5627,-3.5267,-3.4906,-3.4622,-3.42,-3.3615,-3.2868,-3.2545,-3.1858,0.0,0.0,0.0,0.0,0.0,0.0,0.0,0.0,0.0,0.0,0.0,-3.3036,-3.4277,-3.4711,-3.5474,-3.6776,-3.6222,-3.6088,-3.6836,-3.6956,-3.7255,-3.7883,-3.8048,-3.8113,-3.8112,-3.8235,-3.827,-3.8193,-3.857,-3.9033,-3.9527,-4.0292,-4.1231,-4.2393,-4.2663,-4.2772,-4.3096,-4.3174,-4.3043,-4.2747,-4.2449,-4.2351,-4.2728,-4.2827,-4.3065,-4.3701,-4.3843,-4.3926,-4.4241,-4.434,-4.434,-4.4241,-4.4522,-4.4522,-4.4012,-4.4257,-4.4605,-4.4307,-4.4208,-4.4059,-4.4799,-4.3687,-4.3592,-4.3561,-4.3561,-4.345,-4.3346,-4.3172,-4.2341,-4.1856,-4.1566,-4.0805,-4.0489,-4.0489,-4.0489,-4.0489,-4.0489,-4.0489,-4.0489,-4.0489,-4.0489,-4.0489,-4.0489,-4.0489,-4.0489,-4.0489,-4.0489,-4.0489,-4.0489,-4.0489,-4.0489,-4.0489,-4.0489,-4.0489,-4.0489,-4.0397,-4.0397,-4.0489,-4.0289,-3.9528,-3.8305,-3.7834,-3.6984,-3.5731,-3.5464,-3.5085,-3.4533,-3.4429,-3.4083,-3.3499,-3.324,-3.2775,-3.197,-3.1545,-3.1024,0.0,-3.0036,0.0,0.0,0.0,0.0,0.0,0.0,0.0,0.0,-3.2243,-3.3574,-3.5235,-3.5534,-3.6058,-3.7075,-3.7165,-3.7165,-3.715,-3.6761,-3.6701,-3.7195,-3.6881,-3.6776,-3.724,-3.7285,-3.727,-3.7169,-3.7225,-3.7541,-3.8109,-3.8411,-3.9104,-4.0548,-4.1096,-4.147,-4.2138,-4.2297,-4.2055,-4.1585,-4.0986,-4.0631,-4.0582,-4.0718,-4.0684,-4.1329,-4.1484,-4.1629,-4.2137,-4.2402,-4.2572,-4.3102,-4.3218,-4.3317,-4.3218,-4.3168,-4.3251,-4.3565,-4.3664,-4.3565,-4.3936,-4.3674,-4.3105,-4.2884,-4.2837,-4.2252,-4.2147,-4.231,-4.1585,-4.1069,-4.0743,-4.0586,-4.0489,-4.0489,-4.0489,-4.0489,-4.0489,-4.0489,-4.0489,-4.0489,-4.0489,-4.0489,-4.0489,-4.0489,-4.0489,-4.0489,-4.0489,-4.0489,-4.0489,-4.0489,-4.0489,-4.0489,-4.0489,-4.0489,-4.0474,0.0,0.0,0.0,-3.983,-3.902,-3.8093,-3.7283,-3.6451,-3.5569,-3.4998,0.0,-3.4503,-3.3978,-3.3572,-3.333,-3.2641,0.0,0.0,0.0,0.0,0.0,0.0,0.0,0.0,0.0,0.0,0.0,-3.0423,-3.1021,-3.2034,-3.3824,-3.4861,-3.4758,-3.5654,-3.6178,-3.5878,-3.5863,-3.5863,-3.5863,-3.6237,-3.6537,-3.6656,-3.6971,-3.7105,-3.6701,-3.6656,-3.6462,-3.6043,-3.6327,-3.6708,-3.6875,-3.7312,-3.7737,-3.8103,-3.9146,-3.9913,-4.0086,-4.053,-4.0817,-4.0722,-4.0451,-4.0101,-4.0514,-4.0484,-4.0459,-4.0509,-4.0992,-4.1099,-4.0884,-4.1243,-4.1397,-4.1099,-4.1442,-4.1753,-4.1794,-4.1409,-4.1524,-4.3201,-4.3582,-4.3433,-4.2995,0.0,-4.2299,-4.2141,0.0,-4.1746,-4.1472,-4.1221,-4.1135,-4.0848,-4.0489,-4.0489,-4.0489,-4.0489,-4.0489,-4.0489,-4.0489,-4.0489,-4.032,-3.9997,-3.9997,-3.9813,-3.949,-3.9539,-3.9524,-3.9505,-3.9828,-3.9982,-4.0013,-3.9997,-3.9997,-3.9997,-3.9693,-3.9505,-3.949,-3.9185,-3.92,-3.949,-3.9017,-3.836,-3.7539,-3.6977,-3.6298,-3.5519,-3.5175,0.0,0.0,0.0,0.0,0.0,0.0,0.0,0.0,-2.9777,0.0,-2.8876,-2.8844,-2.9013,-2.9352,-2.9201,-2.9273,-2.9682,-3.0435,-3.1447,-3.2779,-3.3902,-3.4651,-3.4966,-3.5609,-3.5863,-3.5549,-3.5489,-3.5489,-3.5519,-3.5804,-3.5998,-3.6043,-3.6267,-3.6342,-3.6073,-3.5998,-3.5863,-3.5549,-3.5444,-3.5504,-3.5507,-3.5459,-3.5519,-3.5674,-3.7195,-3.847,-3.8481,-3.8777,-3.8745,-3.8137,-3.7684,-3.7528,-3.7495,-3.7487,-3.7623,-3.7927,-3.8439,-3.8728,-3.8551,-3.8977,-3.9263,-3.9113,-3.9328,-3.9597,-3.9837,-3.9647,-3.968,-4.0845,-4.1243,-4.1435,-4.2141,-4.1588,-4.1588,-4.1588,-4.1588,-4.1588,-4.1095,-4.0334,0.0,0.0,0.0,-4.0489,-4.0489,-4.0489,-4.0366,-4.0382,-4.0489,-4.0366,-4.0074,-3.9674,-3.9536,-3.9198,-3.8692,-3.8569,-3.8508,-3.8539,-3.9077,-3.9305,-3.9305,-3.929,-3.9305,-3.9259,-3.8785,-3.8462,-3.8338,-3.8338,-3.8262,-3.8169,-3.8083,-3.7704,-3.7008,-3.669,-3.6192,-3.5519,-3.5385,-3.4741,-3.3544,-3.3888,-3.3259,-3.1411,-3.1152,-3.0645,-2.9747,-2.903,-2.8592,-2.8425,-2.8392,-2.8563,-2.8949,-2.8867,-2.8976,-2.93,-3.0341,-3.1569,-3.3031,-3.3363,-3.3993,-3.522,-3.5325,-3.537,-3.5489,-3.537,-3.537,-3.5474,-3.54,-3.5355,-3.5474,-3.5489,-3.5549,-3.5489,-3.5534,-3.5444,-3.5295,-3.4893,-3.4459,-3.4309,-3.4039,-3.3499,-3.3754,-3.5344,-3.6612,-3.6673,-3.6801,-3.6578,-3.5628,-3.5078,-3.442,-3.4772,-3.4615,-3.4585,-3.5115,-3.5683,-3.6038,-3.621,-3.6577,-3.6966,-3.7026,-3.7173,-3.7371,-3.7798,-3.7753,-3.7737,-3.7845,-3.803,-3.8417,-4.1683,-4.1588,-4.1588,-4.1588,-4.1588,-4.1588,-4.1079,-4.0318,-4.0082,-4.0186,-4.0489,-4.0489,-4.0489,-4.0459,-3.989,-3.9951,-4.0443,-3.9924,-3.989,-4.032,-3.9751,-3.9462,-3.9354,-3.8785,-3.8508,-3.8523,-3.86,-3.8646,-3.8646,-3.8646,-3.8646,-3.8646,-3.8521,-3.8215,-3.7692,-3.7646,-3.7353,-3.6815,-3.7178,-3.7247,-3.6993,-3.6222,-3.5744,-3.5489,-3.4936,-3.4277,-3.3529,-3.3066,-3.2064,-3.0551,-3.0278,-2.9665,-2.861,-2.8314,-2.8033,-2.7689,-2.7669,-2.79,-2.8428,-2.8012,-2.8006,-2.8565,-2.8826,-2.9736,-3.1616,-3.2835,-3.3814,-3.4547,-3.462,-3.4876,-3.537,-3.5011,-3.4936,-3.5385,-3.4966,-3.4846,-3.5429,-3.5459,-3.5474,-3.5489,-3.5489,-3.5265,-3.4771,-3.4563,-3.4234,-3.3769,-3.3425,-3.344,-3.3425,-3.3769,-3.4024,-3.4148,-3.4557,-3.4784,-3.4528,-3.457,-3.43,-3.4479,-3.4317,-3.4198,-3.4344,-3.4914,-3.511,-3.4691,-3.5126,-3.5328,-3.4948,-3.5288,-3.5589,-3.5721,-3.5399,-3.5177,-3.5637,-3.5068,-3.484,-4.1588,-4.1588,-4.1588,-4.1588,-4.1557,-4.1209,-4.0985,-4.0741,-3.9807,-3.9654,-4.0103,-4.037,-4.0489,-4.0474,-4.0166,-4.0197,-4.0459,-3.9797,-3.9493,-3.9385,-3.8706,-3.8231,-3.7861,-3.7554,-3.7415,-3.743,-3.7784,-3.7954,-3.7954,-3.7969,-3.7969,-3.7938,-3.76,-3.7261,-3.6969,-3.6953,-3.6595,-3.5941,-3.6517,-3.6748,-3.6574,-3.611,-3.5782,-3.5589,-3.5239,-3.4547,-3.3544,-3.3204,-3.2213,-3.0462,-2.9981,-2.9343,-2.8463,-2.802,-2.7703,-2.7503,-2.7503,-2.7607,-2.7902,-2.7646,-2.761,-2.7941,-2.8287,-2.8867,-2.9799,-3.1088,-3.2278,-3.3267,-3.3706,-3.4198,-3.4784,-3.4964,-3.516,-3.5474,-3.4891,-3.4771,-3.531,-3.5145,-3.51,-3.5415,-3.5489,-3.5235,-3.4593,-3.4173,-3.3694,-3.3066,-3.2706,-3.2467,-3.2422,-3.2422,-3.2557,-3.2901,-3.3215,-3.32,-3.2976,-3.2886,-3.2886,-3.2886,-3.2854,-3.2848,-3.2846,-3.3362,-3.3463,-3.2977,-3.3361,-3.3417,-3.2859,-3.2918,-3.3216,-3.3454,-3.3339,-3.3277,-3.3327,-3.2693,-3.2711,-4.1588,-4.1588,-4.1588,-4.1588,-4.1541,-4.1035,-4.0986,-4.1011,-3.9795,-3.9382,-3.967,-4.0069,-4.0182,-4.0043,-4.0043,-4.0028,-3.9951,-3.9336,-3.8862,-3.8462,-3.7815,-3.723,-3.6738,-3.6569,-3.6492,-3.6553,-3.703,-3.7277,-3.7277,-3.7277,-3.7277,-3.7215,-3.6738,-3.6492,-3.6492,-3.6492,-3.6195,-3.5657,-3.6133,-3.6242,-3.5943,-3.5958,-3.5894,-3.5671,-3.5362,-3.4622,-3.3388,-3.3141,-3.2112,-3.0197,-2.955,-2.8975,-2.8295,-2.7657,-2.7359,-2.7464,-2.7385,-2.7359,-2.749,-2.7503,-2.7503,-2.7503,-2.796,-2.8254,-2.8346,-2.9219,-3.0443,-3.1782,-3.2481,-3.3017,-3.3527,-3.3948,-3.4493,-3.4693,-3.4237,-3.409,-3.4829,-3.4562,-3.4442,-3.4966,-3.504,-3.4756,-3.4143,-3.3589,-3.3036,-3.2318,-3.178,-3.1468,-3.1409,-3.1424,-3.1691,-3.202,-3.2228,-3.2138,-3.1585,-3.157,-3.16,-3.1496,-3.1584,-3.1673,-3.1687,-3.1912,-3.1966,-3.1685,-3.1841,-3.1957,-3.1424,-3.1351,-3.1526,-3.1858,-3.1942,-3.1896,-3.1885,-3.1497,-3.1322,-4.1588,-4.1588,-4.1573,-4.1588,-4.1557,-4.1494,-4.1162,-4.0655,-4.0174,-3.9635,-3.9134,-3.9426,-3.9247,-3.8739,-3.8723,-3.8739,-3.8708,-3.8,-3.7984,-3.8385,-3.7815,-3.7461,-3.7292,-3.6769,-3.6492,-3.6507,-3.6584,-3.6645,-3.6645,-3.6615,-3.6599,-3.6584,-3.6507,-3.6492,-3.6492,-3.6492,-3.6383,-3.6133,-3.6211,-3.5832,-3.5106,-3.5655,-3.5829,-3.5522,-3.4776,-3.3849,-3.2613,-3.1968,-3.0685,-2.8908,-2.8665,-2.8289,-2.7637,-2.7072,-2.6987,-2.7398,-2.704,-2.6974,-2.7425,-2.7503,-2.7503,-2.7503,-2.7556,-2.7623,-2.7623,-2.7742,-2.861,-3.0197,-3.0711,-3.1174,-3.1641,-3.1442,-3.1811,-3.2829,-3.2322,-3.2245,-3.3404,-3.3619,-3.3619,-3.3649,-3.3798,-3.344,-3.2976,-3.2662,-3.2303,-3.1633,-3.1411,-3.1292,-3.122,-3.1278,-3.1307,-3.1353,-3.1455,-3.1586,-3.1467,-3.1496,-3.1467,-3.1496,-3.1511,-3.1453,-3.1409,-3.138,-3.1351,-3.1322,-3.122,-3.1249,-3.1176,-3.1102,-3.1117,-3.1176,-3.1219,-3.1205,-3.1146,-3.0999,-3.1014,-4.1588,-4.1557,-4.1162,-4.1004,-4.1004,-4.1004,-4.0846,-4.0482,-3.8921,-3.831,-3.8356,-3.7945,-3.8015,-3.8477,-3.8092,-3.8123,-3.8446,-3.7815,-3.7646,-3.7846,-3.7215,-3.6907,-3.6876,-3.6645,-3.6492,-3.6492,-3.6492,-3.6492,-3.6492,-3.6492,-3.6492,-3.6492,-3.6492,-3.6492,-3.6492,-3.6492,-3.6038,-3.5109,-3.5028,-3.4386,-3.3346,-3.4105,-3.4381,-3.3798,-3.3035,-3.2254,-3.1376,-3.0643,-2.9731,-2.8595,-2.8137,-2.765,-2.7072,-2.6804,-2.6621,-2.6543,-2.6634,-2.6798,-2.7013,-2.7327,-2.7503,-2.7503,-2.7503,-2.7503,-2.7503,-2.7503,-2.7881,-2.861,-2.9414,-3.0176,-3.0735,-3.0969,-3.1334,-3.1732,-3.1308,-3.1292,-3.2179,-3.2311,-3.2441,-3.2825,-3.3254,-3.323,-3.2587,-3.2079,-3.1634,-3.1234,-3.1176,-3.1161,-3.1176,-3.1205,-3.119,-3.1205,-3.1234,-3.1307,-3.1366,-3.138,-3.1365,-3.138,-3.1336,-3.122,-3.1205,-3.119,-3.1161,-3.1102,-3.1073,-3.1014,-3.094,-3.0925,-3.0895,-3.0866,-3.0806,-3.0821,-3.0881,-3.0791,-3.0732,-4.132,-4.1257,-4.0798,-4.0467,-4.034,-4.0719,-4.0546,-3.9898,-3.8247,-3.7654,-3.7561,-3.6477,-3.6692,-3.7784,-3.7615,-3.7692,-3.7877,-3.7446,-3.723,-3.7169,-3.6722,-3.6492,-3.6492,-3.6492,-3.6492,-3.6461,-3.6322,-3.6199,-3.6215,-3.6215,-3.6199,-3.6212,-3.6179,-3.6085,-3.5896,-3.5832,-3.5302,-3.4254,-3.3922,-3.3009,-3.1742,-3.2179,-3.2462,-3.2231,-3.1578,-3.0895,-3.0248,-2.9547,-2.8892,-2.8262,-2.7611,-2.7118,-2.6732,-2.6418,-2.602,-2.5694,-2.6125,-2.6536,-2.6693,-2.7066,-2.7366,-2.7477,-2.7503,-2.7503,-2.7503,-2.7503,-2.7503,-2.7629,-2.8392,-2.9141,-2.9558,-3.009,-3.0455,-3.0592,-3.0206,-3.021,-3.0787,-3.0877,-3.1056,-3.1519,-3.1942,-3.2479,-3.208,-3.1604,-3.1205,-3.1058,-3.1014,-3.1014,-3.1087,-3.1029,-3.1043,-3.1117,-3.1087,-3.1132,-3.1234,-3.1234,-3.1234,-3.1234,-3.1161,-3.1102,-3.1043,-3.1014,-3.0984,-3.0881,-3.0955,-3.0925,-3.0791,-3.0732,-3.0732,-3.0642,-3.0612,-3.0642,-3.0732,-3.0672,-3.0642,-4.064,-4.0625,-4.0609,-4.0182,-3.9645,-4.0846,-4.0356,-3.8666,-3.8717,-3.82,-3.686,-3.5347,-3.5352,-3.6615,-3.7138,-3.7138,-3.6676,-3.6615,-3.6599,-3.6599,-3.6522,-3.6492,-3.6492,-3.6492,-3.6476,-3.6368,-3.5891,-3.5568,-3.5522,-3.5522,-3.5522,-3.5437,-3.5372,-3.5094,-3.4555,-3.4297,-3.4032,-3.3636,-3.2949,-3.1935,-3.0562,-2.9948,-3.0347,-3.1147,-3.0792,-3.0079,-2.9502,-2.8824,-2.8166,-2.757,-2.7059,-2.6732,-2.6588,-2.5659,-2.5083,-2.5097,-2.5537,-2.6099,-2.6562,-2.6732,-2.6961,-2.7385,-2.7477,-2.7503,-2.7503,-2.7503,-2.7503,-2.7503,-2.7655,-2.7767,-2.7807,-2.8079,-2.8279,-2.8698,-2.8668,-2.888,-2.9327,-2.9442,-2.9306,-2.9422,-3.0007,-3.0573,-3.1057,-3.1132,-3.0955,-3.0836,-3.0791,-3.0791,-3.0762,-3.0762,-3.0791,-3.0777,-3.0881,-3.1117,-3.1117,-3.1102,-3.1102,-3.1073,-3.1043,-3.0999,-3.0881,-3.0777,-3.0717,-3.0687,-3.0702,-3.0702,-3.0642,-3.0612,-3.0642,-3.0612,-3.0612,-3.0642,-3.0672,-3.0642,-3.0612,-3.9898,-3.9914,-3.9898,-3.974,-3.9471,-3.9139,-3.8539,-3.7765,-3.6438,-3.5824,-3.5504,-3.4475,-3.4685,-3.5861,-3.6107,-3.6307,-3.6476,-3.6492,-3.6492,-3.6492,-3.6492,-3.6492,-3.6492,-3.6492,-3.6245,-3.5876,-3.5599,-3.5064,-3.4273,-3.4171,-3.4135,-3.4118,-3.4112,-3.3966,-3.3711,-3.3264,-3.2766,-3.2111,-3.1349,-3.0207,-2.8873,-2.8385,-2.8325,-2.8414,-2.8512,-2.8425,-2.8226,-2.7971,-2.7575,-2.7013,-2.6811,-2.6379,-2.5633,-2.4887,-2.4426,-2.4478,-2.4962,-2.5367,-2.5646,-2.63,-2.6784,-2.6961,-2.734,-2.7503,-2.7503,-2.7503,-2.7503,-2.7503,-2.7503,-2.7456,-2.7403,-2.7436,-2.7556,-2.7689,-2.7743,-2.7736,-2.7894,-2.8208,-2.8487,-2.8661,-2.9125,-2.9577,-2.9659,-2.9993,-3.019,-3.0099,-3.0387,-3.0642,-3.0702,-3.0702,-3.0702,-3.0687,-3.0762,-3.0791,-3.0762,-3.0866,-3.0925,-3.0895,-3.0866,-3.0791,-3.0702,-3.0702,-3.0657,-3.0657,-3.0612,-3.0612,-3.0612,-3.0612,-3.0612,-3.0612,-3.0612,-3.0612,-3.0612,-3.0612,-3.0612,-3.9234,-3.895,-3.9329,-3.9092,-3.8507,-3.8254,-3.748,-3.6485,-3.549,-3.5021,-3.4815,-3.4283,-3.4713,-3.5645,-3.5614,-3.5891,-3.6445,-3.6492,-3.6492,-3.6492,-3.6492,-3.6492,-3.6492,-3.6492,-3.6261,-3.5738,-3.5141,-3.4349,-3.3499,-3.2993,-3.2898,-3.3058,-3.2885,-3.2606,-3.2307,-3.1683,-3.1026,-3.0306,-2.9436,-2.832,-2.7294,-2.7236,-2.6883,-2.6392,-2.6844,-2.7216,-2.7249,-2.7046,-2.6785,-2.6452,-2.6274,-2.5712,-2.4796,-2.4334,-2.4125,-2.4164,-2.4478,-2.4809,-2.5083,-2.5895,-2.6478,-2.6719,-2.7196,-2.7503,-2.7503,-2.7503,-2.7503,-2.7477,-2.7314,-2.7183,-2.7031,-2.6914,-2.6921,-2.6939,-2.6841,-2.6672,-2.6493,-2.6791,-2.7123,-2.7458,-2.7976,-2.8352,-2.8529,-2.9014,-2.9254,-2.9251,-2.9825,-3.0296,-3.0372,-3.0538,-3.0526,-3.044,-3.0293,-3.0264,-3.0249,-3.0279,-3.0616,-3.0644,-3.0732,-3.0642,-3.0612,-3.0612,-3.0612,-3.0612,-3.0598,-3.0598,-3.0598,-3.0598,-3.0598,-3.0583,-3.0612,-3.0612,-3.0612,-3.0612,-3.0612,-3.8697,-3.7875,-3.8934,-3.8381,-3.7133,-3.8381,-3.737,-3.5066,-3.6137,-3.5866,-3.4815,-3.4687,-3.5209,-3.6091,-3.5707,-3.5845,-3.6399,-3.6492,-3.6492,-3.6492,-3.6492,-3.6492,-3.6492,-3.6399,-3.6245,-3.5984,-3.4318,-3.3425,-3.3078,-3.2045,-3.1715,-3.205,-3.1687,-3.1082,-3.0179,-2.9592,-2.8979,-2.8551,-2.759,-2.6548,-2.5981,-2.6386,-2.6209,-2.5358,-2.6104,-2.6627,-2.6654,-2.6164,-2.5897,-2.5741,-2.5341,-2.4769,-2.4295,-2.4125,-2.4125,-2.4125,-2.4122,-2.4413,-2.4979,-2.5537,-2.6151,-2.6667,-2.7196,-2.7464,-2.7385,-2.7398,-2.7385,-2.7196,-2.6915,-2.6596,-2.633,-2.5948,-2.5858,-2.6239,-2.5975,-2.5653,-2.5448,-2.5243,-2.5333,-2.586,-2.6461,-2.6966,-2.7561,-2.8076,-2.8375,-2.8511,-2.9178,-2.9685,-2.9747,-3.016,-3.0277,-2.9827,-2.9841,-3.0074,-2.9856,-2.9653,-3.0074,-3.0423,-3.0569,-3.0612,-3.0612,-3.0612,-3.0612,-3.0598,-3.0321,-3.0306,-3.0292,-3.0307,-3.0365,-3.038,-3.0467,-3.0554,-3.0612,-3.0612,-3.0612,-3.8144,-3.8223,-3.8634,-3.8207,-3.718,-3.7338,-3.6153,-3.4415,-3.4911,-3.471,-3.4335,-3.4579,-3.5101,-3.5629,-3.5598,-3.5861,-3.6476,-3.6492,-3.6492,-3.6492,-3.6492,-3.6492,-3.6415,-3.6014,-3.5291,-3.4176,-3.2378,-3.1423,-3.1283,-3.057,-3.0218,-3.0306,-3.0251,-2.9921,-2.9403,-2.851,-2.7811,-2.7412,-2.6701,-2.5954,-2.5371,-2.5798,-2.5707,-2.5136,-2.5358,-2.5528,-2.5528,-2.5707,-2.5628,-2.5262,-2.5097,-2.4743,-2.4243,-2.4125,-2.4125,-2.4125,-2.4125,-2.436,-2.4966,-2.5497,-2.6059,-2.6634,-2.7196,-2.7275,-2.7,-2.6961,-2.6759,-2.6349,-2.6031,-2.5832,-2.5505,-2.5126,-2.5062,-2.5461,-2.5358,-2.5116,-2.4919,-2.5001,-2.5084,-2.5116,-2.5397,-2.5646,-2.5865,-2.6543,-2.7266,-2.7448,-2.8547,-2.9359,-2.9156,-2.9797,-3.0067,-2.9193,-2.9603,-2.9681,-2.9305,-2.9117,-2.9464,-2.9987,-3.0307,-3.0583,-3.0612,-3.0598,-3.0598,-3.0394,-3.0132,-2.9958,-2.9929,-2.9914,-2.9929,-3.006,-3.0118,-3.0307,-3.0539,-3.0481,-3.0307,-3.797,-3.816,-3.8397,-3.7954,-3.7133,-3.6848,-3.6011,-3.4857,-3.4888,-3.483,-3.4737,-3.4701,-3.5191,-3.5706,-3.5629,-3.5907,-3.6445,-3.6492,-3.6492,-3.6492,-3.6492,-3.6352,-3.5993,-3.512,-3.4015,-3.2676,-3.1229,-3.0506,-3.0413,-2.9619,-2.9298,-2.9461,-2.9298,-2.8909,-2.8437,-2.7546,-2.6787,-2.6214,-2.5612,-2.5135,-2.4874,-2.521,-2.5223,-2.4796,-2.4874,-2.4887,-2.4713,-2.5014,-2.5027,-2.4756,-2.4678,-2.4465,-2.4151,-2.4125,-2.4125,-2.4125,-2.4151,-2.436,-2.4966,-2.5497,-2.6059,-2.6634,-2.7196,-2.7262,-2.685,-2.6706,-2.6393,-2.5829,-2.5517,-2.5231,-2.4891,-2.4456,-2.4267,-2.4348,-2.4405,-2.4381,-2.4236,-2.4287,-2.428,-2.423,-2.4482,-2.4576,-2.4779,-2.5497,-2.6259,-2.6538,-2.7723,-2.8903,-2.8643,-2.9059,-2.8764,-2.8376,-2.8171,-2.8279,-2.8455,-2.8613,-2.8872,-2.9421,-2.9987,-3.038,-3.0612,-3.0598,-3.0583,-3.0001,-2.9682,-2.9348,-2.9261,-2.9276,-2.929,-2.9508,-2.9624,-2.9624,-2.9624,-2.9697,-2.9581,-3.8049,-3.7607,-3.8223,-3.7687,-3.6629,-3.7133,-3.6624,-3.5584,-3.589,-3.5907,-3.5609,-3.5163,-3.5467,-3.6107,-3.5799,-3.6014,-3.6399,-3.6492,-3.6415,-3.6368,-3.6322,-3.595,-3.4949,-3.3844,-3.2681,-3.156,-3.0797,-3.0446,-3.021,-2.9201,-2.8904,-2.9252,-2.8839,-2.8196,-2.7549,-2.6725,-2.61,-2.5485,-2.4704,-2.4321,-2.4295,-2.4635,-2.473,-2.4217,-2.4596,-2.4648,-2.4266,-2.4282,-2.423,-2.4138,-2.4191,-2.4178,-2.4125,-2.4125,-2.4125,-2.4125,-2.4125,-2.4426,-2.4966,-2.5511,-2.602,-2.6504,-2.7027,-2.721,-2.6588,-2.6334,-2.6048,-2.5452,-2.5079,-2.4697,-2.4351,-2.394,-2.3534,-2.3236,-2.3472,-2.3447,-2.3175,-2.3195,-2.3339,-2.3321,-2.3627,-2.3954,-2.3991,-2.4847,-2.5345,-2.5724,-2.6582,-2.7438,-2.7761,-2.7746,-2.7666,-2.7301,-2.6789,-2.6803,-2.6919,-2.7032,-2.7357,-2.8297,-2.8872,-2.929,-2.99,-3.0016,-3.0118,-2.9581,-2.9044,-2.8753,-2.8709,-2.8724,-2.8681,-2.8739,-2.8739,-2.8665,-2.8811,-2.9014,-2.9058,-3.7638,-3.7589,-3.8223,-3.7671,-3.6582,-3.718,-3.6719,-3.5477,-3.5455,-3.5472,-3.5221,-3.5431,-3.5563,-3.5768,-3.6091,-3.6338,-3.6415,-3.6461,-3.6168,-3.5799,-3.5783,-3.4726,-3.3355,-3.2407,-3.1553,-3.0735,-3.0123,-2.9743,-2.9694,-2.8963,-2.8728,-2.8804,-2.8552,-2.8201,-2.7792,-2.7059,-2.6622,-2.6162,-2.5227,-2.4713,-2.4648,-2.4426,-2.4282,-2.4178,-2.4282,-2.4295,-2.4096,-2.4125,-2.4125,-2.4125,-2.4125,-2.4125,-2.4125,-2.4125,-2.4125,-2.4125,-2.4138,-2.436,-2.4966,-2.5484,-2.589,-2.6059,-2.6595,-2.6452,-2.5528,-2.5314,-2.4905,-2.4344,-2.394,-2.3782,-2.3533,-2.3359,-2.3168,-2.3138,-2.3168,-2.3168,-2.3108,-2.3095,-2.3095,-2.3133,-2.3271,-2.3346,-2.3534,-2.3991,-2.4494,-2.4722,-2.5409,-2.6218,-2.6396,-2.645,-2.6383,-2.5749,-2.5334,-2.531,-2.5342,-2.5439,-2.5911,-2.6947,-2.747,-2.7668,-2.8295,-2.8768,-2.8913,-2.8884,-2.8202,-2.7795,-2.81,-2.8318,-2.8202,-2.8013,-2.8448,-2.8652,-2.8651,-2.8767,-2.8709,-3.751,-3.7512,-3.7907,-3.7622,-3.6959,-3.7336,-3.6861,-3.6026,-3.6006,-3.5595,-3.5203,-3.5554,-3.5686,-3.5568,-3.5876,-3.6045,-3.6107,-3.6061,-3.5706,-3.497,-3.4167,-3.3119,-3.2084,-3.1366,-3.0577,-2.9727,-2.9341,-2.9153,-2.9071,-2.8766,-2.8619,-2.8568,-2.8398,-2.8115,-2.7658,-2.7194,-2.6577,-2.5978,-2.5293,-2.49,-2.4626,-2.4295,-2.4164,-2.4125,-2.4125,-2.4125,-2.4125,-2.4125,-2.4125,-2.4125,-2.4125,-2.4125,-2.4125,-2.4125,-2.4125,-2.4125,-2.4125,-2.436,-2.4913,-2.5301,-2.5563,-2.5767,-2.6177,-2.5837,-2.521,-2.4888,-2.4546,-2.3888,-2.3654,-2.3492,-2.3271,-2.3168,-2.3095,-2.3095,-2.3095,-2.3095,-2.3095,-2.3095,-2.3095,-2.3095,-2.3095,-2.3095,-2.3108,-2.364,-2.3904,-2.4129,-2.4545,-2.4948,-2.5123,-2.5118,-2.4981,-2.4363,-2.3756,-2.3597,-2.3526,-2.3595,-2.3865,-2.4927,-2.5531,-2.5792,-2.6783,-2.7386,-2.7538,-2.7552,-2.7159,-2.7026,-2.7331,-2.7563,-2.7505,-2.7607,-2.8231,-2.8318,-2.81,-2.8186,-2.8142,-3.7462,-3.7399,-3.737,-3.7368,-3.7194,-3.7148,-3.6643,-3.6453,-3.6582,-3.6014,-3.5109,-3.5504,-3.5358,-3.5213,-3.5168,-3.5352,-3.5245,-3.517,-3.4712,-3.3743,-3.2555,-3.144,-3.1149,-3.0464,-2.9674,-2.8885,-2.8619,-2.8651,-2.8683,-2.8619,-2.8587,-2.8522,-2.8333,-2.7881,-2.7354,-2.6963,-2.623,-2.5424,-2.5136,-2.4822,-2.4439,-2.423,-2.4125,-2.4125,-2.4125,-2.4125,-2.4125,-2.4125,-2.4125,-2.4125,-2.4125,-2.4125,-2.4125,-2.4125,-2.4125,-2.4125,-2.4138,-2.4347,-2.4796,-2.4966,-2.5162,-2.5471,-2.5602,-2.544,-2.4931,-2.4706,-2.4416,-2.3811,-2.3832,-2.3582,-2.336,-2.3198,-2.302,-2.297,-2.2957,-2.2995,-2.2957,-2.302,-2.3083,-2.3045,-2.3032,-2.3095,-2.3158,-2.3434,-2.3778,-2.3326,-2.3604,-2.3547,-2.3543,-2.3456,-2.3316,-2.2985,-2.2373,-2.1778,-2.174,-2.1707,-2.2074,-2.2664,-2.3205,-2.382,-2.5283,-2.5899,-2.6012,-2.5975,-2.5796,-2.596,-2.6387,-2.6533,-2.6709,-2.6982,-2.7447,-2.7229,-2.6953,-2.7244,-2.7331,-3.7148,-3.6658,-3.6658,-3.6327,-3.5789,-3.5236,-3.5221,-3.5584,-3.5065,-3.4701,-3.4329,-3.4716,-3.4262,-3.3183,-3.415,-3.4428,-3.3894,-3.3772,-3.329,-3.2088,-3.123,-3.0407,-2.9947,-2.9329,-2.8889,-2.8587,-2.8587,-2.8587,-2.8587,-2.856,-2.8509,-2.8338,-2.8109,-2.7714,-2.7035,-2.6867,-2.6411,-2.5667,-2.524,-2.4953,-2.4648,-2.4295,-2.4125,-2.4125,-2.4125,-2.4125,-2.4125,-2.4125,-2.4125,-2.4125,-2.4125,-2.4125,-2.4125,-2.4125,-2.4125,-2.4125,-2.4125,-2.4191,-2.4347,-2.4674,-2.4835,-2.4635,-2.4922,-2.4892,-2.4209,-2.4068,-2.3855,-2.3522,-2.339,-2.3288,-2.3198,-2.3138,-2.2907,-2.2656,-2.2518,-2.2372,-2.2108,-2.2598,-2.2782,-2.2644,-2.2782,-2.2945,-2.2531,-2.2573,-2.2698,-2.2623,-2.2439,-2.2194,-2.2059,-2.1933,-2.1797,-2.1696,-2.1422,-2.0927,-2.0791,-2.0784,-2.103,-2.1262,-2.1595,-2.1877,-2.3338,-2.4078,-2.4086,-2.4292,-2.4549,-2.4847,-2.5274,-2.5986,-2.6225,-2.6471,-2.6622,-2.668,-2.6654,-2.6709,-2.6794,-3.674,-3.6377,-3.6045,-3.5726,-3.5315,-3.462,-3.451,-3.4778,-3.4412,-3.3697,-3.3267,-3.3874,-3.3408,-3.2071,-3.298,-3.3106,-3.244,-3.1855,-3.1293,-3.0468,-2.9706,-2.9195,-2.9059,-2.8552,-2.8275,-2.8519,-2.8587,-2.8587,-2.8546,-2.8343,-2.8044,-2.7929,-2.7776,-2.7229,-2.6773,-2.6823,-2.6457,-2.5628,-2.5419,-2.5145,-2.4596,-2.4295,-2.4125,-2.4125,-2.4125,-2.4125,-2.4125,-2.4125,-2.4125,-2.4112,-2.4112,-2.4112,-2.4112,-2.4112,-2.4112,-2.4125,-2.4125,-2.4125,-2.423,-2.436,-2.4426,-2.4151,-2.4413,-2.4331,-2.4057,-2.3848,-2.3671,-2.3509,-2.3348,-2.3198,-2.3125,-2.3095,-2.2832,-2.2443,-2.2309,-2.2058,-2.1719,-2.202,-2.2284,-2.2033,-2.2146,-2.2146,-2.202,-2.1933,-2.1933,-2.1995,-2.1597,-2.1322,-2.1171,-2.1035,-2.0706,-2.0533,-2.0444,-2.0214,-2.0025,-2.004,-2.0232,-2.0425,-2.063,-2.0745,-2.1328,-2.1783,-2.2031,-2.2575,-2.3289,-2.3617,-2.4105,-2.4885,-2.5443,-2.5369,-2.5532,-2.6078,-2.6486,-2.6579,-2.6692,-3.6345,-3.6187,-3.5521,-3.511,-3.4853,-3.411,-3.3799,-3.3957,-3.3961,-3.3091,-3.2253,-3.3193,-3.2691,-3.1512,-3.1658,-3.1542,-3.0746,-2.9956,-2.9361,-2.8925,-2.8229,-2.8016,-2.8052,-2.7831,-2.7854,-2.841,-2.856,-2.8587,-2.8451,-2.8094,-2.7895,-2.7534,-2.7322,-2.6773,-2.6319,-2.6561,-2.6242,-2.504,-2.5132,-2.5001,-2.4334,-2.4138,-2.4125,-2.4125,-2.4125,-2.4125,-2.4125,-2.4112,-2.406,-2.3952,-2.3952,-2.3981,-2.3952,-2.3952,-2.406,-2.4073,-2.4008,-2.3968,-2.4047,-2.4031,-2.3965,-2.4031,-2.3806,-2.3907,-2.3846,-2.369,-2.3453,-2.3267,-2.3056,-2.2825,-2.2862,-2.2706,-2.2468,-2.2146,-2.202,-2.1794,-2.1393,-2.123,-2.123,-2.1418,-2.1606,-2.1694,-2.1534,-2.1383,-2.1395,-2.1292,-2.088,-2.0541,-2.0415,-2.0302,-2.0087,-1.9987,-2.0012,-2.0012,-1.9849,-1.9798,-1.9938,-1.9977,-2.0041,-2.0067,-2.0067,-2.0438,-2.1029,-2.1567,-2.216,-2.2505,-2.2965,-2.3677,-2.4036,-2.4033,-2.4813,-2.5782,-2.62,-2.6434,-2.6567,-3.6061,-3.5505,-3.4762,-3.3873,-3.2813,-3.2045,-3.2155,-3.255,-3.2547,-3.2238,-3.2076,-3.2504,-3.1668,-3.0387,-2.9966,-2.9483,-2.8708,-2.8224,-2.7838,-2.7464,-2.7001,-2.705,-2.7084,-2.7081,-2.7325,-2.7854,-2.8261,-2.8519,-2.8573,-2.8465,-2.7885,-2.738,-2.7165,-2.6516,-2.5599,-2.5345,-2.5315,-2.4557,-2.4583,-2.4452,-2.4217,-2.4125,-2.4125,-2.4125,-2.4125,-2.4073,-2.4073,-2.4073,-2.389,-2.3391,-2.3339,-2.3339,-2.3341,-2.3341,-2.3522,-2.3835,-2.3639,-2.3587,-2.3812,-2.3574,-2.3608,-2.3615,-2.3173,-2.3018,-2.3205,-2.3102,-2.2789,-2.2533,-2.2182,-2.1848,-2.1769,-2.1933,-2.1543,-2.1194,-2.1043,-2.0855,-2.0351,-2.0238,-2.0413,-2.0767,-2.1094,-2.1267,-2.1006,-2.0817,-2.0817,-2.0715,-2.0426,-2.0201,-2.0101,-2.0025,-1.9911,-1.9849,-1.9836,-1.9836,-1.9798,-1.9798,-1.9849,-1.9849,-1.9913,-1.9913,-1.9901,-1.9862,-2.0233,-2.0846,-2.1161,-2.1391,-2.193,-2.2512,-2.3047,-2.3384,-2.4442,-2.5561,-2.5773,-2.5905,-2.6344,-3.5268,-3.4241,-3.3556,-3.2908,-3.2165,-3.1153,-3.1507,-3.2519,-3.1606,-3.1231,-3.1334,-3.1228,-3.0406,-2.9246,-2.8616,-2.7998,-2.7377,-2.6891,-2.6609,-2.6308,-2.6033,-2.609,-2.6307,-2.6348,-2.6945,-2.7542,-2.8017,-2.8288,-2.8519,-2.8125,-2.7695,-2.725,-2.6844,-2.6034,-2.5354,-2.5328,-2.4844,-2.4374,-2.436,-2.4387,-2.4109,-2.4125,-2.4125,-2.4125,-2.4086,-2.3926,-2.3652,-2.3626,-2.3352,-2.2908,-2.2805,-2.2792,-2.2714,-2.2622,-2.2712,-2.338,-2.3313,-2.3117,-2.321,-2.2897,-2.2908,-2.2996,-2.2485,-2.2375,-2.2555,-2.2403,-2.2065,-2.1876,-2.1744,-2.1481,-2.1531,-2.1443,-2.1232,-2.083,-2.0666,-2.039,-2.0013,-1.9836,-2.0025,-2.0251,-2.039,-2.0451,-2.0326,-2.0239,-2.0239,-2.01,-1.9949,-1.9874,-1.9811,-1.9798,-1.9798,-1.9798,-1.9798,-1.9798,-1.9798,-1.9798,-1.9798,-1.9798,-1.9798,-1.9798,-1.9798,-1.9798,-1.985,-2.0169,-2.0372,-2.061,-2.0613,-2.109,-2.1884,-2.271,-2.3399,-2.4138,-2.491,-2.5459,-2.5911,-3.4241,-3.304,-3.237,-3.2007,-3.169,-3.071,-3.1081,-3.2108,-3.0963,-3.0455,-3.0663,-3.0148,-2.9375,-2.8397,-2.7585,-2.6867,-2.6349,-2.5881,-2.5772,-2.5661,-2.5325,-2.5331,-2.5588,-2.5846,-2.6294,-2.7284,-2.7257,-2.7687,-2.8102,-2.7818,-2.7296,-2.6623,-2.6052,-2.5489,-2.5005,-2.5027,-2.4723,-2.4596,-2.4504,-2.4517,-2.423,-2.4125,-2.4125,-2.4125,-2.4112,-2.3809,-2.3339,-2.3261,-2.2884,-2.2439,-2.223,-2.2217,-2.2152,-2.176,-2.1929,-2.2647,-2.2858,-2.2648,-2.249,-2.2203,-2.2174,-2.2326,-2.1949,-2.1882,-2.1953,-2.1771,-2.1428,-2.1345,-2.1129,-2.1041,-2.0966,-2.1119,-2.0878,-2.0614,-2.044,-2.0352,-1.9974,-1.9798,-1.9798,-1.9886,-1.9798,-1.9836,-1.9924,-1.9936,-1.9999,-1.9999,-1.9861,-1.9861,-1.9798,-1.9798,-1.9798,-1.9798,-1.9798,-1.9798,-1.9798,-1.9798,-1.9798,-1.9798,-1.9798,-1.9798,-1.9798,-1.9798,-1.9875,-1.9901,-1.9927,-2.008,-1.9875,-2.0092,-2.131,-2.2143,-2.2273,-2.2991,-2.4232,-2.5066,-2.5562,-3.3129,-3.2355,-3.1618,-3.0986,-3.052,-3.0267,-3.0315,-3.0599,-3.0346,-3.0164,-3.0103,-2.9802,-2.8959,-2.7765,-2.6642,-2.5838,-2.5384,-2.5244,-2.523,-2.5174,-2.5075,-2.5059,-2.5127,-2.51,-2.5846,-2.6671,-2.6443,-2.6762,-2.7301,-2.7431,-2.6841,-2.5955,-2.5651,-2.502,-2.4661,-2.457,-2.4227,-2.4122,-2.4204,-2.4191,-2.4086,-2.406,-2.4047,-2.4021,-2.3955,-2.3668,-2.3106,-2.2949,-2.2596,-2.1734,-2.1616,-2.159,-2.1603,-2.1564,-2.1538,-2.1681,-2.1733,-2.185,-2.1992,-2.1732,-2.1534,-2.1504,-2.0999,-2.0904,-2.1078,-2.1077,-2.0806,-2.0754,-2.0402,-2.0175,-2.0213,-2.0087,-1.9974,-2.0012,-2.0024,-1.9987,-1.9798,-1.9798,-1.9798,-1.9798,-1.9798,-1.9798,-1.9836,-1.9823,-1.9811,-1.9798,-1.9798,-1.9798,-1.9798,-1.9798,-1.9798,-1.9798,-1.9798,-1.9798,-1.9798,-1.9798,-1.9798,-1.9798,-1.9798,-1.9798,-1.9798,-1.9798,-1.9798,-1.9824,-1.9798,-1.9901,-2.0029,-2.0489,-2.1273,-2.1733,-2.2088,-2.2927,-2.3958,-2.4627,-2.5245,-3.139,-3.109,-3.0765,-3.0464,-3.0157,-2.9769,-3.0069,-3.0496,-2.9927,-2.9532,-2.9394,-2.8929,-2.7971,-2.6803,-2.6084,-2.5591,-2.509,-2.5005,-2.5005,-2.5005,-2.5005,-2.5005,-2.5018,-2.5046,-2.5534,-2.5993,-2.5988,-2.5894,-2.6448,-2.7001,-2.6929,-2.6554,-2.5875,-2.5494,-2.4736,-2.4357,-2.4174,-2.4125,-2.4099,-2.3913,-2.3678,-2.3561,-2.343,-2.3158,-2.3186,-2.2844,-2.2452,-2.2203,-2.1877,-2.1184,-2.1053,-2.1053,-2.1053,-2.1053,-2.1053,-2.1066,-2.099,-2.1082,-2.1251,-2.1043,-2.0991,-2.0887,-2.0437,-2.0255,-2.0427,-2.0363,-2.0226,-2.0162,-1.9962,-1.9811,-1.9798,-1.9798,-1.9798,-1.9798,-1.9798,-1.9798,-1.9798,-1.9798,-1.9798,-1.9798,-1.9798,-1.9798,-1.9798,-1.9798,-1.9798,-1.9798,-1.9798,-1.9798,-1.9798,-1.9798,-1.9798,-1.9798,-1.9798,-1.9798,-1.9798,-1.9798,-1.9798,-1.9798,-1.9798,-1.9798,-1.9798,-1.9798,-1.9798,-1.9798,-1.9798,-1.9952,-2.0156,-2.0361,-2.0656,-2.1302,-2.1992,-2.2641,-2.3347,-2.4435,-2.5093,-2.9911,-2.9951,-2.9927,-2.9911,-2.9864,-2.9319,-2.9667,-3.0425,-2.9572,-2.9084,-2.8787,-2.8076,-2.6993,-2.6069,-2.5729,-2.537,-2.5005,-2.5005,-2.5005,-2.5005,-2.5005,-2.5005,-2.5005,-2.5059,-2.5317,-2.5873,-2.5567,-2.5633,-2.5938,-2.6219,-2.659,-2.686,-2.5533,-2.5262,-2.5075,-2.4527,-2.406,-2.3783,-2.4021,-2.372,-2.3197,-2.3184,-2.2897,-2.2624,-2.2336,-2.2113,-2.1603,-2.1525,-2.1276,-2.0844,-2.0764,-2.0766,-2.0777,-2.0791,-2.0791,-2.0766,-2.0703,-2.0678,-2.0705,-2.0577,-2.0385,-2.0246,-2.0144,-1.9951,-1.9887,-1.9798,-1.9811,-1.9874,-1.9836,-1.9798,-1.9798,-1.9798,-1.9798,-1.9798,-1.9798,-1.9798,-1.9798,-1.9798,-1.9798,-1.9798,-1.9798,-1.9798,-1.9798,-1.9798,-1.9798,-1.9798,-1.9798,-1.9798,-1.9798,-1.9798,-1.9798,-1.9798,-1.9798,-1.9798,-1.9798,-1.9798,-1.9798,-1.9798,-1.9798,-1.9798,-1.9798,-1.9798,-1.9798,-1.9798,-1.9798,-1.985,-2.0003,-1.9964,-2.0,-2.0766,-2.1461,-2.1845,-2.2594,-2.3761,-2.4448,-2.9177,-2.9177,-2.9209,-2.9209,-2.9209,-2.9146,-2.9177,-2.9446,-2.9209,-2.899,-2.8578,-2.758,-2.6549,-2.5879,-2.537,-2.5118,-2.5005,-2.5005,-2.5005,-2.5005,-2.5005,-2.5005,-2.5005,-2.5086,-2.5263,-2.5614,-2.5309,-2.5456,-2.5801,-2.5438,-2.5103,-2.4429,-2.4739,-2.4426,-2.4305,-2.4292,-2.3796,-2.36,-2.3759,-2.3393,-2.2858,-2.2727,-2.2753,-2.2401,-2.2283,-2.2113,-2.1511,-2.142,-2.1211,-2.0712,-2.0699,-2.0699,-2.0699,-2.0599,-2.0574,-2.0637,-2.0511,-2.0461,-2.0398,-2.0271,-2.0029,-1.9888,-1.9824,-1.9837,-1.9798,-1.9798,-1.9798,-1.9798,-1.9798,-1.9798,-1.9798,-1.9798,-1.9798,-1.9798,-1.9798,-1.9798,-1.9798,-1.9798,-1.9798,-1.9798,-1.9798,-1.9798,-1.9798,-1.9798,-1.9798,-1.9798,-1.9798,-1.9798,-1.9798,-1.9798,-1.9798,-1.9798,-1.9798,-1.9798,-1.9798,-1.9798,-1.9798,-1.9798,-1.9798,-1.9798,-1.9798,-1.9798,-1.9798,-1.9798,-1.9798,-1.9798,-1.9798,-1.9836,-1.9999,-2.0453,-2.0961,-2.1451,-2.1939,-2.2836,-2.3135,-2.9114,-2.9114,-2.9114,-2.9114,-2.9114,-2.9114,-2.9114,-2.9114,-2.9114,-2.8559,-2.776,-2.6745,-2.5947,-2.5411,-2.5202,-2.5005,-2.5005,-2.5005,-2.5005,-2.5005,-2.5005,-2.5005,-2.5005,-2.5032,-2.5127,-2.5261,-2.4985,-2.4828,-2.5085,-2.4866,-2.4547,-2.4246,-2.4387,-2.4635,-2.4596,-2.423,-2.3731,-2.3378,-2.3328,-2.2975,-2.2139,-2.1956,-2.189,-2.1394,-2.1354,-2.125,-2.1014,-2.1014,-2.087,-2.0752,-2.0712,-2.0699,-2.0624,-2.0423,-2.0398,-2.0511,-2.0271,-2.0118,-2.022,-2.0131,-2.0016,-1.9862,-1.9798,-1.9798,-1.9798,-1.9798,-1.9798,-1.9798,-1.9798,-1.9798,-1.9798,-1.9798,-1.9798,-1.9798,-1.9798,-1.9798,-1.9798,-1.9798,-1.9798,-1.9798,-1.9798,-1.9798,-1.9798,-1.9798,-1.9798,-1.9798,-1.9798,-1.9798,-1.9798,-1.9798,-1.9798,-1.9798,-1.9798,-1.9798,-1.9798,-1.9798,-1.9798,-1.9798,-1.9798,-1.9798,-1.9798,-1.9798,-1.9798,-1.9798,-1.9798,-1.9798,-1.9798,-1.9798,-2.0012,-2.0402,-2.0759,-2.1172,-2.1645,-2.2016,-2.2152,-2.9114,-2.9114,-2.9114,-2.9114,-2.9114,-2.9114,-2.9114,-2.9114,-2.9052,-2.828,-2.7001,-2.6256,-2.5564,-2.5146,-2.5005,-2.5005,-2.5005,-2.5005,-2.5005,-2.5005,-2.5005,-2.5005,-2.5005,-2.5018,-2.5032,-2.4948,-2.482,-2.4731,-2.4698,-2.4361,-2.4229,-2.4243,-2.4478,-2.4609,-2.4557,-2.4321,-2.3746,-2.3143,-2.3052,-2.2479,-2.1498,-2.1446,-2.1302,-2.0895,-2.0817,-2.0804,-2.0777,-2.0766,-2.0764,-2.0712,-2.0699,-2.0699,-2.0536,-2.0385,-2.0283,-2.022,-2.0093,-1.9836,-1.9965,-1.9991,-1.9991,-1.9824,-1.9798,-1.9798,-1.9798,-1.9798,-1.9798,-1.9798,-1.9798,-1.9798,-1.9798,-1.9798,-1.9798,-1.9798,-1.9798,-1.9798,-1.9798,-1.9798,-1.9798,-1.9798,-1.9798,-1.9798,-1.9798,-1.9798,-1.9798,-1.9798,-1.9798,-1.9798,-1.9798,-1.9798,-1.9798,-1.9798,-1.9798,-1.9798,-1.9798,-1.9798,-1.9798,-1.9798,-1.9798,-1.9798,-1.9798,-1.9798,-1.9798,-1.9798,-1.9798,-1.9798,-1.9798,-1.9798,-1.9999,-2.0275,-2.0545,-2.0686,-2.0714,-2.104,-2.1498,-2.9114,-2.9114,-2.9114,-2.9114,-2.9114,-2.9114,-2.9114,-2.9052,-2.8881,-2.8094,-2.6912,-2.624,-2.5618,-2.5104,-2.5005,-2.5005,-2.5005,-2.5005,-2.5005,-2.5005,-2.5005,-2.5005,-2.5005,-2.5005,-2.4977,-2.492,-2.4791,-2.4649,-2.4563,-2.4303,-2.4171,-2.4112,-2.423,-2.4269,-2.4135,-2.4138,-2.3537,-2.266,-2.3013,-2.2165,-2.1342,-2.1263,-2.1053,-2.0843,-2.0699,-2.0699,-2.0699,-2.0699,-2.0699,-2.0699,-2.0699,-2.0674,-2.0624,-2.0524,-2.0423,-2.0385,-2.0322,-2.0195,-2.0042,-1.9888,-1.9824,-1.9798,-1.9798,-1.9798,-1.9798,-1.9798,-1.9798,-1.9798,-1.9798,-1.9798,-1.9798,-1.9798,-1.9798,-1.9798,-1.9798,-1.9798,-1.9798,-1.9798,-1.9798,-1.9798,-1.9798,-1.9798,-1.9798,-1.9798,-1.9798,-1.9798,-1.9798,-1.9798,-1.9798,-1.9798,-1.9798,-1.9798,-1.9798,-1.9798,-1.9798,-1.9798,-1.9798,-1.9798,-1.9798,-1.9798,-1.9798,-1.9798,-1.9798,-1.9798,-1.9798,-1.9798,-1.9798,-1.9798,-1.9962,-2.0075,-1.9962,-2.0026,-2.0014,-2.0142,-2.0682,-2.9114,-2.9114,-2.9114,-2.9114,-2.9114,-2.9114,-2.9114,-2.9006,-2.8463,-2.7725,-2.6901,-2.6215,-2.5577,-2.516,-2.5005,-2.5005,-2.5005,-2.5005,-2.5005,-2.5005,-2.5005,-2.5005,-2.5005,-2.4977,-2.4948,-2.4863,-2.4734,-2.4578,-2.4392,-2.4232,-2.4187,-2.4141,-2.4125,-2.4125,-2.4125,-2.4073,-2.3652,-2.3013,-2.2738,-2.2178,-2.1315,-2.1067,-2.0923,-2.0712,-2.0699,-2.0699,-2.0699,-2.0699,-2.0699,-2.0699,-2.0699,-2.0687,-2.0537,-2.0372,-2.0118,-2.0042,-1.9952,-1.9734,-1.9785,-1.9824,-1.9798,-1.9798,-1.9798,-1.9798,-1.9798,-1.9798,-1.9798,-1.9798,-1.9798,-1.9798,-1.9798,-1.9798,-1.9798,-1.9798,-1.9798,-1.9798,-1.9798,-1.9798,-1.9798,-1.9798,-1.9798,-1.9798,-1.9798,-1.9798,-1.9798,-1.9798,-1.9798,-1.9798,-1.9798,-1.9798,-1.9798,-1.9798,-1.9798,-1.9798,-1.9798,-1.9798,-1.9798,-1.9798,-1.9798,-1.9798,-1.9798,-1.9798,-1.9798,-1.9798,-1.9798,-1.9798,-1.9798,-1.9798,-1.9798,-1.9811,-1.9798,-1.9798,-1.9874,-1.9913,-2.0028,-2.9114,-2.9114,-2.9114,-2.9114,-2.9114,-2.9114,-2.9075,-2.8873,-2.8046,-2.7348,-2.6797,-2.6001,-2.5397,-2.509,-2.5005,-2.5005,-2.5005,-2.5005,-2.5005,-2.5005,-2.5005,-2.5005,-2.5005,-2.4977,-2.4977,-2.4863,-2.475,-2.4593,-2.4421,-2.4276,-2.4173,-2.4112,-2.4125,-2.4125,-2.4125,-2.4047,-2.3668,-2.308,-2.2635,-2.223,-2.1485,-2.1066,-2.0909,-2.0764,-2.0699,-2.0699,-2.0699,-2.0699,-2.0699,-2.0699,-2.0674,-2.0662,-2.0436,-2.022,-1.999,-1.9901,-1.9734,-1.9592,-1.9747,-1.9798,-1.9798,-1.9798,-1.9798,-1.9798,-1.9798,-1.9798,-1.9798,-1.9798,-1.9798,-1.9798,-1.9798,-1.9798,-1.9798,-1.9798,-1.9798,-1.9798,-1.9798,-1.9798,-1.9798,-1.9798,-1.9798,-1.9798,-1.9798,-1.9798,-1.9798,-1.9798,-1.9798,-1.9798,-1.9798,-1.9798,-1.9798,-1.9798,-1.9798,-1.9798,-1.9798,-1.9798,-1.9798,-1.9798,-1.9798,-1.9798,-1.9798,-1.9798,-1.9798,-1.9798,-1.9798,-1.9798,-1.9798,-1.9798,-1.9798,-1.9798,-1.9798,-1.9798,-1.9798,-1.9798,-1.9811,-2.9114,-2.9114,-2.9114,-2.9114,-2.9114,-2.9068,-2.899,-2.8787,-2.7635,-2.7052,-2.6823,-2.5619,-2.5061,-2.5005,-2.5005,-2.4922,-2.4951,-2.4951,-2.4895,-2.4936,-2.4922,-2.4978,-2.4977,-2.4963,-2.492,-2.4835,-2.4721,-2.452,-2.452,-2.4274,-2.4141,-2.4125,-2.4125,-2.4125,-2.4125,-2.4021,-2.3616,-2.3184,-2.291,-2.2426,-2.1734,-2.1328,-2.1171,-2.0962,-2.0791,-2.0712,-2.0699,-2.0699,-2.0687,-2.0674,-2.0674,-2.0662,-2.0612,-2.0524,-2.0372,-2.0169,-1.9888,-1.9811,-1.9773,-1.9798,-1.9798,-1.9798,-1.9798,-1.9798,-1.9798,-1.9798,-1.9798,-1.9798,-1.9798,-1.9798,-1.9798,-1.9798,-1.9798,-1.9798,-1.9798,-1.9798,-1.9798,-1.9798,-1.9798,-1.9798,-1.9798,-1.9798,-1.9798,-1.9798,-1.9798,-1.9798,-1.9798,-1.9798,-1.9798,-1.9798,-1.9798,-1.9798,-1.9798,-1.9798,-1.9798,-1.9798,-1.9798,-1.9798,-1.9798,-1.9798,-1.9798,-1.9798,-1.9798,-1.9798,-1.9798,-1.9798,-1.9798,-1.9798,-1.9798,-1.9798,-1.9798,-1.9798,-1.9798,-1.9811,-1.995,-2.9114,-2.9114,-2.9114,-2.9114,-2.9068,-2.8787,-2.8764,-2.8701,-2.762,-2.7027,-2.6823,-2.555,-2.4896,-2.5005,-2.5005,-2.4692,-2.4693,-2.4706,-2.4597,-2.4665,-2.4841,-2.4936,-2.4948,-2.4892,-2.482,-2.4664,-2.452,-2.4376,-2.4245,-2.4125,-2.4125,-2.4125,-2.4125,-2.4125,-2.4125,-2.4125,-2.3825,-2.3576,-2.338,-2.2831,-2.2204,-2.1812,-2.1538,-2.1237,-2.0831,-2.0751,-2.0699,-2.0699,-2.0649,-2.0537,-2.0562,-2.0486,-2.0207,-2.0144,-2.0067,-1.9939,-1.9824,-1.9798,-1.9798,-1.9798,-1.9798,-1.9798,-1.9798,-1.9798,-1.9798,-1.9798,-1.9798,-1.9798,-1.9798,-1.9798,-1.9798,-1.9798,-1.9798,-1.9798,-1.9798,-1.9798,-1.9798,-1.9798,-1.9798,-1.9798,-1.9798,-1.9798,-1.9798,-1.9798,-1.9798,-1.9798,-1.9798,-1.9798,-1.9798,-1.9798,-1.9798,-1.9798,-1.9798,-1.9798,-1.9798,-1.9798,-1.9798,-1.9798,-1.9798,-1.9798,-1.9798,-1.9798,-1.9798,-1.9798,-1.9798,-1.9798,-1.9798,-1.9798,-1.9798,-1.9798,-1.9798,-1.9798,-1.9811,-1.9886,-2.0128,-2.9114,-2.9114,-2.9114,-2.8956,-2.8697,-2.8458,-2.8256,-2.7822,-2.6927,-2.6455,-2.622,-2.4857,-2.4407,-2.4543,-2.4367,-2.4299,-2.4543,-2.4502,-2.4516,-2.476,-2.476,-2.4881,-2.4892,-2.4835,-2.4721,-2.4578,-2.4405,-2.4276,-2.4157,-2.4112,-2.4125,-2.4125,-2.4112,-2.4112,-2.4125,-2.4125,-2.4125,-2.3942,-2.3733,-2.3326,-2.2765,-2.223,-2.1877,-2.1446,-2.1001,-2.0764,-2.0699,-2.0699,-2.0524,-2.0309,-2.0283,-2.0246,-1.9965,-1.9875,-1.9926,-1.985,-1.9824,-1.9798,-1.9798,-1.9798,-1.9798,-1.9798,-1.9798,-1.9798,-1.9798,-1.9798,-1.9798,-1.9798,-1.9798,-1.9798,-1.9798,-1.9798,-1.9798,-1.9798,-1.9798,-1.9798,-1.9798,-1.9798,-1.9798,-1.9798,-1.9798,-1.9798,-1.9798,-1.9798,-1.9798,-1.9798,-1.9798,-1.9798,-1.9798,-1.9798,-1.9798,-1.9798,-1.9798,-1.9798,-1.9798,-1.9798,-1.9798,-1.9798,-1.9798,-1.9798,-1.9798,-1.9798,-1.9798,-1.9798,-1.9798,-1.9798,-1.9798,-1.9798,-1.9798,-1.9798,-1.9798,-1.9798,-1.9924,-2.015,-2.0496,-2.8972,-2.8893,-2.894,-2.8514,-2.8047,-2.7949,-2.7364,-2.6402,-2.5746,-2.5477,-2.5214,-2.3918,-2.3608,-2.3906,-2.3676,-2.3825,-2.4001,-2.4055,-2.4069,-2.4773,-2.4733,-2.4732,-2.466,-2.4738,-2.465,-2.4549,-2.4405,-2.4218,-2.4232,-2.4144,-2.4086,-2.4073,-2.3952,-2.3887,-2.389,-2.3903,-2.3942,-2.4086,-2.3955,-2.3668,-2.2936,-2.248,-2.2139,-2.1616,-2.1106,-2.0699,-2.0699,-2.0586,-2.0385,-2.0105,-1.9978,-2.008,-1.9862,-1.9772,-1.9837,-1.9708,-1.963,-1.9488,-1.9488,-1.9514,-1.9618,-1.9669,-1.9773,-1.9798,-1.9798,-1.9798,-1.9798,-1.9798,-1.9798,-1.9798,-1.9798,-1.9798,-1.9798,-1.9798,-1.9798,-1.9798,-1.9798,-1.9798,-1.9798,-1.9798,-1.9798,-1.9798,-1.9798,-1.9798,-1.9798,-1.9798,-1.9798,-1.9798,-1.9798,-1.9798,-1.9798,-1.9798,-1.9798,-1.9798,-1.9798,-1.9798,-1.9798,-1.9798,-1.9798,-1.9798,-1.9798,-1.9798,-1.9798,-1.9798,-1.9798,-1.9798,-1.9798,-1.9798,-1.9798,-1.9798,-1.9798,-1.9798,-1.9974,-2.0264,-2.0741,-2.8047,-2.7604,-2.7589,-2.7478,-2.7292,-2.6998,-2.6472,-2.5719,-2.4604,-2.4408,-2.4562,-2.3723,-2.3216,-2.3323,-2.3174,-2.3228,-2.3079,-2.3432,-2.3201,-2.3567,-2.3933,-2.4297,-2.4254,-2.4451,-2.4471,-2.4376,-2.4232,-2.4026,-2.4053,-2.3995,-2.3838,-2.3472,-2.3404,-2.3433,-2.3446,-2.3446,-2.3589,-2.3851,-2.3851,-2.3785,-2.342,-2.274,-2.2256,-2.1838,-2.1355,-2.0727,-2.0649,-2.0624,-2.0435,-2.0207,-2.0207,-2.0042,-1.9734,-1.9785,-1.9578,-1.9303,-1.916,-1.9016,-1.8989,-1.9121,-1.9291,-1.9422,-1.9552,-1.9721,-1.9798,-1.9798,-1.9798,-1.9798,-1.9798,-1.9798,-1.9798,-1.9798,-1.9798,-1.9798,-1.9798,-1.9798,-1.9798,-1.9798,-1.9798,-1.9798,-1.9798,-1.9798,-1.9798,-1.9798,-1.9798,-1.9798,-1.9798,-1.9798,-1.9798,-1.9798,-1.9798,-1.9798,-1.9798,-1.9798,-1.9798,-1.9798,-1.9798,-1.9798,-1.9798,-1.9798,-1.9798,-1.9798,-1.9798,-1.9798,-1.9798,-1.9798,-1.9798,-1.9798,-1.9798,-1.9798,-1.9798,-1.9798,-1.9962,-2.0201,-2.0782,-2.7431,-2.7083,-2.6751,-2.6625,-2.6524,-2.6091,-2.5445,-2.4657,-2.3885,-2.3474,-2.3289,-2.2729,-2.2551,-2.2659,-2.2537,-2.2741,-2.2537,-2.2713,-2.3147,-2.339,-2.327,-2.3676,-2.3903,-2.4032,-2.3678,-2.3576,-2.3452,-2.3354,-2.3626,-2.3352,-2.3039,-2.2871,-2.2831,-2.2844,-2.2844,-2.2884,-2.3001,-2.3289,-2.3393,-2.338,-2.338,-2.274,-2.2204,-2.1825,-2.103,-2.0487,-2.0423,-2.0359,-1.9991,-1.9643,-1.941,-1.9174,-1.8951,-1.8951,-1.8845,-1.8697,-1.8602,-1.8575,-1.8575,-1.8762,-1.9093,-1.933,-1.9526,-1.9798,-1.9798,-1.9798,-1.9798,-1.9798,-1.9798,-1.9798,-1.9798,-1.9798,-1.9798,-1.9798,-1.9798,-1.9798,-1.9798,-1.9798,-1.9798,-1.9798,-1.9798,-1.9798,-1.9798,-1.9798,-1.9798,-1.9798,-1.9798,-1.9798,-1.9798,-1.9798,-1.9798,-1.9798,-1.9798,-1.9798,-1.9798,-1.9798,-1.9798,-1.9798,-1.9798,-1.9798,-1.9798,-1.9798,-1.9798,-1.9798,-1.9798,-1.9798,-1.9798,-1.9798,-1.9798,-1.9798,-1.9798,-1.9798,-1.9987,-2.0101,-2.0397,-2.6941,-2.6862,-2.6182,-2.5866,-2.5784,-2.5234,-2.4461,-2.3643,-2.3325,-2.2696,-2.1945,-2.1615,-2.1749,-2.1844,-2.1762,-2.228,-2.251,-2.2266,-2.2821,-2.308,-2.3068,-2.3071,-2.3205,-2.3415,-2.3106,-2.2812,-2.2664,-2.2846,-2.3093,-2.2818,-2.2583,-2.2349,-2.2283,-2.2296,-2.2269,-2.2283,-2.2401,-2.2584,-2.2624,-2.2453,-2.2362,-2.2269,-2.1929,-2.1224,-2.0476,-2.008,-2.0105,-1.9939,-1.9488,-1.92,-1.891,-1.8551,-1.8363,-1.8363,-1.8163,-1.8066,-1.8174,-1.8321,-1.8521,-1.8774,-1.916,-1.95,-1.9695,-1.9798,-1.9798,-1.9798,-1.9798,-1.9798,-1.9798,-1.9798,-1.9798,-1.9798,-1.9798,-1.9798,-1.9798,-1.9798,-1.9798,-1.9798,-1.9798,-1.9798,-1.9798,-1.9798,-1.9798,-1.9798,-1.9798,-1.9798,-1.9798,-1.9798,-1.9798,-1.9798,-1.9798,-1.9798,-1.9798,-1.9798,-1.9798,-1.9798,-1.9798,-1.9798,-1.9798,-1.9798,-1.9798,-1.9798,-1.9798,-1.9798,-1.9798,-1.9798,-1.9798,-1.9798,-1.9798,-1.9798,-1.9798,-1.9798,-1.9823,-1.9911,-1.9861,-2.6214,-2.6151,-2.5476,-2.5207,-2.5111,-2.457,-2.3915,-2.3268,-2.2727,-2.2123,-2.163,-2.1447,-2.1507,-2.1575,-2.148,-2.1711,-2.1873,-2.1711,-2.1556,-2.1643,-2.2248,-2.2256,-2.2273,-2.2604,-2.2603,-2.2469,-2.231,-2.2427,-2.2465,-2.2374,-2.2126,-2.1694,-2.1668,-2.1681,-2.1681,-2.1721,-2.1825,-2.2035,-2.2139,-2.2074,-2.1721,-2.1642,-2.1563,-2.1095,-2.0707,-2.0399,-2.0246,-2.0118,-1.9991,-1.9682,-1.9095,-1.8509,-1.8077,-1.7859,-1.7738,-1.7672,-1.7793,-1.7984,-1.8228,-1.8709,-1.9133,-1.937,-1.9578,-1.9798,-1.9798,-1.9798,-1.9798,-1.9798,-1.9798,-1.9798,-1.9798,-1.9798,-1.9798,-1.9798,-1.9798,-1.9798,-1.9798,-1.9798,-1.9798,-1.9798,-1.9798,-1.9798,-1.9798,-1.9798,-1.9798,-1.9798,-1.9798,-1.9798,-1.9798,-1.9798,-1.9786,-1.9798,-1.9786,-1.9798,-1.9798,-1.9798,-1.9798,-1.9798,-1.9798,-1.9798,-1.9798,-1.9798,-1.9798,-1.9798,-1.9798,-1.9798,-1.9798,-1.9798,-1.9798,-1.9798,-1.9798,-1.9798,-1.9798,-1.9798,-1.9798]},{"header":{"parameterUnit":"m.s-1","parameterCategory":1,"la1":31.0,"la2":29.5877,"lo1":-88.7671,"lo2":-86.6584,"dy":0.0162,"dx":0.0185,"nx":115,"ny":88,"refTime":"2023-06-22T12:00:00:Z","depth":0,"parameterNumber":3,"parameterNumberName":"V-component_of_WINDS"},"data":[0.0,0.0,0.0,0.0,0.0,0.0,0.0,0.0,0.0,0.0,0.0,0.0,0.0,0.0,0.0,0.0,0.0,0.0,0.0,0.0,0.0,0.0,0.0,0.0,0.0,0.0,0.0,0.0,0.0,0.0,0.0,0.0,0.0,0.0,0.0,0.0,0.0,0.0,0.0,0.0,0.0,0.0,0.0,0.0,0.0,0.0,0.0,0.0,0.0,0.0,0.0,0.0,0.0,0.0,0.0,0.0,0.0,0.0,0.0,0.0,0.0,0.0,0.0,0.0,0.0,0.0,0.0,0.0,0.0,0.0,0.0,0.0,0.0,0.0,0.0,0.0,0.0,0.0,0.0,0.0,0.0,0.0,0.0,0.0,0.0,0.0,0.0,0.0,0.0,0.0,0.0,0.0,0.0,0.0,0.0,0.0,0.0,0.0,0.0,0.0,0.0,0.0,0.0,0.0,0.0,0.0,0.0,0.0,0.0,0.0,0.0,0.0,0.0,0.0,0.0,0.0,0.0,0.0,0.0,0.0,0.0,0.0,0.0,0.0,0.0,0.0,0.0,0.0,0.0,0.0,0.0,0.0,0.0,0.0,0.0,0.0,0.0,0.0,0.0,0.0,0.0,0.0,0.0,0.0,0.0,0.0,0.0,0.0,0.0,0.0,0.0,0.0,0.0,0.0,0.0,0.0,0.0,0.0,0.0,0.0,0.0,0.0,0.0,0.0,0.0,0.0,0.0,0.0,0.0,0.0,0.0,0.0,0.0,0.0,0.0,0.0,0.0,0.0,0.0,0.0,0.0,0.0,0.0,0.0,0.0,0.0,0.0,0.0,0.0,0.0,0.0,0.0,0.0,0.0,0.0,0.0,0.0,0.0,0.0,0.0,0.0,0.0,0.0,0.0,0.0,0.0,0.0,0.0,0.0,0.0,0.0,0.0,0.0,0.0,0.0,0.0,0.0,0.0,0.0,0.0,0.0,0.0,0.0,0.0,0.0,0.0,0.0,0.0,0.0,0.0,0.0,0.0,0.0,0.0,0.0,0.0,0.0,0.0,0.0,0.0,0.0,0.0,0.0,0.0,0.0,0.0,0.0,0.0,0.0,0.0,0.0,0.0,0.0,0.0,0.0,0.0,0.0,0.0,0.0,0.0,0.0,0.0,0.0,0.0,0.0,0.0,0.0,0.0,0.0,0.0,0.0,0.0,0.0,0.0,0.0,0.0,0.0,0.0,0.0,0.0,0.0,0.0,0.0,0.0,0.0,0.0,0.0,0.0,0.0,0.0,0.0,0.0,0.0,0.0,0.0,0.0,0.0,0.0,0.0,0.0,0.0,0.0,0.0,0.0,0.0,0.0,0.0,0.0,0.0,0.0,0.0,0.0,0.0,0.0,0.0,0.0,0.0,0.0,0.0,0.0,0.0,0.0,0.0,0.0,0.0,0.0,0.0,0.0,0.0,0.0,0.0,0.0,0.0,0.0,0.0,0.0,0.0,0.0,0.0,0.0,0.0,0.0,0.0,0.0,0.0,0.0,0.0,0.0,0.0,0.0,0.0,0.0,0.0,0.0,0.0,0.0,0.0,0.0,0.0,0.0,0.0,0.0,0.0,0.0,0.0,0.0,0.0,0.0,0.0,0.0,0.0,0.0,0.0,0.0,0.0,0.0,0.0,0.0,0.0,0.0,0.0,0.0,0.0,0.0,0.0,0.0,0.0,0.0,0.0,0.0,0.0,0.0,0.0,0.0,0.0,0.0,0.0,0.0,0.0,0.0,0.0,0.0,0.0,0.0,0.0,0.0,0.0,0.0,0.0,0.0,0.0,0.0,0.0,0.0,0.0,0.0,0.0,0.0,0.0,0.0,0.0,0.0,0.0,0.0,0.0,0.0,0.0,0.0,0.0,0.0,0.0,0.0,0.0,0.0,0.0,0.0,0.0,0.0,0.0,0.0,0.0,0.0,0.0,0.0,0.0,0.0,0.0,0.0,0.0,0.0,0.0,0.0,0.0,0.0,0.0,0.0,0.0,0.0,0.0,0.0,0.0,0.0,0.0,0.0,0.0,0.0,0.0,0.0,0.0,0.0,0.0,0.0,0.0,0.0,0.0,0.0,0.0,0.0,0.0,0.0,0.0,0.0,0.0,0.0,0.0,0.0,0.0,0.0,0.0,0.0,0.0,0.0,0.0,0.0,0.0,0.0,0.0,0.0,0.0,0.0,0.0,0.0,0.0,0.0,0.0,0.0,0.0,0.0,0.0,0.0,0.0,0.0,0.0,0.0,0.0,0.0,0.0,0.0,0.0,0.0,0.0,0.0,0.0,0.0,0.0,0.0,0.0,0.0,0.0,0.0,0.0,0.0,0.0,0.0,0.0,0.0,0.0,0.0,0.0,0.0,0.0,0.0,0.0,0.0,0.0,0.0,0.0,0.0,0.0,0.0,0.0,0.0,0.0,0.0,0.0,0.0,0.0,0.0,0.0,0.0,0.0,0.0,0.0,0.0,0.0,0.0,0.0,0.0,0.0,0.0,0.0,0.0,0.0,0.0,0.0,0.0,0.0,0.0,0.0,0.0,0.0,0.0,0.0,0.0,0.0,0.0,0.0,0.0,0.0,0.0,0.0,0.0,0.0,0.0,0.0,0.0,0.0,0.0,0.0,0.0,0.0,0.0,0.0,0.0,0.0,0.0,0.0,0.0,0.0,0.0,0.0,0.0,0.0,0.0,0.0,0.0,0.0,0.0,0.0,0.0,0.0,0.0,0.0,0.0,0.0,0.0,0.0,0.0,0.0,0.0,0.0,0.0,0.0,0.0,0.0,0.0,0.0,0.0,0.0,0.0,0.0,0.0,0.0,0.0,0.0,0.0,0.0,0.0,0.0,0.0,0.0,0.0,0.0,0.0,0.0,0.0,0.0,0.0,0.0,0.0,0.0,0.0,0.0,0.0,0.0,0.0,0.0,0.0,0.0,0.0,0.0,0.0,0.0,0.0,0.0,0.0,0.0,0.0,0.0,0.0,0.0,0.0,0.0,0.0,0.0,0.0,0.0,0.0,0.0,0.0,0.0,0.0,0.0,0.0,0.0,0.0,0.0,0.0,0.0,0.0,0.0,0.0,0.0,0.0,0.0,0.0,0.0,0.0,0.0,0.0,0.0,0.0,0.0,0.0,0.0,0.0,0.0,0.0,0.0,0.0,0.0,0.0,0.0,0.0,0.0,0.0,0.0,0.0,0.0,0.0,0.0,0.0,0.0,0.0,0.0,0.0,0.0,0.0,0.0,0.0,0.0,0.0,0.0,0.0,0.0,0.0,0.0,0.0,0.0,0.0,0.0,0.0,0.0,0.0,0.0,0.0,0.0,0.0,0.0,0.0,0.0,0.0,0.0,0.0,0.0,0.0,0.0,0.0,0.0,0.0,0.0,0.0,0.0,0.0,0.0,0.0,0.0,0.0,0.0,0.0,0.0,0.0,0.0,0.0,0.0,0.0,0.0,0.0,0.0,0.0,0.0,0.0,0.0,0.0,0.0,0.0,0.0,0.0,0.0,0.0,0.0,0.0,0.0,0.0,0.0,0.0,0.0,0.0,0.0,0.0,0.0,0.0,0.0,0.0,0.0,0.0,0.0,0.0,0.0,0.0,0.0,0.0,0.0,0.0,0.0,0.0,0.0,0.0,0.0,0.0,0.0,0.0,0.0,0.0,0.0,0.0,0.0,0.0,0.0,0.0,0.0,0.0,0.0,0.0,0.0,0.0,0.0,0.0,0.0,0.0,0.0,0.0,0.0,0.0,0.0,0.0,0.0,0.0,0.0,0.0,0.0,0.0,0.0,0.0,0.0,0.0,0.0,0.0,0.0,0.0,0.0,0.0,0.0,0.0,0.0,0.0,0.0,0.0,0.0,0.0,0.0,0.0,0.0,0.0,0.0,0.0,0.0,0.0,0.0,0.0,0.0,0.0,0.0,0.0,0.0,0.0,0.0,0.0,0.0,0.0,0.0,0.0,0.0,0.0,0.0,0.0,0.0,0.0,0.0,0.0,0.0,0.0,0.0,0.0,0.0,0.0,0.0,0.0,0.0,0.0,0.0,0.0,0.0,0.0,0.0,0.0,0.0,0.0,0.0,0.0,0.0,0.0,0.0,0.0,0.0,0.0,0.0,0.0,0.0,0.0,0.0,0.0,0.0,0.0,0.0,0.0,0.0,0.0,0.0,0.0,0.0,0.0,0.0,0.0,0.0,0.0,0.0,0.0,0.0,0.0,0.0,0.0,0.0,0.0,0.0,0.0,-2.2739,0.0,0.0,0.0,0.0,0.0,0.0,0.0,0.0,0.0,0.0,0.0,0.0,0.0,0.0,0.0,0.0,0.0,0.0,0.0,0.0,0.0,0.0,0.0,0.0,0.0,0.0,0.0,0.0,0.0,0.0,0.0,0.0,0.0,0.0,0.0,0.0,0.0,0.0,0.0,0.0,0.0,0.0,0.0,0.0,0.0,0.0,0.0,0.0,0.0,0.0,0.0,0.0,0.0,0.0,0.0,0.0,0.0,0.0,0.0,0.0,0.0,0.0,0.0,0.0,0.0,0.0,0.0,0.0,0.0,0.0,0.0,0.0,0.0,0.0,0.0,0.0,0.0,0.0,0.0,0.0,0.0,0.0,0.0,0.0,0.0,0.0,0.0,0.0,0.0,0.0,0.0,0.0,0.0,0.0,0.0,0.0,0.0,0.0,0.0,0.0,0.0,0.0,0.0,0.0,0.0,0.0,0.0,0.0,0.0,0.0,-2.2543,-2.2555,-2.2711,-2.2755,-2.2681,0.0,0.0,0.0,0.0,0.0,0.0,0.0,0.0,0.0,0.0,0.0,0.0,0.0,0.0,0.0,0.0,0.0,0.0,0.0,0.0,0.0,0.0,0.0,0.0,0.0,0.0,0.0,0.0,0.0,0.0,0.0,0.0,0.0,0.0,0.0,0.0,0.0,0.0,0.0,0.0,0.0,0.0,0.0,0.0,0.0,0.0,0.0,0.0,0.0,0.0,0.0,0.0,0.0,0.0,0.0,0.0,0.0,0.0,0.0,0.0,0.0,0.0,0.0,0.0,0.0,0.0,0.0,0.0,0.0,0.0,0.0,0.0,0.0,0.0,0.0,0.0,0.0,0.0,0.0,0.0,0.0,0.0,0.0,0.0,0.0,0.0,0.0,0.0,0.0,0.0,0.0,0.0,0.0,0.0,0.0,0.0,0.0,0.0,0.0,0.0,0.0,0.0,0.0,0.0,0.0,0.0,0.0,0.0,0.0,0.0,0.0,0.0,-2.2566,-2.2689,-2.2548,0.0,0.0,0.0,0.0,0.0,0.0,0.0,0.0,0.0,0.0,0.0,0.0,0.0,0.0,0.0,0.0,0.0,0.0,0.0,0.0,0.0,0.0,0.0,0.0,0.0,0.0,0.0,0.0,0.0,0.0,0.0,0.0,0.0,0.0,0.0,0.0,0.0,0.0,0.0,0.0,0.0,0.0,0.0,0.0,0.0,0.0,0.0,0.0,0.0,0.0,0.0,0.0,0.0,0.0,0.0,0.0,0.0,0.0,0.0,0.0,0.0,0.0,0.0,0.0,0.0,0.0,0.0,0.0,0.0,0.0,0.0,0.0,0.0,0.0,0.0,0.0,0.0,0.0,0.0,0.0,0.0,0.0,0.0,0.0,0.0,0.0,0.0,0.0,0.0,0.0,0.0,0.0,0.0,0.0,0.0,0.0,0.0,0.0,0.0,0.0,0.0,0.0,0.0,0.0,0.0,0.0,0.0,0.0,0.0,0.0,-2.1652,-2.1663,-2.2117,0.0,-2.2157,0.0,0.0,0.0,0.0,0.0,0.0,0.0,0.0,0.0,0.0,0.0,0.0,0.0,0.0,0.0,0.0,0.0,0.0,0.0,0.0,0.0,0.0,0.0,0.0,0.0,0.0,0.0,0.0,0.0,0.0,0.0,0.0,0.0,0.0,0.0,0.0,0.0,0.0,0.0,0.0,0.0,0.0,0.0,0.0,0.0,0.0,0.0,0.0,0.0,0.0,0.0,0.0,0.0,0.0,0.0,0.0,0.0,0.0,0.0,0.0,0.0,0.0,0.0,0.0,0.0,0.0,0.0,0.0,0.0,0.0,0.0,0.0,0.0,0.0,0.0,0.0,0.0,0.0,0.0,0.0,0.0,0.0,0.0,0.0,0.0,0.0,0.0,0.0,0.0,0.0,0.0,0.0,0.0,0.0,0.0,0.0,0.0,0.0,0.0,0.0,0.0,0.0,0.0,0.0,0.0,0.0,0.0,0.0,0.0,0.0,-2.1715,-2.1946,-2.209,-2.2173,0.0,0.0,0.0,0.0,0.0,0.0,0.0,0.0,0.0,0.0,0.0,0.0,0.0,0.0,0.0,0.0,0.0,0.0,0.0,0.0,0.0,0.0,0.0,0.0,0.0,0.0,0.0,0.0,0.0,0.0,0.0,0.0,0.0,0.0,0.0,0.0,0.0,0.0,0.0,0.0,0.0,0.0,0.0,0.0,0.0,0.0,0.0,0.0,0.0,0.0,0.0,0.0,0.0,0.0,0.0,0.0,0.0,0.0,0.0,0.0,0.0,0.0,0.0,0.0,0.0,0.0,0.0,0.0,0.0,0.0,0.0,0.0,0.0,0.0,0.0,0.0,0.0,0.0,0.0,0.0,0.0,0.0,0.0,0.0,0.0,0.0,0.0,0.0,0.0,0.0,0.0,0.0,0.0,0.0,0.0,0.0,0.0,0.0,0.0,0.0,0.0,0.0,0.0,0.0,0.0,0.0,0.0,0.0,0.0,0.0,-2.1154,-2.156,-2.197,-2.1887,-2.1861,-2.1977,0.0,0.0,0.0,0.0,0.0,0.0,0.0,0.0,0.0,0.0,0.0,0.0,0.0,0.0,0.0,0.0,0.0,0.0,0.0,0.0,0.0,0.0,0.0,0.0,0.0,0.0,0.0,0.0,0.0,0.0,0.0,0.0,0.0,0.0,0.0,0.0,0.0,0.0,0.0,0.0,0.0,0.0,0.0,0.0,0.0,0.0,0.0,0.0,0.0,0.0,0.0,0.0,0.0,0.0,0.0,0.0,0.0,0.0,0.0,0.0,0.0,0.0,0.0,0.0,0.0,0.0,0.0,0.0,0.0,0.0,0.0,0.0,0.0,0.0,0.0,0.0,0.0,0.0,0.0,0.0,0.0,0.0,0.0,0.0,0.0,0.0,0.0,0.0,0.0,0.0,0.0,0.0,0.0,0.0,0.0,0.0,0.0,0.0,0.0,0.0,0.0,0.0,0.0,0.0,0.0,0.0,0.0,0.0,-1.9813,-2.0468,-2.107,-2.1517,-2.1219,-2.1125,0.0,0.0,0.0,0.0,0.0,0.0,0.0,0.0,0.0,0.0,0.0,0.0,0.0,0.0,0.0,0.0,0.0,0.0,0.0,0.0,0.0,0.0,0.0,0.0,0.0,0.0,0.0,0.0,0.0,0.0,0.0,0.0,0.0,0.0,0.0,0.0,0.0,0.0,0.0,0.0,0.0,0.0,0.0,0.0,0.0,0.0,0.0,0.0,0.0,0.0,0.0,0.0,0.0,0.0,0.0,0.0,0.0,0.0,0.0,0.0,0.0,0.0,0.0,0.0,0.0,0.0,0.0,0.0,0.0,0.0,0.0,0.0,0.0,0.0,0.0,0.0,0.0,0.0,0.0,0.0,0.0,0.0,0.0,0.0,0.0,0.0,0.0,0.0,0.0,0.0,0.0,0.0,0.0,0.0,0.0,0.0,0.0,0.0,0.0,0.0,0.0,0.0,0.0,0.0,0.0,0.0,0.0,0.0,0.0,-2.025,-2.0754,-2.1082,-2.1108,-2.1096,-2.0994,0.0,0.0,0.0,0.0,0.0,0.0,0.0,0.0,0.0,0.0,0.0,0.0,0.0,0.0,0.0,0.0,0.0,0.0,0.0,0.0,0.0,0.0,0.0,0.0,0.0,0.0,0.0,0.0,0.0,0.0,0.0,0.0,0.0,0.0,0.0,0.0,0.0,0.0,0.0,0.0,0.0,0.0,0.0,0.0,0.0,0.0,0.0,0.0,0.0,0.0,0.0,0.0,0.0,0.0,0.0,0.0,0.0,0.0,0.0,0.0,0.0,0.0,0.0,0.0,0.0,0.0,0.0,0.0,0.0,0.0,0.0,0.0,0.0,0.0,0.0,0.0,0.0,0.0,0.0,0.0,0.0,0.0,0.0,0.0,0.0,0.0,0.0,0.0,0.0,0.0,0.0,0.0,0.0,0.0,0.0,0.0,0.0,0.0,0.0,0.0,0.0,0.0,0.0,0.0,0.0,0.0,0.0,0.0,0.0,-2.0564,0.0,-2.0925,-2.0799,-2.08,-2.0759,0.0,0.0,0.0,0.0,0.0,0.0,0.0,0.0,0.0,0.0,0.0,0.0,0.0,0.0,0.0,0.0,0.0,0.0,0.0,0.0,0.0,0.0,0.0,0.0,0.0,0.0,0.0,0.0,0.0,0.0,0.0,0.0,0.0,0.0,0.0,0.0,0.0,0.0,0.0,0.0,0.0,0.0,0.0,0.0,0.0,0.0,0.0,0.0,0.0,0.0,0.0,0.0,0.0,0.0,0.0,0.0,0.0,0.0,0.0,0.0,0.0,0.0,0.0,0.0,0.0,0.0,0.0,0.0,0.0,0.0,0.0,0.0,0.0,0.0,0.0,0.0,0.0,0.0,0.0,0.0,0.0,0.0,0.0,0.0,0.0,0.0,0.0,0.0,0.0,0.0,0.0,0.0,0.0,0.0,0.0,0.0,0.0,0.0,0.0,0.0,0.0,0.0,0.0,0.0,0.0,0.0,0.0,0.0,-2.0356,-2.0586,-2.0625,-2.0674,-2.0615,-2.0405,-2.0337,0.0,0.0,0.0,0.0,0.0,0.0,0.0,0.0,0.0,0.0,0.0,0.0,0.0,0.0,0.0,0.0,0.0,0.0,0.0,0.0,0.0,0.0,0.0,0.0,0.0,0.0,0.0,0.0,0.0,0.0,0.0,0.0,0.0,0.0,0.0,0.0,0.0,0.0,0.0,0.0,0.0,0.0,0.0,0.0,0.0,0.0,0.0,0.0,0.0,0.0,0.0,0.0,0.0,0.0,0.0,0.0,0.0,0.0,0.0,0.0,0.0,0.0,0.0,0.0,0.0,0.0,0.0,0.0,0.0,0.0,0.0,0.0,0.0,0.0,0.0,0.0,0.0,0.0,0.0,0.0,0.0,0.0,0.0,0.0,0.0,0.0,0.0,0.0,0.0,0.0,0.0,0.0,0.0,0.0,0.0,0.0,0.0,0.0,0.0,0.0,0.0,0.0,0.0,0.0,0.0,0.0,0.0,0.0,0.0,-2.1025,-2.1318,-2.1515,-2.1505,-2.1214,-2.0857,0.0,0.0,0.0,0.0,0.0,0.0,0.0,0.0,0.0,0.0,0.0,0.0,0.0,0.0,0.0,0.0,0.0,0.0,0.0,0.0,0.0,0.0,0.0,0.0,0.0,0.0,0.0,0.0,0.0,0.0,0.0,0.0,0.0,0.0,0.0,0.0,0.0,0.0,0.0,0.0,0.0,0.0,0.0,0.0,0.0,0.0,0.0,0.0,0.0,0.0,0.0,0.0,0.0,0.0,0.0,0.0,0.0,0.0,0.0,0.0,0.0,0.0,0.0,0.0,0.0,0.0,0.0,0.0,0.0,0.0,0.0,0.0,0.0,0.0,0.0,0.0,0.0,0.0,0.0,0.0,0.0,0.0,0.0,0.0,0.0,0.0,0.0,0.0,0.0,0.0,0.0,0.0,0.0,0.0,0.0,0.0,0.0,0.0,0.0,0.0,0.0,0.0,0.0,0.0,0.0,0.0,0.0,0.0,0.0,-2.1712,-2.2188,-2.246,-2.246,-2.2408,-2.1743,-2.0527,0.0,0.0,0.0,0.0,0.0,0.0,0.0,0.0,0.0,0.0,0.0,0.0,0.0,0.0,0.0,0.0,0.0,0.0,0.0,0.0,0.0,0.0,0.0,0.0,0.0,0.0,0.0,0.0,0.0,0.0,0.0,0.0,0.0,0.0,0.0,0.0,0.0,0.0,0.0,0.0,0.0,0.0,0.0,0.0,0.0,0.0,0.0,0.0,0.0,0.0,0.0,0.0,0.0,0.0,0.0,0.0,0.0,0.0,0.0,0.0,0.0,0.0,0.0,0.0,0.0,0.0,0.0,0.0,0.0,0.0,0.0,0.0,0.0,0.0,0.0,0.0,0.0,0.0,0.0,0.0,0.0,0.0,0.0,0.0,0.0,0.0,0.0,0.0,0.0,0.0,0.0,0.0,0.0,0.0,0.0,0.0,0.0,0.0,0.0,0.0,0.0,0.0,0.0,0.0,0.0,0.0,0.0,0.0,-2.2636,-2.3288,-2.3614,-2.3511,-2.3615,-2.2902,0.0,0.0,0.0,0.0,0.0,0.0,0.0,0.0,0.0,0.0,0.0,0.0,0.0,0.0,0.0,0.0,0.0,0.0,0.0,0.0,0.0,0.0,0.0,0.0,0.0,0.0,0.0,0.0,0.0,0.0,0.0,0.0,0.0,0.0,0.0,0.0,0.0,0.0,0.0,0.0,0.0,0.0,0.0,0.0,0.0,0.0,0.0,0.0,0.0,0.0,0.0,0.0,0.0,0.0,0.0,0.0,0.0,0.0,0.0,0.0,0.0,0.0,0.0,0.0,0.0,0.0,0.0,0.0,0.0,0.0,0.0,0.0,0.0,0.0,0.0,0.0,0.0,0.0,0.0,0.0,0.0,0.0,0.0,0.0,0.0,0.0,0.0,0.0,0.0,0.0,0.0,0.0,0.0,0.0,0.0,0.0,0.0,0.0,0.0,0.0,0.0,0.0,0.0,0.0,0.0,0.0,0.0,0.0,0.0,-2.4128,-2.5839,-2.6066,-2.4679,-2.3715,-2.3149,0.0,0.0,0.0,0.0,0.0,0.0,0.0,0.0,0.0,0.0,0.0,0.0,0.0,0.0,0.0,0.0,0.0,0.0,0.0,0.0,0.0,0.0,0.0,0.0,0.0,0.0,0.0,0.0,0.0,0.0,0.0,0.0,0.0,0.0,0.0,0.0,0.0,0.0,0.0,0.0,0.0,0.0,0.0,0.0,0.0,0.0,0.0,0.0,0.0,0.0,0.0,0.0,0.0,0.0,0.0,0.0,0.0,0.0,0.0,0.0,0.0,0.0,0.0,0.0,0.0,0.0,0.0,0.0,0.0,0.0,0.0,0.0,0.0,0.0,0.0,0.0,0.0,0.0,0.0,0.0,0.0,0.0,0.0,0.0,0.0,0.0,0.0,0.0,0.0,0.0,0.0,0.0,0.0,0.0,0.0,0.0,0.0,0.0,0.0,0.0,0.0,0.0,0.0,0.0,0.0,0.0,0.0,0.0,-2.3048,-2.3731,-2.5856,-2.6544,-2.5705,-2.5201,-2.4656,0.0,0.0,0.0,0.0,0.0,0.0,0.0,0.0,0.0,0.0,0.0,0.0,0.0,0.0,0.0,0.0,0.0,0.0,0.0,0.0,0.0,0.0,0.0,0.0,0.0,0.0,0.0,0.0,0.0,0.0,0.0,0.0,0.0,0.0,0.0,0.0,0.0,0.0,0.0,0.0,0.0,0.0,0.0,0.0,0.0,0.0,0.0,0.0,0.0,0.0,0.0,0.0,0.0,0.0,0.0,0.0,0.0,0.0,0.0,0.0,0.0,0.0,0.0,0.0,0.0,0.0,0.0,0.0,0.0,0.0,0.0,0.0,0.0,0.0,0.0,0.0,0.0,0.0,0.0,0.0,0.0,0.0,0.0,0.0,0.0,0.0,0.0,0.0,0.0,0.0,0.0,0.0,0.0,0.0,0.0,0.0,0.0,0.0,0.0,0.0,0.0,0.0,0.0,0.0,0.0,0.0,0.0,0.0,-2.2784,-2.2599,-2.4783,-2.62,-2.6683,-2.7259,-2.6575,0.0,0.0,0.0,0.0,0.0,0.0,0.0,0.0,0.0,0.0,0.0,0.0,0.0,0.0,0.0,0.0,0.0,0.0,0.0,0.0,0.0,0.0,0.0,0.0,0.0,0.0,0.0,0.0,0.0,0.0,0.0,0.0,0.0,0.0,0.0,0.0,0.0,0.0,0.0,0.0,0.0,0.0,0.0,0.0,0.0,0.0,0.0,0.0,0.0,0.0,0.0,0.0,0.0,0.0,0.0,0.0,0.0,0.0,0.0,0.0,0.0,0.0,0.0,0.0,0.0,0.0,0.0,0.0,0.0,0.0,0.0,0.0,0.0,0.0,0.0,0.0,0.0,0.0,0.0,0.0,0.0,0.0,0.0,0.0,0.0,0.0,0.0,0.0,0.0,0.0,0.0,0.0,0.0,0.0,0.0,0.0,0.0,0.0,0.0,0.0,0.0,0.0,0.0,0.0,0.0,0.0,0.0,0.0,-2.4083,-2.42,-2.6502,-2.779,-2.7948,-2.7012,-2.6486,0.0,0.0,0.0,0.0,0.0,0.0,0.0,0.0,0.0,0.0,0.0,0.0,0.0,0.0,0.0,0.0,0.0,0.0,0.0,0.0,0.0,0.0,0.0,0.0,0.0,0.0,0.0,0.0,0.0,0.0,0.0,0.0,0.0,0.0,0.0,0.0,0.0,0.0,0.0,0.0,0.0,0.0,0.0,0.0,0.0,0.0,0.0,0.0,-2.2856,0.0,0.0,0.0,0.0,0.0,0.0,0.0,0.0,0.0,0.0,0.0,0.0,0.0,0.0,0.0,0.0,0.0,0.0,0.0,0.0,0.0,0.0,0.0,0.0,0.0,0.0,0.0,0.0,0.0,0.0,0.0,0.0,0.0,0.0,0.0,0.0,0.0,0.0,0.0,0.0,0.0,0.0,0.0,0.0,0.0,0.0,0.0,0.0,0.0,0.0,0.0,0.0,0.0,0.0,0.0,0.0,0.0,0.0,0.0,-2.4068,-2.4472,-2.6439,-2.7536,-2.7739,-2.7222,-2.6921,0.0,0.0,0.0,0.0,0.0,0.0,0.0,0.0,0.0,0.0,0.0,0.0,0.0,0.0,0.0,0.0,0.0,0.0,0.0,0.0,0.0,0.0,0.0,0.0,0.0,0.0,0.0,0.0,0.0,0.0,0.0,0.0,0.0,0.0,0.0,0.0,0.0,0.0,0.0,0.0,0.0,0.0,0.0,0.0,0.0,0.0,0.0,0.0,0.0,0.0,0.0,0.0,0.0,0.0,0.0,0.0,0.0,0.0,0.0,0.0,0.0,0.0,0.0,0.0,0.0,0.0,0.0,0.0,0.0,0.0,0.0,0.0,0.0,0.0,0.0,0.0,0.0,0.0,0.0,0.0,0.0,0.0,0.0,0.0,0.0,0.0,0.0,0.0,0.0,0.0,0.0,0.0,0.0,0.0,0.0,0.0,0.0,0.0,0.0,0.0,0.0,0.0,0.0,0.0,0.0,0.0,0.0,-2.3084,-2.3831,-2.455,-2.5825,-2.6752,-2.7261,-2.7425,-2.7317,-2.6857,0.0,0.0,0.0,0.0,0.0,0.0,0.0,0.0,0.0,0.0,0.0,0.0,0.0,0.0,0.0,0.0,0.0,0.0,0.0,0.0,0.0,0.0,0.0,0.0,0.0,0.0,0.0,0.0,0.0,0.0,0.0,0.0,0.0,0.0,0.0,0.0,0.0,0.0,-2.2116,-2.2136,0.0,0.0,0.0,0.0,0.0,0.0,0.0,0.0,-2.3613,0.0,0.0,0.0,0.0,0.0,0.0,0.0,0.0,0.0,0.0,0.0,0.0,0.0,0.0,0.0,0.0,0.0,0.0,0.0,0.0,0.0,0.0,0.0,0.0,0.0,0.0,0.0,0.0,0.0,0.0,0.0,0.0,0.0,0.0,0.0,0.0,0.0,0.0,0.0,0.0,0.0,0.0,0.0,0.0,0.0,0.0,0.0,0.0,0.0,0.0,0.0,0.0,0.0,0.0,0.0,0.0,-2.295,-2.3786,-2.4842,-2.6039,-2.628,-2.6814,-2.753,-2.6948,-2.6486,-2.626,0.0,0.0,0.0,0.0,0.0,0.0,0.0,0.0,0.0,0.0,0.0,0.0,0.0,0.0,0.0,0.0,0.0,0.0,0.0,0.0,0.0,0.0,0.0,0.0,0.0,0.0,0.0,0.0,0.0,0.0,0.0,0.0,0.0,0.0,0.0,0.0,0.0,0.0,0.0,-2.3156,-2.3564,0.0,0.0,0.0,0.0,0.0,0.0,0.0,0.0,-2.4098,0.0,0.0,0.0,0.0,0.0,0.0,0.0,0.0,0.0,0.0,0.0,0.0,0.0,0.0,0.0,0.0,0.0,0.0,0.0,0.0,0.0,0.0,0.0,0.0,0.0,0.0,0.0,0.0,0.0,0.0,0.0,0.0,0.0,0.0,0.0,0.0,0.0,0.0,0.0,0.0,0.0,0.0,0.0,0.0,0.0,0.0,0.0,0.0,0.0,0.0,0.0,0.0,0.0,0.0,0.0,-2.3467,-2.4326,-2.5283,-2.6348,-2.6602,-2.7012,-2.7679,-2.7051,-2.6645,0.0,0.0,0.0,0.0,0.0,0.0,0.0,0.0,0.0,0.0,0.0,0.0,0.0,0.0,0.0,0.0,0.0,0.0,0.0,0.0,0.0,0.0,0.0,0.0,0.0,0.0,0.0,0.0,0.0,0.0,0.0,0.0,0.0,0.0,0.0,0.0,0.0,0.0,0.0,0.0,-2.4074,-2.4601,-2.516,0.0,0.0,0.0,0.0,0.0,0.0,-2.5004,-2.4868,0.0,0.0,0.0,0.0,0.0,0.0,0.0,0.0,0.0,0.0,0.0,0.0,0.0,0.0,0.0,0.0,0.0,0.0,0.0,0.0,0.0,0.0,0.0,0.0,0.0,0.0,0.0,0.0,0.0,0.0,0.0,0.0,0.0,0.0,0.0,0.0,0.0,0.0,0.0,0.0,0.0,0.0,0.0,0.0,0.0,0.0,0.0,0.0,0.0,0.0,0.0,0.0,0.0,0.0,0.0,-2.3779,-2.4685,-2.5449,-2.623,-2.6582,-2.6924,-2.7256,-2.6934,-2.6695,0.0,0.0,0.0,0.0,0.0,0.0,0.0,0.0,0.0,0.0,0.0,0.0,0.0,0.0,0.0,0.0,0.0,0.0,0.0,0.0,0.0,0.0,0.0,0.0,0.0,0.0,0.0,0.0,0.0,0.0,0.0,0.0,0.0,0.0,0.0,0.0,0.0,0.0,0.0,0.0,0.0,-2.5641,-2.5823,-2.6274,0.0,0.0,0.0,0.0,-2.5555,-2.5895,0.0,0.0,0.0,0.0,0.0,0.0,0.0,0.0,0.0,0.0,0.0,0.0,0.0,0.0,0.0,0.0,0.0,0.0,0.0,0.0,0.0,0.0,0.0,0.0,0.0,0.0,0.0,0.0,0.0,0.0,0.0,0.0,0.0,0.0,0.0,0.0,0.0,0.0,0.0,0.0,0.0,0.0,0.0,0.0,0.0,0.0,0.0,0.0,0.0,0.0,0.0,0.0,0.0,0.0,0.0,0.0,-2.3779,-2.4639,-2.5312,-2.5742,-2.582,-2.5859,-2.5908,-2.5869,-2.5767,0.0,0.0,0.0,0.0,0.0,0.0,0.0,0.0,0.0,0.0,0.0,0.0,0.0,0.0,0.0,0.0,0.0,0.0,0.0,0.0,0.0,0.0,0.0,0.0,0.0,0.0,0.0,0.0,0.0,0.0,0.0,0.0,0.0,0.0,0.0,0.0,0.0,0.0,0.0,0.0,0.0,-2.6521,-2.7458,-2.7558,-2.7405,0.0,0.0,-2.6888,-2.7121,-2.7877,0.0,0.0,0.0,0.0,0.0,0.0,0.0,0.0,0.0,0.0,0.0,0.0,0.0,0.0,0.0,0.0,0.0,0.0,0.0,0.0,0.0,0.0,0.0,0.0,0.0,0.0,0.0,0.0,0.0,0.0,0.0,0.0,0.0,0.0,0.0,0.0,0.0,0.0,0.0,0.0,0.0,0.0,0.0,0.0,0.0,0.0,0.0,0.0,0.0,0.0,0.0,0.0,0.0,0.0,0.0,-2.3301,-2.4141,-2.501,-2.5499,-2.5693,-2.5977,-2.6103,-2.6113,-2.634,-2.6408,0.0,0.0,0.0,0.0,0.0,0.0,0.0,0.0,0.0,0.0,0.0,0.0,0.0,0.0,0.0,0.0,0.0,0.0,0.0,0.0,0.0,0.0,0.0,0.0,0.0,0.0,0.0,0.0,0.0,0.0,0.0,0.0,0.0,0.0,0.0,0.0,0.0,0.0,0.0,0.0,0.0,0.0,-2.7858,-2.8606,0.0,0.0,0.0,-2.8025,-2.7845,0.0,0.0,0.0,0.0,0.0,0.0,0.0,0.0,0.0,0.0,0.0,0.0,0.0,0.0,0.0,0.0,0.0,0.0,0.0,0.0,0.0,0.0,0.0,0.0,0.0,0.0,0.0,0.0,0.0,0.0,0.0,0.0,0.0,0.0,0.0,0.0,0.0,0.0,0.0,0.0,0.0,0.0,0.0,0.0,0.0,0.0,0.0,0.0,0.0,0.0,0.0,0.0,0.0,0.0,0.0,0.0,0.0,-2.4414,-2.5245,-2.5684,-2.5693,-2.6055,-2.6369,-2.6606,-2.692,0.0,0.0,0.0,0.0,0.0,0.0,0.0,0.0,0.0,0.0,0.0,0.0,0.0,0.0,0.0,0.0,0.0,0.0,0.0,0.0,0.0,0.0,0.0,0.0,0.0,0.0,0.0,-2.7946,0.0,0.0,0.0,0.0,0.0,0.0,0.0,0.0,0.0,0.0,0.0,0.0,0.0,0.0,-2.8052,-2.8266,-2.9407,-3.0113,0.0,0.0,-2.9105,-2.857,-2.924,-2.9351,0.0,0.0,0.0,0.0,0.0,0.0,0.0,0.0,0.0,0.0,0.0,0.0,0.0,0.0,0.0,0.0,0.0,0.0,0.0,0.0,0.0,0.0,0.0,0.0,0.0,0.0,0.0,0.0,0.0,0.0,0.0,0.0,0.0,0.0,0.0,0.0,0.0,0.0,0.0,0.0,0.0,0.0,0.0,0.0,0.0,0.0,0.0,0.0,0.0,0.0,0.0,0.0,0.0,0.0,-2.3619,-2.4414,-2.5235,-2.5684,-2.5693,-2.5713,-2.6189,-2.7098,-2.7204,-2.7319,0.0,0.0,0.0,0.0,0.0,0.0,0.0,0.0,0.0,0.0,0.0,0.0,0.0,0.0,0.0,0.0,0.0,0.0,0.0,0.0,0.0,0.0,0.0,0.0,0.0,0.0,0.0,0.0,0.0,0.0,0.0,0.0,0.0,0.0,0.0,0.0,0.0,0.0,0.0,0.0,0.0,-2.8545,-2.9199,-3.003,-3.0641,0.0,-3.0625,-3.0172,-2.9593,-3.0897,-3.1054,-2.8322,0.0,0.0,0.0,0.0,0.0,0.0,0.0,0.0,0.0,0.0,0.0,0.0,0.0,0.0,0.0,0.0,0.0,0.0,0.0,0.0,0.0,0.0,0.0,0.0,0.0,0.0,0.0,0.0,0.0,0.0,0.0,0.0,0.0,0.0,0.0,0.0,0.0,0.0,0.0,0.0,0.0,0.0,0.0,0.0,0.0,0.0,0.0,0.0,0.0,0.0,0.0,0.0,0.0,-2.3965,-2.4805,-2.5382,-2.5684,-2.5684,-2.5684,-2.6197,-2.7179,-2.7542,-2.7807,0.0,0.0,0.0,0.0,0.0,0.0,0.0,0.0,0.0,0.0,0.0,0.0,0.0,0.0,0.0,0.0,0.0,0.0,0.0,0.0,0.0,0.0,0.0,0.0,0.0,0.0,0.0,0.0,-2.8275,-2.7433,-2.5928,0.0,0.0,0.0,0.0,0.0,0.0,0.0,0.0,0.0,0.0,-2.8837,-2.9903,-3.0564,0.0,0.0,-3.0741,-3.0257,-2.9686,-3.0146,-3.0056,-2.8588,-2.7407,0.0,0.0,0.0,0.0,0.0,0.0,0.0,0.0,0.0,0.0,0.0,0.0,0.0,0.0,0.0,0.0,0.0,0.0,0.0,0.0,0.0,0.0,0.0,0.0,0.0,0.0,0.0,0.0,0.0,0.0,0.0,0.0,0.0,0.0,0.0,0.0,0.0,0.0,0.0,0.0,0.0,0.0,0.0,0.0,0.0,0.0,0.0,0.0,0.0,0.0,0.0,0.0,-2.43,-2.5106,-2.5508,-2.5684,-2.5684,-2.6014,-2.6648,-2.7605,-2.8283,-2.8698,0.0,0.0,0.0,0.0,0.0,0.0,0.0,0.0,0.0,0.0,0.0,0.0,0.0,0.0,0.0,0.0,0.0,0.0,0.0,0.0,0.0,0.0,0.0,0.0,0.0,0.0,0.0,0.0,-2.8647,-2.75,-2.5475,0.0,0.0,0.0,0.0,0.0,0.0,0.0,0.0,0.0,0.0,-2.8785,-2.9758,-3.0332,-3.0641,-3.0751,-3.0366,-2.9967,-2.9556,-2.9475,-2.9178,-2.833,0.0,0.0,0.0,0.0,0.0,0.0,0.0,0.0,0.0,0.0,0.0,0.0,0.0,0.0,0.0,0.0,0.0,0.0,0.0,0.0,0.0,0.0,0.0,0.0,0.0,0.0,0.0,0.0,0.0,0.0,-2.851,0.0,0.0,0.0,0.0,0.0,0.0,0.0,0.0,0.0,0.0,0.0,0.0,0.0,0.0,0.0,0.0,0.0,0.0,0.0,0.0,0.0,0.0,-2.4427,-2.5096,-2.5556,-2.5732,-2.5781,-2.6638,-2.7652,-2.8669,-2.9612,-3.0034,-2.9754,0.0,0.0,0.0,0.0,0.0,0.0,0.0,0.0,0.0,0.0,0.0,0.0,0.0,0.0,0.0,0.0,0.0,0.0,0.0,0.0,0.0,0.0,0.0,0.0,0.0,0.0,-2.9603,-2.8305,-2.6957,0.0,0.0,0.0,0.0,0.0,0.0,0.0,0.0,0.0,0.0,-2.7125,-2.8298,-2.8621,-2.9157,-2.9656,-3.0024,-2.9622,-2.9291,-2.9332,-2.9311,-2.8845,0.0,0.0,0.0,0.0,0.0,0.0,0.0,0.0,0.0,0.0,0.0,0.0,0.0,0.0,0.0,0.0,0.0,0.0,0.0,0.0,0.0,0.0,0.0,0.0,0.0,0.0,0.0,-2.9569,-2.9532,0.0,0.0,0.0,0.0,0.0,0.0,0.0,0.0,0.0,0.0,0.0,-2.9652,-2.8997,0.0,0.0,0.0,0.0,0.0,0.0,0.0,0.0,0.0,0.0,0.0,0.0,-2.5063,-2.647,-2.6652,-2.702,-2.7673,-2.8028,-2.868,-2.9658,-3.0022,-3.0288,-3.0373,0.0,0.0,0.0,0.0,0.0,0.0,0.0,0.0,0.0,0.0,0.0,0.0,0.0,0.0,0.0,0.0,0.0,0.0,0.0,0.0,0.0,0.0,0.0,0.0,0.0,-2.9026,0.0,0.0,0.0,0.0,0.0,0.0,0.0,0.0,0.0,0.0,0.0,-2.5857,-2.662,-2.7459,-2.8231,-2.899,-2.924,-2.9487,0.0,0.0,0.0,0.0,0.0,0.0,0.0,0.0,0.0,0.0,0.0,0.0,0.0,0.0,-2.6755,-2.6599,-2.6931,-2.7148,-2.6905,0.0,0.0,0.0,0.0,0.0,0.0,0.0,0.0,0.0,0.0,0.0,0.0,0.0,0.0,-3.0086,0.0,-2.9725,0.0,0.0,0.0,0.0,0.0,0.0,0.0,0.0,-3.0115,-3.0515,-3.0938,-3.0299,-2.9866,0.0,-2.8933,-2.7516,0.0,0.0,0.0,0.0,0.0,0.0,0.0,0.0,-2.6062,-2.7264,-2.7571,-2.8017,-2.8669,-2.905,-2.951,-3.0204,-3.0239,-3.0371,-3.0599,-2.918,-2.8387,0.0,0.0,0.0,0.0,0.0,0.0,0.0,0.0,0.0,0.0,0.0,0.0,0.0,0.0,0.0,0.0,0.0,0.0,0.0,0.0,0.0,0.0,0.0,-2.9302,0.0,0.0,0.0,0.0,0.0,0.0,0.0,0.0,0.0,-2.5357,-2.5796,-2.6387,-2.6988,-2.7541,-2.809,-2.8524,0.0,0.0,0.0,0.0,0.0,0.0,0.0,-2.7831,-2.7531,-2.7759,-2.8025,-2.7966,-2.7831,-2.7872,-2.8317,0.0,0.0,-2.7841,-2.7966,-2.8079,-2.779,-2.7738,-2.7786,-2.7776,-2.7728,-2.76,0.0,0.0,0.0,0.0,0.0,0.0,0.0,0.0,-3.0145,-3.0242,0.0,-3.017,0.0,0.0,0.0,0.0,0.0,-2.9809,0.0,0.0,-3.1877,-3.2166,-3.1673,-3.0731,-3.0264,-3.0217,-2.9361,-2.8933,-2.8763,-2.6996,0.0,0.0,0.0,0.0,0.0,0.0,-2.7344,-2.7447,-2.8302,-2.8773,-2.8866,-2.9749,-3.026,-3.0283,-3.0338,-3.0415,-3.0384,-2.9283,-2.8623,-2.8599,-2.7812,0.0,0.0,0.0,0.0,0.0,0.0,0.0,0.0,0.0,0.0,0.0,0.0,0.0,0.0,0.0,0.0,0.0,0.0,0.0,0.0,-2.944,0.0,0.0,0.0,0.0,0.0,0.0,0.0,0.0,0.0,0.0,-2.5812,-2.6222,-2.6646,-2.6646,0.0,0.0,0.0,0.0,-2.7769,-2.7434,-2.733,-2.733,-2.7351,-2.7634,-2.7893,-2.7844,0.0,0.0,-2.9311,-2.8949,-2.8794,-2.9239,-2.9642,-2.9704,-2.8783,-2.868,-2.87,-2.8669,-2.8659,-2.8649,-2.8628,-2.8576,-2.8349,-3.0362,0.0,0.0,0.0,0.0,-3.1036,-3.1639,-3.2007,-3.228,-3.2154,-3.1781,-3.1428,0.0,0.0,0.0,0.0,0.0,0.0,-3.0374,-3.0922,-3.1247,-3.1661,-3.225,-3.1971,-3.1854,-3.1842,-3.1565,-3.1258,-3.083,-2.9925,-2.8724,-2.7247,0.0,0.0,0.0,0.0,-2.7904,-2.928,-2.9647,-3.0125,-3.0824,-3.1149,-3.1339,-3.1472,-3.0949,-3.0778,-3.0865,-2.9787,-2.9035,-2.8825,-2.8587,0.0,0.0,0.0,0.0,0.0,0.0,0.0,0.0,0.0,0.0,0.0,0.0,0.0,0.0,0.0,0.0,0.0,0.0,0.0,-3.0068,-2.9202,-2.8787,0.0,0.0,0.0,0.0,0.0,0.0,0.0,0.0,0.0,-2.742,-2.7321,-2.7243,0.0,0.0,-2.7455,-2.732,-2.7423,-2.751,-2.7717,-2.7517,0.0,-2.7686,-2.7572,-2.7448,-2.7506,-2.8204,-2.9032,-2.9684,-2.9694,-2.9642,-2.9777,-2.9901,-2.9808,-2.929,-2.9653,-2.9911,-2.9694,-2.9601,-2.9477,-2.9197,-2.9104,-2.8825,-3.1356,-3.1403,-3.0889,-3.0847,-3.1125,-3.1808,-3.23,-3.2594,-3.2766,-3.2642,-3.2318,-3.1901,-3.1235,-3.0374,-2.9845,0.0,0.0,0.0,-3.073,-3.1223,-3.1235,-3.1573,-3.2142,-3.2178,-3.2178,-3.2166,-3.2166,-3.1985,-3.1705,-3.1392,-3.0532,-2.919,0.0,0.0,-2.8453,-2.851,-2.9097,-3.0149,-3.061,-3.1104,-3.1661,-3.16,-3.1438,-3.135,-3.0847,-3.0638,-3.0735,-2.9995,-2.9449,-2.9289,-2.9001,-2.8674,0.0,0.0,0.0,0.0,0.0,0.0,0.0,0.0,0.0,0.0,0.0,-2.9648,-2.8183,0.0,0.0,0.0,-2.8662,-2.9854,-3.0834,-3.0005,0.0,0.0,0.0,0.0,0.0,0.0,0.0,-2.9857,-2.9828,-2.9648,-2.9207,-2.8896,-2.8409,-2.7441,-2.732,-2.732,-2.732,0.0,-2.7403,-2.7624,-2.7475,-2.7403,-2.7614,-2.7583,-2.7583,-2.7769,-2.8235,-2.8763,-2.9311,-2.9446,-2.9446,-2.9446,-2.9446,-2.9363,-2.9083,-2.9497,-2.9787,-2.9518,-2.9591,-2.9559,-2.9125,-2.9042,-2.8804,-3.1659,-3.3201,-3.1982,-3.1654,-3.1928,-3.2097,-3.2181,-3.2182,-3.2192,-3.2172,-3.2101,-3.186,-3.1488,-3.0958,-3.0477,0.0,-3.0983,-3.0939,-3.1247,-3.1705,-3.1705,-3.1705,-3.1705,-3.1717,-3.1705,-3.1717,-3.1705,-3.1705,-3.1705,-3.1705,-3.142,-3.0939,-3.0257,-2.9697,-2.9297,-3.0166,-3.0525,-3.0319,-3.1233,-3.1681,-3.1645,-3.1361,-3.0992,-3.0499,-3.0334,-3.0238,-3.0226,-2.9938,-2.9779,-2.9767,-2.9239,-2.8637,-2.8147,0.0,0.0,0.0,0.0,0.0,0.0,0.0,0.0,0.0,0.0,0.0,0.0,0.0,0.0,0.0,-2.8021,0.0,-3.1185,-3.1248,0.0,0.0,0.0,-3.039,-3.044,-3.0329,-3.052,-3.1162,0.0,0.0,-3.0814,-3.0584,-2.9761,-2.7709,-2.7421,-2.7404,-2.7309,-2.732,-2.732,-2.734,-2.732,-2.732,-2.7361,-2.7572,-2.7935,-2.8349,-2.8556,-2.8566,-2.8659,-2.8669,-2.8628,-2.8669,-2.8628,-2.8607,-2.8576,-2.8638,-2.8597,-2.8545,-2.8907,-2.9114,-2.8669,-2.8556,-2.8411,-3.2406,-3.3235,-3.2532,-3.2497,-3.294,-3.2758,-3.2848,-3.2969,-3.2829,-3.2609,-3.2388,-3.2358,-3.1997,-3.1512,-3.1392,-3.1392,-3.1512,-3.1524,-3.1597,-3.1705,-3.1705,-3.1705,-3.1705,-3.1705,-3.1705,-3.1705,-3.1705,-3.1705,-3.1705,-3.1705,-3.1657,-3.1524,-3.1348,-3.1009,-3.0496,-3.069,-3.0997,-3.1336,-3.1601,-3.1556,-3.1343,-3.1382,-3.1264,-3.0931,-3.0642,-3.0515,-3.0503,-3.0041,-2.9779,-2.9767,-2.9239,-2.8687,-2.8134,-2.846,0.0,0.0,0.0,0.0,0.0,0.0,0.0,0.0,0.0,-2.8336,-2.7005,0.0,-2.7394,0.0,-2.8448,-2.944,-3.067,-2.9991,0.0,0.0,-3.0931,-3.1292,-3.1693,-3.2089,-3.2204,-3.1776,-3.1509,-3.1004,-3.0019,-3.0067,-2.9862,-2.8959,-2.8565,-2.8081,-2.7452,-2.732,-2.732,-2.7357,-2.7357,-2.732,-2.7347,-2.7392,-2.7552,-2.8017,-2.8079,-2.8204,-2.8545,-2.8618,-2.8618,-2.8618,-2.8618,-2.8483,-2.8152,-2.8359,-2.8317,-2.781,-2.8214,-2.8638,-2.8193,-2.8041,-2.7955,-3.1967,-3.2592,-3.2331,-3.2388,-3.263,-3.2476,-3.2553,-3.2745,-3.2465,-3.2364,-3.2318,-3.2181,-3.2006,-3.1717,-3.1705,-3.1705,-3.1705,-3.1705,-3.1705,-3.1705,-3.1705,-3.1705,-3.1705,-3.1705,-3.1705,-3.1705,-3.1705,-3.1705,-3.1705,-3.1705,-3.1705,-3.1705,-3.1705,-3.156,-3.1284,-3.1271,-3.1428,-3.1705,-3.1805,-3.1518,-3.0877,-3.1166,-3.1022,-3.0375,-3.0288,-3.0118,-2.9828,-2.9527,-2.9289,-2.9051,-2.8824,-2.8457,-2.801,-2.8354,-2.8248,0.0,0.0,0.0,0.0,0.0,0.0,0.0,0.0,0.0,0.0,0.0,-2.772,-2.8762,-2.9126,-2.9767,-3.0859,-3.0394,-3.0281,-3.0909,-3.1009,-3.126,-3.1788,-3.1926,-3.1909,-3.1697,-3.1518,-3.1198,-3.0516,-3.0543,-3.0428,-2.9718,-2.9408,-2.9139,-2.8729,-2.8574,-2.8445,-2.7987,-2.7904,-2.7819,-2.7628,-2.737,-2.7306,-2.755,-2.7613,-2.7568,-2.744,-2.7396,-2.7448,-2.7645,-2.7707,-2.7707,-2.7645,-2.7821,-2.7821,-2.7569,-2.7655,-2.7872,-2.7686,-2.7624,-2.7531,-3.1296,-3.1813,-3.1744,-3.1721,-3.1721,-3.1641,-3.1783,-3.2019,-3.1762,-3.1756,-3.2039,-3.1809,-3.1705,-3.1705,-3.1705,-3.1705,-3.1705,-3.1705,-3.1705,-3.1705,-3.1705,-3.1705,-3.1705,-3.1705,-3.1705,-3.1705,-3.1705,-3.1705,-3.1705,-3.1705,-3.1705,-3.1705,-3.1705,-3.1705,-3.1705,-3.1633,-3.1633,-3.1705,-3.1833,-3.1442,-3.0469,-3.0774,-3.0487,-2.952,-2.9626,-2.944,-2.8913,-2.8825,-2.8599,-2.8171,-2.8265,-2.8178,-2.7914,-2.8217,-2.8242,0.0,-2.8131,0.0,0.0,0.0,0.0,0.0,0.0,0.0,0.0,-2.7417,-2.8172,-2.9566,-2.9817,-3.0256,-3.111,-3.1185,-3.1185,-3.1173,-3.0846,-3.0796,-3.121,-3.0947,-3.0859,-3.1248,-3.1286,-3.1273,-3.112,-3.1235,-3.0947,-3.0245,-3.0145,-3.0209,-3.0278,-2.9996,-2.9444,-2.8758,-2.8732,-2.8567,-2.8181,-2.7776,-2.7535,-2.7502,-2.7336,-2.6928,-2.633,-2.6048,-2.6076,-2.633,-2.6496,-2.6667,-2.6998,-2.7071,-2.7133,-2.7071,-2.704,-2.7092,-2.7289,-2.7351,-2.7289,-3.1702,-3.1731,-3.1318,-3.1157,-3.1123,-3.0698,-3.0974,-3.1738,-3.1337,-3.1371,-3.1761,-3.1709,-3.1705,-3.1705,-3.1705,-3.1705,-3.1705,-3.1705,-3.1705,-3.1705,-3.1705,-3.1705,-3.1705,-3.1705,-3.1705,-3.1705,-3.1705,-3.1705,-3.1705,-3.1705,-3.1705,-3.1705,-3.1705,-3.1705,-3.1693,0.0,0.0,0.0,-3.147,-3.1107,-3.0641,-3.0461,-3.0181,-2.9714,-2.9302,0.0,-2.8888,-2.8511,-2.8296,-2.8341,-2.8064,0.0,0.0,0.0,0.0,0.0,0.0,0.0,0.0,0.0,0.0,0.0,-2.8432,-2.7749,-2.7542,-2.8634,-2.9252,-2.9101,-2.9917,-3.0357,-3.0105,-3.0093,-3.0093,-3.0093,-3.0407,-3.0658,-3.0758,-3.1022,-3.1135,-3.0796,-3.0758,-3.0595,-3.0244,-3.0482,-3.0666,-3.0465,-3.0826,-3.1108,-3.1062,-2.9834,-2.88,-2.8593,-2.8843,-2.9114,-2.9046,-2.8854,-2.8604,-2.8765,-2.7889,-2.7161,-2.6876,-2.6241,-2.5744,-2.5609,-2.5771,-2.593,-2.5744,-2.5896,-2.6281,-2.6179,-2.5875,-2.5947,-2.7061,-2.7299,-2.7206,-3.1237,0.0,-3.0732,-3.0618,0.0,-3.0331,-3.0408,-3.0781,-3.0927,-3.1273,-3.1705,-3.1705,-3.1705,-3.1705,-3.1705,-3.1705,-3.1705,-3.1705,-3.1573,-3.132,-3.132,-3.1175,-3.0922,-3.0891,-3.0879,-3.0934,-3.1187,-3.1308,-3.1332,-3.132,-3.132,-3.132,-3.1011,-3.0934,-3.0922,-3.0615,-3.0627,-3.0922,-3.0828,-3.065,-3.0331,-3.0279,-3.0121,-2.9804,-2.9515,0.0,0.0,0.0,0.0,0.0,0.0,0.0,0.0,-2.863,0.0,-2.932,-2.9352,-2.946,-2.9674,-2.9329,-2.9146,-2.9232,-2.8505,-2.8006,-2.7873,-2.851,-2.9076,-2.934,-2.988,-3.0093,-2.9829,-2.9779,-2.9779,-2.9804,-3.0043,-3.0206,-3.0244,-3.0432,-3.0495,-3.0269,-3.0206,-3.0093,-2.9829,-2.9741,-2.9792,-2.9728,-2.9754,-2.9804,-2.9802,-2.9919,-2.972,-2.8932,-2.8303,-2.8215,-2.8349,-2.8204,-2.8087,-2.7935,-2.7487,-2.6899,-2.6434,-2.5684,-2.521,-2.5516,-2.5615,-2.5498,-2.6011,-2.6216,-2.6271,-2.587,-2.5624,-2.5646,-2.6398,-2.6211,-2.6017,-3.0618,-3.0216,-3.0216,-3.0216,-3.0216,-3.0216,-3.0063,-2.9846,0.0,0.0,0.0,-3.1705,-3.1705,-3.1705,-3.1609,-3.1621,-3.1705,-3.1609,-3.138,-3.1067,-3.0958,-3.0694,-3.023,-3.0134,-3.0086,-3.011,-3.053,-3.0778,-3.0778,-3.0766,-3.0778,-3.0742,-3.0302,-3.005,-2.9953,-2.9953,-2.9893,-2.9821,-3.0089,-3.0126,-2.9901,-3.0044,-3.0034,-2.9804,-2.9691,-2.9151,-2.8147,-2.8436,-2.8031,-2.6828,-2.7866,-2.8452,-2.8352,-2.903,-2.9543,-2.9758,-2.9789,-2.9707,-2.9523,-2.9439,-2.9166,-2.873,-2.8605,-2.8425,-2.8149,-2.8119,-2.8524,-2.9553,-2.9641,-2.9679,-2.9779,-2.9679,-2.9679,-2.9767,-2.9704,-2.9666,-2.9767,-2.9779,-2.9829,-2.9779,-2.9817,-2.9741,-2.9616,-2.9214,-2.885,-2.8725,-2.8499,-2.8109,-2.8323,-2.9526,-3.0047,-2.8975,-2.8174,-2.7564,-2.7648,-2.7591,-2.7195,-2.7412,-2.7105,-2.6538,-2.5866,-2.5043,-2.4943,-2.565,-2.5434,-2.5525,-2.6289,-2.6454,-2.6411,-2.5796,-2.5585,-2.5574,-2.5587,-2.4993,-2.4829,-3.0285,-3.0216,-3.0216,-3.0216,-3.0216,-3.0216,-3.0052,-2.9834,-3.041,-3.1045,-3.1705,-3.1705,-3.1705,-3.1681,-3.1235,-3.1284,-3.1669,-3.1192,-3.1235,-3.1573,-3.1127,-3.0831,-3.0747,-3.0302,-3.0086,-3.0098,-3.0158,-3.0194,-3.0194,-3.0194,-3.0194,-3.0194,-3.0164,-2.9857,-2.9448,-2.9412,-2.9184,-2.8763,-2.9375,-2.976,-2.9889,-2.966,-2.9596,-2.9779,-2.9315,-2.8762,-2.8134,-2.7745,-2.7567,-2.7629,-2.7928,-2.8522,-2.9498,-2.9837,-3.0127,-3.0417,-3.0462,-3.0648,-3.1092,-3.0704,-3.0099,-2.9515,-2.9397,-2.9094,-2.8343,-2.8168,-2.8373,-2.8988,-2.9114,-2.9264,-2.9679,-2.9377,-2.9315,-2.9691,-2.934,-2.9239,-2.9729,-2.9754,-2.9767,-2.9779,-2.9779,-2.9591,-2.9176,-2.8938,-2.8662,-2.8335,-2.8047,-2.8059,-2.8047,-2.8335,-2.8487,-2.8338,-2.8487,-2.861,-2.8399,-2.8624,-2.8338,-2.8612,-2.7481,-2.6719,-2.6532,-2.5776,-2.5276,-2.5089,-2.5287,-2.5374,-2.5333,-2.5462,-2.568,-2.5597,-2.5308,-2.5149,-2.5479,-2.4898,-2.4679,-3.0216,-3.0216,-3.0216,-3.0216,-3.0193,-2.994,-2.9983,-3.0215,-2.9997,-3.0359,-3.1121,-3.1541,-3.1705,-3.1693,-3.1452,-3.1476,-3.1681,-3.1163,-3.0855,-3.0771,-3.0308,-2.9869,-2.9581,-2.934,-2.9232,-2.9244,-2.952,-2.9653,-2.9653,-2.9665,-2.9665,-2.9641,-2.9376,-2.9112,-2.8883,-2.8871,-2.8979,-2.917,-2.9047,-2.91,-2.9288,-2.9241,-2.9365,-2.9599,-2.9439,-2.8988,-2.8147,-2.8547,-2.8437,-2.7669,-2.87,-2.9407,-2.9668,-3.0113,-3.0431,-3.0612,-3.0612,-3.0728,-3.0988,-3.0772,-3.0463,-3.016,-2.9808,-2.9439,-2.9029,-2.8864,-2.9127,-2.9954,-2.9755,-2.9728,-3.0304,-2.9796,-2.9503,-2.9767,-2.9277,-2.9176,-2.9628,-2.949,-2.9453,-2.9716,-2.9779,-2.9566,-2.8963,-2.8674,-2.8273,-2.7745,-2.7444,-2.7243,-2.7266,-2.7266,-2.7379,-2.7607,-2.7871,-2.7858,-2.767,-2.7595,-2.7595,-2.7595,-2.7083,-2.6659,-2.6599,-2.5949,-2.5562,-2.5649,-2.5599,-2.5526,-2.5673,-2.6009,-2.6009,-2.567,-2.5467,-2.5419,-2.5515,-2.56,-2.5672,-3.0216,-3.0216,-3.0216,-3.0216,-3.0181,-2.9814,-2.9915,-3.0277,-2.9784,-2.9879,-3.0371,-3.1165,-3.1464,-3.1356,-3.1356,-3.1344,-3.1284,-3.0802,-3.0362,-3.005,-2.9544,-2.9088,-2.8703,-2.857,-2.851,-2.8558,-2.8931,-2.9124,-2.9124,-2.9124,-2.9124,-2.9076,-2.8703,-2.851,-2.851,-2.851,-2.8855,-2.9394,-2.887,-2.8764,-2.9106,-2.9118,-2.9197,-2.947,-2.987,-2.9504,-2.8453,-2.945,-2.9425,-2.8159,-2.9421,-3.007,-2.9882,-3.0182,-3.0452,-3.0569,-3.0481,-3.0452,-3.0598,-3.0612,-3.0612,-3.0612,-3.0115,-2.9839,-2.9806,-2.9668,-2.9851,-3.0491,-3.0091,-3.0056,-3.0453,-3.0101,-2.9655,-2.9631,-2.9112,-2.8923,-2.929,-2.9001,-2.89,-2.934,-2.9402,-2.9164,-2.8649,-2.8185,-2.772,-2.7238,-2.6785,-2.658,-2.6589,-2.6602,-2.6769,-2.7047,-2.7163,-2.7027,-2.6562,-2.6549,-2.6575,-2.6487,-2.6502,-2.6518,-2.6471,-2.6015,-2.5886,-2.6352,-2.6131,-2.6052,-2.6602,-2.6717,-2.6571,-2.6203,-2.6039,-2.6002,-2.6109,-2.6546,-2.6692,-3.0216,-3.0216,-3.0204,-3.0216,-3.0193,-3.0147,-2.9906,-2.9673,-2.9931,-2.9867,-2.9624,-3.0527,-3.0663,-3.0266,-3.0254,-3.0266,-3.0242,-2.9689,-2.9677,-2.9989,-2.9544,-2.9268,-2.9136,-2.8727,-2.851,-2.8522,-2.8582,-2.8631,-2.8631,-2.8607,-2.8595,-2.8582,-2.8522,-2.851,-2.851,-2.851,-2.8618,-2.887,-2.8803,-2.9211,-3.005,-2.9457,-2.9339,-2.974,-3.0431,-3.0212,-2.9045,-2.9811,-3.0023,-2.9481,-2.9554,-2.9941,-3.0359,-3.0001,-2.9972,-3.0496,-3.0031,-2.9958,-3.0525,-3.0612,-3.0612,-3.0612,-3.0538,-3.0477,-3.0477,-3.0475,-3.0148,-2.9739,-2.9463,-2.9713,-3.0158,-2.9772,-2.9406,-2.9301,-2.8785,-2.8341,-2.8404,-2.821,-2.821,-2.8235,-2.8422,-2.8059,-2.767,-2.7467,-2.7226,-2.6898,-2.6768,-2.6726,-2.6841,-2.6773,-2.6739,-2.6896,-2.6806,-2.6622,-2.6521,-2.6487,-2.6521,-2.6487,-2.6499,-2.6568,-2.6589,-2.6624,-2.6658,-2.6692,-2.6841,-2.6807,-2.6863,-2.6977,-2.693,-2.6863,-2.6782,-2.6829,-2.6897,-2.7066,-2.7019,-3.0216,-3.0193,-2.9906,-2.9791,-2.9791,-2.9791,-2.9676,-2.9479,-2.8997,-2.8803,-2.8969,-2.9314,-2.9701,-3.0062,-2.9761,-2.9785,-3.0037,-2.9544,-2.9412,-2.9569,-2.9076,-2.8835,-2.8811,-2.8631,-2.851,-2.851,-2.851,-2.851,-2.851,-2.851,-2.851,-2.851,-2.851,-2.851,-2.851,-2.851,-2.8988,-2.9986,-2.9327,-2.9629,-3.0824,-3.0041,-2.9755,-3.0299,-3.047,-3.0077,-2.9386,-2.9982,-3.0123,-2.9676,-2.9976,-3.0109,-3.0001,-2.9769,-2.9566,-2.9479,-2.9581,-2.9697,-3.0001,-3.035,-3.0612,-3.0612,-3.0612,-3.0612,-3.0612,-3.0612,-3.0427,-3.0148,-2.9997,-3.0176,-3.0668,-3.0235,-2.98,-2.972,-2.9259,-2.8989,-2.9294,-2.865,-2.8325,-2.8597,-2.8339,-2.7883,-2.7404,-2.7097,-2.6958,-2.6854,-2.6863,-2.6909,-2.6863,-2.6829,-2.6875,-2.6829,-2.6794,-2.6739,-2.6671,-2.6624,-2.6611,-2.6624,-2.6705,-2.6841,-2.6829,-2.6875,-2.6909,-2.6977,-2.7011,-2.7079,-2.7134,-2.718,-2.7214,-2.7248,-2.7315,-2.7268,-2.7201,-2.7302,-2.7369,-3.0021,-2.9975,-2.9642,-2.9401,-2.9309,-2.9584,-2.9458,-2.9054,-2.8496,-2.831,-2.8369,-2.818,-2.8667,-2.952,-2.9388,-2.9448,-2.9593,-2.9256,-2.9088,-2.9039,-2.8691,-2.851,-2.851,-2.851,-2.851,-2.8486,-2.8314,-2.8282,-2.8294,-2.8294,-2.8473,-2.874,-2.8843,-2.8961,-2.9133,-2.9211,-2.9819,-3.0843,-3.0012,-3.0181,-3.1261,-3.047,-3.014,-3.0586,-3.0561,-3.0228,-2.966,-3.0331,-3.0446,-2.9913,-3.0198,-3.0118,-2.9624,-2.9276,-2.8898,-2.8536,-2.9015,-2.9407,-2.9581,-3.006,-3.0393,-3.0583,-3.0612,-3.0612,-3.0612,-3.0612,-3.0612,-3.0551,-3.0514,-3.0641,-3.0944,-3.062,-3.0256,-3.0062,-2.9619,-2.9558,-2.9666,-2.8919,-2.8582,-2.8945,-2.8447,-2.7863,-2.7338,-2.6993,-2.6888,-2.7058,-2.7079,-2.7079,-2.6964,-2.7032,-2.7045,-2.693,-2.6964,-2.6943,-2.6794,-2.6794,-2.6794,-2.6794,-2.6909,-2.6977,-2.7045,-2.7079,-2.7113,-2.7201,-2.7146,-2.718,-2.7302,-2.7369,-2.7369,-2.7469,-2.7503,-2.7469,-2.7369,-2.7436,-2.7469,-2.9527,-2.9515,-2.9504,-2.9194,-2.8804,-2.9676,-2.932,-2.8157,-2.878,-2.8721,-2.7839,-2.7245,-2.7558,-2.8607,-2.9015,-2.9015,-2.8655,-2.8607,-2.8595,-2.8595,-2.8534,-2.851,-2.851,-2.851,-2.8498,-2.8414,-2.7978,-2.7789,-2.7753,-2.7816,-2.8382,-2.9538,-2.9615,-2.9973,-3.0505,-3.0678,-3.1117,-3.1229,-3.0792,-3.0839,-3.1168,-3.0676,-3.0281,-3.0276,-3.0859,-3.0876,-3.0484,-3.1045,-3.1145,-3.0552,-2.9987,-2.9624,-2.9465,-2.8435,-2.7797,-2.7811,-2.8361,-2.8985,-2.9436,-2.9624,-2.9943,-3.0481,-3.0583,-3.0612,-3.0612,-3.0612,-3.0612,-3.0612,-3.058,-3.0637,-3.068,-3.0643,-3.0325,-2.9848,-2.9687,-2.9453,-2.9009,-2.9059,-2.8862,-2.8912,-2.8475,-2.7953,-2.7237,-2.7003,-2.7146,-2.7281,-2.7302,-2.7302,-2.7335,-2.7335,-2.7302,-2.7289,-2.7201,-2.699,-2.699,-2.6977,-2.6977,-2.7011,-2.7045,-2.7066,-2.7201,-2.7289,-2.7356,-2.739,-2.7403,-2.7403,-2.7469,-2.7503,-2.7469,-2.7503,-2.7503,-2.7469,-2.7436,-2.7469,-2.7503,-2.8987,-2.8999,-2.8987,-2.8873,-2.8677,-2.8436,-2.8,-2.7438,-2.6901,-2.6812,-2.6815,-2.6394,-2.6856,-2.8017,-2.821,-2.8366,-2.8498,-2.851,-2.851,-2.851,-2.851,-2.851,-2.851,-2.851,-2.8318,-2.7966,-2.7813,-2.7766,-2.8002,-2.8737,-2.9412,-2.9789,-2.9915,-3.0051,-3.022,-3.0016,-3.0156,-3.074,-3.0405,-3.0339,-3.0625,-3.0573,-3.0309,-2.9876,-3.0509,-3.075,-3.0535,-3.0794,-3.0626,-3.0001,-2.9711,-2.9233,-2.8406,-2.7579,-2.7128,-2.7186,-2.7723,-2.8173,-2.842,-2.9145,-2.9682,-2.9943,-3.0364,-3.0612,-3.0612,-3.0612,-3.0612,-3.0612,-3.0612,-3.0628,-3.0702,-3.0672,-3.0538,-3.0417,-3.0342,-3.0269,-3.0176,-2.9856,-2.9563,-2.9421,-2.8935,-2.85,-2.833,-2.8091,-2.7908,-2.8006,-2.7723,-2.7469,-2.7403,-2.7403,-2.7403,-2.739,-2.7335,-2.7302,-2.7335,-2.7248,-2.718,-2.7214,-2.7248,-2.7302,-2.7403,-2.7403,-2.7423,-2.7423,-2.7503,-2.7503,-2.7503,-2.7503,-2.7503,-2.7503,-2.7503,-2.7503,-2.7503,-2.7503,-2.7503,-2.8505,-2.8299,-2.8574,-2.8402,-2.7977,-2.7793,-2.7231,-2.6508,-2.6082,-2.6092,-2.6235,-2.6129,-2.6757,-2.7786,-2.7762,-2.7978,-2.8474,-2.851,-2.851,-2.851,-2.851,-2.851,-2.851,-2.851,-2.833,-2.7984,-2.7827,-2.7877,-2.8109,-2.8998,-2.9751,-3.0358,-3.02,-3.0272,-3.0392,-3.0,-3.0093,-3.0571,-3.0085,-2.9777,-2.9852,-3.0116,-2.9856,-2.9247,-2.9813,-3.0292,-3.0263,-3.0104,-2.9813,-2.9377,-2.9116,-2.8493,-2.7478,-2.7026,-2.6794,-2.6837,-2.7186,-2.7492,-2.7797,-2.8696,-2.9406,-2.961,-3.0205,-3.0612,-3.0612,-3.0612,-3.0612,-3.0583,-3.0335,-3.0322,-3.0353,-3.0221,-3.0163,-3.0382,-3.0338,-3.028,-3.041,-3.0017,-2.9665,-2.9381,-2.916,-2.9041,-2.9031,-2.8825,-2.8748,-2.8807,-2.8241,-2.7822,-2.7709,-2.7556,-2.7365,-2.7168,-2.7157,-2.713,-2.7117,-2.7025,-2.7206,-2.7291,-2.7369,-2.7469,-2.7503,-2.7503,-2.7503,-2.7503,-2.749,-2.749,-2.749,-2.749,-2.749,-2.7477,-2.7503,-2.7503,-2.7503,-2.7503,-2.7503,-2.8115,-2.7518,-2.8287,-2.7885,-2.6978,-2.7885,-2.7151,-2.5536,-2.6618,-2.6722,-2.6235,-2.6437,-2.72,-2.8134,-2.7897,-2.8005,-2.8438,-2.851,-2.851,-2.851,-2.851,-2.851,-2.851,-2.8438,-2.8318,-2.8177,-2.8101,-2.7985,-2.8064,-2.8538,-2.951,-3.0748,-3.0533,-3.0678,-3.1594,-3.0912,-3.0874,-3.0819,-2.9978,-2.9291,-2.8855,-2.9305,-2.9044,-2.8101,-2.8928,-2.9508,-2.9537,-2.9058,-2.8825,-2.8651,-2.8144,-2.7449,-2.6982,-2.6794,-2.6794,-2.6794,-2.6849,-2.7113,-2.7681,-2.8361,-2.9044,-2.9552,-3.0205,-3.0569,-3.0481,-3.0496,-3.0481,-3.0337,-2.9958,-2.9668,-2.9695,-2.9329,-2.9227,-2.9723,-2.9488,-2.9251,-2.9274,-2.9296,-2.9142,-2.8911,-2.9132,-2.9172,-2.8854,-2.901,-2.9319,-2.9268,-2.8798,-2.8417,-2.8352,-2.7941,-2.7321,-2.6974,-2.6987,-2.7079,-2.6883,-2.6758,-2.7079,-2.7333,-2.7404,-2.7503,-2.7503,-2.7503,-2.7503,-2.749,-2.7301,-2.7288,-2.7216,-2.7229,-2.7281,-2.7294,-2.7372,-2.7451,-2.7503,-2.7503,-2.7503,-2.7713,-2.777,-2.8069,-2.7759,-2.7013,-2.7128,-2.6267,-2.5004,-2.5715,-2.592,-2.5932,-2.6354,-2.7117,-2.7774,-2.775,-2.8017,-2.8498,-2.851,-2.851,-2.851,-2.851,-2.851,-2.845,-2.8138,-2.7572,-2.7063,-2.741,-2.7679,-2.7983,-2.9073,-3.0218,-3.0571,-3.0516,-3.0648,-3.0984,-3.0109,-2.9693,-2.985,-2.9203,-2.8511,-2.8116,-2.8652,-2.855,-2.7855,-2.8101,-2.829,-2.829,-2.855,-2.8463,-2.8057,-2.7811,-2.742,-2.6924,-2.6794,-2.6794,-2.6794,-2.6794,-2.7055,-2.7666,-2.8318,-2.8942,-2.9581,-3.0205,-3.0292,-2.9987,-2.9943,-2.9784,-2.9522,-2.9229,-2.9198,-2.9276,-2.8777,-2.8704,-2.9418,-2.93,-2.9148,-2.924,-2.9273,-2.9305,-2.9277,-2.9345,-2.9309,-2.9299,-2.9479,-2.956,-2.9498,-2.8986,-2.8725,-2.8903,-2.8214,-2.7551,-2.7402,-2.7305,-2.696,-2.6677,-2.6564,-2.6763,-2.7059,-2.7229,-2.7477,-2.7503,-2.749,-2.749,-2.7307,-2.7131,-2.6974,-2.6948,-2.6935,-2.6948,-2.7066,-2.7118,-2.7229,-2.7438,-2.7385,-2.7229,-2.7587,-2.7725,-2.7897,-2.7575,-2.6978,-2.6772,-2.6163,-2.5325,-2.5581,-2.589,-2.6177,-2.6387,-2.7064,-2.7771,-2.7774,-2.799,-2.8474,-2.851,-2.851,-2.851,-2.851,-2.8657,-2.8888,-2.8694,-2.7978,-2.7237,-2.7751,-2.8199,-2.8299,-2.949,-3.0273,-3.0441,-3.0273,-3.0133,-3.0097,-2.9219,-2.8726,-2.867,-2.8135,-2.7671,-2.7565,-2.7998,-2.8013,-2.7478,-2.7565,-2.7579,-2.7447,-2.7781,-2.7795,-2.7434,-2.7347,-2.7171,-2.6823,-2.6794,-2.6794,-2.6794,-2.6823,-2.7055,-2.7666,-2.8318,-2.8942,-2.9581,-3.0205,-3.0277,-2.9755,-2.9595,-2.9377,-2.8939,-2.8589,-2.8581,-2.8697,-2.8196,-2.8101,-2.8571,-2.8575,-2.8672,-2.882,-2.8752,-2.8681,-2.8749,-2.8919,-2.9095,-2.9205,-2.9722,-2.9811,-2.9798,-2.9535,-2.9156,-2.9275,-2.8557,-2.8021,-2.7523,-2.7145,-2.6777,-2.6419,-2.6392,-2.6456,-2.6724,-2.7,-2.7294,-2.7503,-2.749,-2.7477,-2.7013,-2.6726,-2.6425,-2.6347,-2.636,-2.6373,-2.6569,-2.6674,-2.6615,-2.6615,-2.6681,-2.6576,-2.7644,-2.7323,-2.777,-2.7444,-2.6674,-2.6978,-2.6548,-2.5853,-2.6196,-2.6569,-2.6772,-2.6618,-2.7153,-2.8083,-2.7969,-2.8074,-2.8438,-2.851,-2.845,-2.8414,-2.8442,-2.8724,-2.939,-2.942,-2.885,-2.823,-2.8718,-2.9146,-2.911,-2.9521,-2.9866,-3.0291,-2.9929,-2.9518,-2.935,-2.8596,-2.8297,-2.8118,-2.7376,-2.7012,-2.6982,-2.736,-2.7405,-2.6895,-2.7316,-2.7374,-2.7009,-2.6968,-2.691,-2.6808,-2.6866,-2.6852,-2.6794,-2.6794,-2.6794,-2.6794,-2.6794,-2.7128,-2.7666,-2.8332,-2.8898,-2.9435,-3.0016,-3.0219,-2.9465,-2.9247,-2.9057,-2.8516,-2.8037,-2.7854,-2.7951,-2.7661,-2.7494,-2.7569,-2.7727,-2.7697,-2.7619,-2.7705,-2.7814,-2.7854,-2.8158,-2.8547,-2.8592,-2.948,-3.0005,-3.0119,-3.0046,-2.9747,-2.9446,-2.8731,-2.7908,-2.7361,-2.6906,-2.6339,-2.5939,-2.5934,-2.6018,-2.6215,-2.6456,-2.6664,-2.6981,-2.6968,-2.7059,-2.6634,-2.6151,-2.589,-2.5793,-2.5863,-2.5824,-2.5876,-2.5876,-2.5754,-2.5884,-2.6067,-2.6106,-2.7346,-2.7247,-2.777,-2.7433,-2.6639,-2.7013,-2.6617,-2.5835,-2.5997,-2.6368,-2.6541,-2.6943,-2.735,-2.7882,-2.8198,-2.839,-2.845,-2.8486,-2.8258,-2.7969,-2.7894,-2.8435,-2.9059,-2.8924,-2.8472,-2.7979,-2.8523,-2.8722,-2.8801,-2.9344,-2.9684,-2.9827,-2.9826,-2.9782,-2.9738,-2.9272,-2.9117,-2.8928,-2.7956,-2.7447,-2.7374,-2.7128,-2.6968,-2.6852,-2.6968,-2.6982,-2.682,-2.6794,-2.6794,-2.6794,-2.6794,-2.6794,-2.6794,-2.6794,-2.6794,-2.6794,-2.6808,-2.7055,-2.7666,-2.8303,-2.8753,-2.8942,-2.9537,-2.9377,-2.829,-2.8299,-2.8088,-2.7697,-2.7479,-2.7539,-2.7675,-2.7593,-2.7549,-2.7575,-2.7549,-2.7549,-2.76,-2.7585,-2.7585,-2.763,-2.7794,-2.7884,-2.8109,-2.8592,-2.919,-2.9203,-2.923,-2.9246,-2.9059,-2.8426,-2.744,-2.7074,-2.658,-2.5924,-2.5508,-2.5495,-2.5574,-2.574,-2.5785,-2.5688,-2.5871,-2.5903,-2.6033,-2.6007,-2.5393,-2.5027,-2.5301,-2.5497,-2.5393,-2.5223,-2.5615,-2.5798,-2.5741,-2.5845,-2.5793,-2.719,-2.7254,-2.7541,-2.7334,-2.6852,-2.7064,-2.672,-2.6175,-2.6401,-2.6399,-2.6467,-2.6975,-2.7445,-2.7726,-2.8029,-2.8162,-2.8146,-2.8174,-2.7834,-2.7507,-2.7792,-2.8286,-2.8699,-2.8678,-2.8639,-2.8457,-2.8771,-2.8962,-2.9071,-2.9401,-2.9571,-2.9648,-2.973,-2.9756,-2.9595,-2.9547,-2.9131,-2.8726,-2.8029,-2.7594,-2.7289,-2.6982,-2.6837,-2.6794,-2.6794,-2.6794,-2.6794,-2.6794,-2.6794,-2.6794,-2.6794,-2.6794,-2.6794,-2.6794,-2.6794,-2.6794,-2.6794,-2.7055,-2.7608,-2.81,-2.839,-2.868,-2.9073,-2.8695,-2.7998,-2.7763,-2.7623,-2.7239,-2.7211,-2.7325,-2.7488,-2.7549,-2.7585,-2.7585,-2.7585,-2.7585,-2.7585,-2.7585,-2.7585,-2.7585,-2.7585,-2.7585,-2.76,-2.8173,-2.8487,-2.8629,-2.8738,-2.87,-2.8521,-2.7713,-2.6965,-2.6472,-2.6153,-2.5584,-2.5009,-2.4864,-2.4659,-2.4819,-2.4817,-2.4744,-2.4975,-2.4985,-2.4904,-2.4917,-2.4508,-2.4334,-2.4609,-2.4818,-2.4766,-2.4857,-2.5419,-2.5497,-2.5301,-2.5323,-2.5284,-2.7156,-2.711,-2.7151,-2.7087,-2.6961,-2.699,-2.6622,-2.6485,-2.6639,-2.6588,-2.6397,-2.6815,-2.707,-2.745,-2.7476,-2.7558,-2.7536,-2.7726,-2.755,-2.7508,-2.7804,-2.8247,-2.8481,-2.9099,-2.9352,-2.9394,-2.9571,-2.954,-2.9509,-2.9571,-2.9602,-2.9665,-2.9792,-2.9574,-2.9398,-2.9361,-2.8814,-2.8174,-2.7855,-2.7507,-2.7142,-2.691,-2.6794,-2.6794,-2.6794,-2.6794,-2.6794,-2.6794,-2.6794,-2.6794,-2.6794,-2.6794,-2.6794,-2.6794,-2.6794,-2.6794,-2.6808,-2.7041,-2.7478,-2.7666,-2.7884,-2.8289,-2.8434,-2.8317,-2.775,-2.7559,-2.7477,-2.7151,-2.7055,-2.7248,-2.7412,-2.7524,-2.7495,-2.7435,-2.742,-2.7465,-2.742,-2.7495,-2.757,-2.7525,-2.751,-2.7585,-2.766,-2.7989,-2.8338,-2.7799,-2.782,-2.7509,-2.7384,-2.6865,-2.6181,-2.5639,-2.5399,-2.5219,-2.4681,-2.4214,-2.388,-2.3727,-2.3666,-2.3716,-2.4203,-2.4205,-2.394,-2.3749,-2.3742,-2.3736,-2.3759,-2.389,-2.4102,-2.4295,-2.4713,-2.4517,-2.4269,-2.453,-2.4609,-2.699,-2.6634,-2.6634,-2.6393,-2.6003,-2.5601,-2.5589,-2.5853,-2.5769,-2.5736,-2.581,-2.6399,-2.635,-2.5925,-2.6621,-2.6837,-2.66,-2.7287,-2.7934,-2.8017,-2.7691,-2.8047,-2.8481,-2.9201,-2.9526,-2.9602,-2.9602,-2.9602,-2.9602,-2.9574,-2.9651,-2.9732,-2.9815,-2.9784,-2.9375,-2.9449,-2.9204,-2.8507,-2.7971,-2.7652,-2.7374,-2.6982,-2.6794,-2.6794,-2.6794,-2.6794,-2.6794,-2.6794,-2.6794,-2.6794,-2.6794,-2.6794,-2.6794,-2.6794,-2.6794,-2.6794,-2.6794,-2.6866,-2.7041,-2.7403,-2.7521,-2.736,-2.7679,-2.7706,-2.7243,-2.7264,-2.7321,-2.7299,-2.7386,-2.7448,-2.7524,-2.7575,-2.736,-2.7061,-2.6896,-2.6662,-2.6348,-2.6931,-2.721,-2.7046,-2.721,-2.7405,-2.6911,-2.6901,-2.7051,-2.6961,-2.6682,-2.6275,-2.6057,-2.5908,-2.5408,-2.4849,-2.4752,-2.461,-2.4289,-2.3909,-2.3718,-2.3459,-2.3259,-2.3155,-2.3645,-2.3817,-2.3669,-2.3458,-2.3245,-2.3271,-2.3414,-2.3708,-2.4083,-2.4045,-2.4024,-2.4076,-2.4105,-2.4102,-2.4125,-2.6754,-2.649,-2.6249,-2.5957,-2.5658,-2.5153,-2.5073,-2.5268,-2.5174,-2.4991,-2.5012,-2.57,-2.5635,-2.5,-2.5709,-2.5865,-2.5574,-2.6084,-2.6845,-2.7254,-2.728,-2.7826,-2.8807,-2.9118,-2.9279,-2.9532,-2.9602,-2.9602,-2.956,-2.935,-2.9231,-2.9367,-2.9592,-2.9328,-2.9217,-2.9595,-2.932,-2.8463,-2.8231,-2.7926,-2.7316,-2.6982,-2.6794,-2.6794,-2.6794,-2.6794,-2.6794,-2.6794,-2.6794,-2.6779,-2.6779,-2.6779,-2.6779,-2.6779,-2.6779,-2.6794,-2.6794,-2.6794,-2.691,-2.7055,-2.7128,-2.6823,-2.7113,-2.7082,-2.7012,-2.7015,-2.717,-2.7284,-2.7397,-2.7524,-2.756,-2.7585,-2.727,-2.6806,-2.6587,-2.6288,-2.5884,-2.6243,-2.6557,-2.6258,-2.6393,-2.6393,-2.6243,-2.6138,-2.6138,-2.6213,-2.5681,-2.5299,-2.512,-2.4902,-2.4567,-2.4201,-2.4149,-2.4036,-2.3812,-2.3672,-2.3688,-2.3548,-2.3472,-2.3397,-2.3583,-2.3617,-2.3574,-2.3326,-2.3087,-2.331,-2.3482,-2.3771,-2.3778,-2.3657,-2.3653,-2.3896,-2.4058,-2.3984,-2.4034,-2.6467,-2.6352,-2.5807,-2.5509,-2.5264,-2.4725,-2.4556,-2.4671,-2.4731,-2.4431,-2.4249,-2.5013,-2.5028,-2.451,-2.4957,-2.4978,-2.5065,-2.5192,-2.6148,-2.7032,-2.7141,-2.7834,-2.8733,-2.8757,-2.8844,-2.942,-2.9574,-2.9602,-2.9462,-2.9155,-2.9076,-2.9015,-2.9108,-2.8899,-2.8785,-2.9305,-2.9145,-2.781,-2.7911,-2.7766,-2.7026,-2.6808,-2.6794,-2.6794,-2.6794,-2.6794,-2.6794,-2.6779,-2.6721,-2.666,-2.666,-2.6634,-2.666,-2.666,-2.6721,-2.6736,-2.6663,-2.662,-2.6707,-2.6747,-2.6675,-2.6747,-2.6556,-2.6727,-2.6834,-2.6894,-2.692,-2.7003,-2.7055,-2.7021,-2.7245,-2.7121,-2.6836,-2.6393,-2.6243,-2.5974,-2.5495,-2.53,-2.53,-2.5525,-2.5749,-2.5854,-2.5606,-2.5427,-2.5442,-2.5375,-2.4829,-2.4425,-2.4276,-2.4141,-2.3939,-2.3819,-2.3849,-2.3849,-2.3655,-2.3595,-2.3604,-2.3598,-2.3569,-2.3547,-2.3547,-2.3563,-2.351,-2.3178,-2.3048,-2.3203,-2.3217,-2.3166,-2.3161,-2.3107,-2.3393,-2.3728,-2.385,-2.3854,-2.4026,-2.626,-2.5796,-2.5256,-2.4554,-2.3786,-2.3282,-2.3362,-2.3649,-2.3919,-2.3909,-2.3898,-2.4661,-2.4245,-2.3634,-2.432,-2.5236,-2.5735,-2.592,-2.6476,-2.7226,-2.7357,-2.7828,-2.7985,-2.8043,-2.8296,-2.8844,-2.9265,-2.9532,-2.9588,-2.9476,-2.9193,-2.9106,-2.9067,-2.8684,-2.8121,-2.8087,-2.8115,-2.7273,-2.7302,-2.7157,-2.6895,-2.6794,-2.6794,-2.6794,-2.6794,-2.6736,-2.6736,-2.6736,-2.6533,-2.6036,-2.5977,-2.5977,-2.5923,-2.5923,-2.6181,-2.653,-2.6312,-2.6253,-2.6445,-2.6239,-2.6392,-2.6517,-2.6021,-2.6132,-2.6695,-2.6811,-2.6564,-2.65,-2.626,-2.598,-2.5944,-2.6138,-2.5674,-2.5202,-2.5023,-2.4799,-2.4253,-2.4118,-2.4328,-2.4694,-2.5083,-2.5345,-2.4978,-2.4754,-2.4754,-2.4687,-2.4343,-2.4022,-2.3902,-2.3812,-2.3729,-2.3655,-2.364,-2.364,-2.3595,-2.3595,-2.3603,-2.3603,-2.3575,-2.3575,-2.356,-2.3566,-2.343,-2.3202,-2.2942,-2.2889,-2.2808,-2.2759,-2.2748,-2.2879,-2.3245,-2.368,-2.3824,-2.3998,-2.4299,-2.5624,-2.4877,-2.4324,-2.3854,-2.3316,-2.2582,-2.2891,-2.3626,-2.3121,-2.3004,-2.3292,-2.3532,-2.3226,-2.2747,-2.338,-2.4445,-2.5196,-2.5743,-2.6034,-2.6366,-2.6665,-2.7017,-2.7242,-2.7284,-2.7902,-2.8521,-2.9012,-2.9293,-2.9532,-2.9315,-2.9185,-2.9095,-2.8913,-2.8411,-2.7974,-2.8129,-2.7592,-2.707,-2.7055,-2.7084,-2.6835,-2.6794,-2.6794,-2.6794,-2.675,-2.6631,-2.6326,-2.6297,-2.5992,-2.5498,-2.5328,-2.5313,-2.5226,-2.5125,-2.528,-2.5966,-2.5948,-2.573,-2.5778,-2.5429,-2.5498,-2.5708,-2.5248,-2.5346,-2.5889,-2.5943,-2.5949,-2.5956,-2.5914,-2.56,-2.5659,-2.5555,-2.5247,-2.4769,-2.4575,-2.4246,-2.3797,-2.364,-2.3812,-2.4081,-2.4246,-2.4373,-2.4223,-2.4066,-2.4066,-2.3954,-2.3774,-2.3684,-2.361,-2.3595,-2.3595,-2.3595,-2.3595,-2.3595,-2.3595,-2.3595,-2.3595,-2.3595,-2.3595,-2.3595,-2.3595,-2.3595,-2.3551,-2.3408,-2.3127,-2.2889,-2.3044,-2.3219,-2.296,-2.281,-2.3502,-2.4033,-2.4055,-2.416,-2.4535,-2.4877,-2.4005,-2.3465,-2.3201,-2.2972,-2.2261,-2.2581,-2.3328,-2.2444,-2.2279,-2.2689,-2.2564,-2.2388,-2.2437,-2.3095,-2.3927,-2.441,-2.5102,-2.5326,-2.5493,-2.5827,-2.6231,-2.6497,-2.6764,-2.7228,-2.8254,-2.8226,-2.8733,-2.9228,-2.9122,-2.889,-2.8612,-2.8368,-2.8062,-2.771,-2.7795,-2.7517,-2.7316,-2.7215,-2.7229,-2.691,-2.6794,-2.6794,-2.6794,-2.6779,-2.65,-2.5977,-2.589,-2.5415,-2.4921,-2.4689,-2.4675,-2.4549,-2.4167,-2.4408,-2.5207,-2.5386,-2.5154,-2.5033,-2.4713,-2.4844,-2.518,-2.4809,-2.4842,-2.5143,-2.5379,-2.5312,-2.5382,-2.5181,-2.5076,-2.4986,-2.5113,-2.4881,-2.4567,-2.4306,-2.4201,-2.3804,-2.3595,-2.3595,-2.3699,-2.3595,-2.364,-2.3744,-2.3759,-2.3834,-2.3834,-2.367,-2.367,-2.3595,-2.3595,-2.3595,-2.3595,-2.3595,-2.3595,-2.3595,-2.3595,-2.3595,-2.3595,-2.3595,-2.3595,-2.3595,-2.3595,-2.353,-2.3508,-2.3486,-2.3355,-2.353,-2.3525,-2.3256,-2.3334,-2.4042,-2.4601,-2.4984,-2.4956,-2.5065,-2.4015,-2.3453,-2.2972,-2.2513,-2.2123,-2.194,-2.1974,-2.2181,-2.1997,-2.2016,-2.2428,-2.2406,-2.2575,-2.3092,-2.4147,-2.5006,-2.5495,-2.5633,-2.5674,-2.5729,-2.5853,-2.595,-2.602,-2.5992,-2.6764,-2.7679,-2.7383,-2.7834,-2.8644,-2.8843,-2.8595,-2.8139,-2.7993,-2.7485,-2.7389,-2.7287,-2.6965,-2.6849,-2.6881,-2.6866,-2.675,-2.6721,-2.6707,-2.6678,-2.6605,-2.6286,-2.5662,-2.5487,-2.5096,-2.4138,-2.4007,-2.4031,-2.3992,-2.3949,-2.392,-2.408,-2.419,-2.4374,-2.464,-2.4402,-2.4394,-2.4629,-2.4317,-2.4476,-2.4789,-2.4842,-2.4686,-2.4679,-2.4261,-2.4044,-2.4088,-2.3939,-2.3804,-2.3849,-2.3864,-2.3819,-2.3595,-2.3595,-2.3595,-2.3595,-2.3595,-2.3595,-2.364,-2.3625,-2.361,-2.3595,-2.3595,-2.3595,-2.3595,-2.3595,-2.3595,-2.3595,-2.3595,-2.3595,-2.3595,-2.3595,-2.3595,-2.3595,-2.3595,-2.3595,-2.3595,-2.3595,-2.3595,-2.3573,-2.3595,-2.3508,-2.3399,-2.3363,-2.3369,-2.3769,-2.437,-2.5296,-2.626,-2.6065,-2.5522,-2.2754,-2.2536,-2.2352,-2.2134,-2.186,-2.1629,-2.1847,-2.2157,-2.1743,-2.1952,-2.2555,-2.2551,-2.3058,-2.4028,-2.4806,-2.5314,-2.5811,-2.5893,-2.5893,-2.5893,-2.5893,-2.5893,-2.5907,-2.5936,-2.6441,-2.6975,-2.7088,-2.7286,-2.8053,-2.8766,-2.8941,-2.8915,-2.8424,-2.819,-2.7532,-2.7111,-2.6907,-2.6794,-2.6765,-2.6617,-2.6355,-2.6224,-2.6079,-2.572,-2.5694,-2.5371,-2.4936,-2.4713,-2.4297,-2.3476,-2.3331,-2.3331,-2.3331,-2.3331,-2.3331,-2.3345,-2.3414,-2.3568,-2.3705,-2.3629,-2.3883,-2.3975,-2.377,-2.3874,-2.4291,-2.4268,-2.4051,-2.4029,-2.3789,-2.361,-2.3595,-2.3595,-2.3595,-2.3595,-2.3595,-2.3595,-2.3595,-2.3595,-2.3595,-2.3595,-2.3595,-2.3595,-2.3595,-2.3595,-2.3595,-2.3595,-2.3595,-2.3595,-2.3595,-2.3595,-2.3595,-2.3595,-2.3595,-2.3595,-2.3595,-2.3595,-2.3595,-2.3595,-2.3595,-2.3595,-2.3595,-2.3595,-2.3595,-2.3595,-2.3595,-2.3465,-2.329,-2.3371,-2.3554,-2.4078,-2.464,-2.5423,-2.6101,-2.6032,-2.548,-2.1732,-2.1711,-2.1743,-2.1732,-2.1697,-2.1351,-2.1604,-2.2155,-2.1535,-2.1768,-2.2541,-2.2837,-2.3725,-2.4793,-2.5174,-2.5536,-2.5893,-2.5893,-2.5893,-2.5893,-2.5893,-2.5893,-2.5893,-2.595,-2.6217,-2.6793,-2.6708,-2.713,-2.7755,-2.824,-2.8828,-2.9376,-2.8233,-2.8057,-2.791,-2.73,-2.6721,-2.6471,-2.6678,-2.6344,-2.5763,-2.5749,-2.5429,-2.5071,-2.4752,-2.4505,-2.3992,-2.3958,-2.363,-2.3099,-2.296,-2.3012,-2.2975,-2.2989,-2.2989,-2.3012,-2.3094,-2.3117,-2.3198,-2.3207,-2.3194,-2.329,-2.3378,-2.3619,-2.3648,-2.3595,-2.361,-2.3684,-2.364,-2.3595,-2.3595,-2.3595,-2.3595,-2.3595,-2.3595,-2.3595,-2.3595,-2.3595,-2.3595,-2.3595,-2.3595,-2.3595,-2.3595,-2.3595,-2.3595,-2.3595,-2.3595,-2.3595,-2.3595,-2.3595,-2.3595,-2.3595,-2.3595,-2.3595,-2.3595,-2.3595,-2.3595,-2.3595,-2.3595,-2.3595,-2.3595,-2.3595,-2.3595,-2.3595,-2.3595,-2.3551,-2.3421,-2.3583,-2.3782,-2.426,-2.4743,-2.5186,-2.5594,-2.5592,-2.5427,-2.1247,-2.1247,-2.127,-2.127,-2.127,-2.1224,-2.1247,-2.1443,-2.127,-2.1403,-2.2078,-2.304,-2.4221,-2.4991,-2.5536,-2.5784,-2.5893,-2.5893,-2.5893,-2.5893,-2.5893,-2.5893,-2.5893,-2.5978,-2.616,-2.6582,-2.6495,-2.7002,-2.7669,-2.7579,-2.7515,-2.7072,-2.7476,-2.7128,-2.7053,-2.7038,-2.6486,-2.6268,-2.6387,-2.5981,-2.5386,-2.5241,-2.527,-2.4824,-2.4694,-2.4505,-2.3943,-2.3789,-2.3557,-2.2902,-2.2888,-2.2888,-2.2888,-2.2978,-2.3,-2.297,-2.3082,-2.3127,-2.3157,-2.3268,-2.3451,-2.3545,-2.3573,-2.3588,-2.3595,-2.3595,-2.3595,-2.3595,-2.3595,-2.3595,-2.3595,-2.3595,-2.3595,-2.3595,-2.3595,-2.3595,-2.3595,-2.3595,-2.3595,-2.3595,-2.3595,-2.3595,-2.3595,-2.3595,-2.3595,-2.3595,-2.3595,-2.3595,-2.3595,-2.3595,-2.3595,-2.3595,-2.3595,-2.3595,-2.3595,-2.3595,-2.3595,-2.3595,-2.3595,-2.3595,-2.3595,-2.3595,-2.3595,-2.3595,-2.3595,-2.3595,-2.3595,-2.364,-2.3834,-2.4321,-2.476,-2.5061,-2.5182,-2.5195,-2.5027,-2.1201,-2.1201,-2.1201,-2.1201,-2.1201,-2.1201,-2.1201,-2.1201,-2.1201,-2.1815,-2.2731,-2.3975,-2.4893,-2.5467,-2.5702,-2.5893,-2.5893,-2.5893,-2.5893,-2.5893,-2.5893,-2.5893,-2.5893,-2.5921,-2.602,-2.6216,-2.6156,-2.6278,-2.6841,-2.7018,-2.6965,-2.6869,-2.7084,-2.736,-2.7316,-2.691,-2.6413,-2.6021,-2.5908,-2.5517,-2.4588,-2.4384,-2.4312,-2.3708,-2.3612,-2.3548,-2.3287,-2.3287,-2.3128,-2.2997,-2.2902,-2.2888,-2.2955,-2.3135,-2.3157,-2.3082,-2.3268,-2.34,-2.3312,-2.3363,-2.3436,-2.3566,-2.3595,-2.3595,-2.3595,-2.3595,-2.3595,-2.3595,-2.3595,-2.3595,-2.3595,-2.3595,-2.3595,-2.3595,-2.3595,-2.3595,-2.3595,-2.3595,-2.3595,-2.3595,-2.3595,-2.3595,-2.3595,-2.3595,-2.3595,-2.3595,-2.3595,-2.3595,-2.3595,-2.3595,-2.3595,-2.3595,-2.3595,-2.3595,-2.3595,-2.3595,-2.3595,-2.3595,-2.3595,-2.3595,-2.3595,-2.3595,-2.3595,-2.3595,-2.3595,-2.3595,-2.3595,-2.3595,-2.3849,-2.4261,-2.4522,-2.4735,-2.479,-2.4776,-2.4549,-2.1201,-2.1201,-2.1201,-2.1201,-2.1201,-2.1201,-2.1201,-2.1201,-2.1253,-2.2144,-2.3627,-2.4538,-2.5286,-2.5757,-2.5893,-2.5893,-2.5893,-2.5893,-2.5893,-2.5893,-2.5893,-2.5893,-2.5893,-2.5907,-2.5921,-2.5948,-2.6098,-2.629,-2.6427,-2.6527,-2.6674,-2.6924,-2.7186,-2.7331,-2.7273,-2.7012,-2.6373,-2.5759,-2.5658,-2.4965,-2.3876,-2.3818,-2.3659,-2.3105,-2.3018,-2.3004,-2.2975,-2.3012,-2.296,-2.2902,-2.2888,-2.2888,-2.3008,-2.3142,-2.3231,-2.3312,-2.3422,-2.364,-2.3531,-2.3458,-2.3458,-2.3573,-2.3595,-2.3595,-2.3595,-2.3595,-2.3595,-2.3595,-2.3595,-2.3595,-2.3595,-2.3595,-2.3595,-2.3595,-2.3595,-2.3595,-2.3595,-2.3595,-2.3595,-2.3595,-2.3595,-2.3595,-2.3595,-2.3595,-2.3595,-2.3595,-2.3595,-2.3595,-2.3595,-2.3595,-2.3595,-2.3595,-2.3595,-2.3595,-2.3595,-2.3595,-2.3595,-2.3595,-2.3595,-2.3595,-2.3595,-2.3595,-2.3595,-2.3595,-2.3595,-2.3595,-2.3595,-2.3595,-2.3834,-2.4163,-2.4268,-2.4328,-2.4253,-2.4204,-2.3981,-2.1201,-2.1201,-2.1201,-2.1201,-2.1201,-2.1201,-2.1201,-2.1253,-2.142,-2.2347,-2.3758,-2.4469,-2.5175,-2.577,-2.5893,-2.5893,-2.5893,-2.5893,-2.5893,-2.5893,-2.5893,-2.5893,-2.5893,-2.5893,-2.5921,-2.5975,-2.6125,-2.626,-2.634,-2.658,-2.6727,-2.6779,-2.691,-2.6953,-2.6864,-2.6808,-2.6141,-2.5222,-2.5614,-2.4617,-2.3702,-2.3615,-2.3331,-2.3047,-2.2888,-2.2888,-2.2888,-2.2888,-2.2888,-2.2888,-2.2888,-2.291,-2.2955,-2.3045,-2.3135,-2.3194,-2.3223,-2.3334,-2.3466,-2.3545,-2.3573,-2.3595,-2.3595,-2.3595,-2.3595,-2.3595,-2.3595,-2.3595,-2.3595,-2.3595,-2.3595,-2.3595,-2.3595,-2.3595,-2.3595,-2.3595,-2.3595,-2.3595,-2.3595,-2.3595,-2.3595,-2.3595,-2.3595,-2.3595,-2.3595,-2.3595,-2.3595,-2.3595,-2.3595,-2.3595,-2.3595,-2.3595,-2.3595,-2.3595,-2.3595,-2.3595,-2.3595,-2.3595,-2.3595,-2.3595,-2.3595,-2.3595,-2.3595,-2.3595,-2.3595,-2.3595,-2.3595,-2.3595,-2.3789,-2.3924,-2.3789,-2.3761,-2.3694,-2.3688,-2.3635,-2.1201,-2.1201,-2.1201,-2.1201,-2.1201,-2.1201,-2.1201,-2.1316,-2.1939,-2.2804,-2.38,-2.4553,-2.5245,-2.5715,-2.5893,-2.5893,-2.5893,-2.5893,-2.5893,-2.5893,-2.5893,-2.5893,-2.5893,-2.5921,-2.5948,-2.6029,-2.6179,-2.6299,-2.6445,-2.6618,-2.6686,-2.6753,-2.6794,-2.6794,-2.6794,-2.6736,-2.6326,-2.5614,-2.5309,-2.4631,-2.3673,-2.3397,-2.3186,-2.2902,-2.2888,-2.2888,-2.2888,-2.2888,-2.2888,-2.2888,-2.2888,-2.2925,-2.306,-2.3179,-2.34,-2.3466,-2.3516,-2.3674,-2.3631,-2.3573,-2.3595,-2.3595,-2.3595,-2.3595,-2.3595,-2.3595,-2.3595,-2.3595,-2.3595,-2.3595,-2.3595,-2.3595,-2.3595,-2.3595,-2.3595,-2.3595,-2.3595,-2.3595,-2.3595,-2.3595,-2.3595,-2.3595,-2.3595,-2.3595,-2.3595,-2.3595,-2.3595,-2.3595,-2.3595,-2.3595,-2.3595,-2.3595,-2.3595,-2.3595,-2.3595,-2.3595,-2.3595,-2.3595,-2.3595,-2.3595,-2.3595,-2.3595,-2.3595,-2.3595,-2.3595,-2.3595,-2.3595,-2.3595,-2.3595,-2.361,-2.3595,-2.3595,-2.3633,-2.3626,-2.3606,-2.1201,-2.1201,-2.1201,-2.1201,-2.1201,-2.1201,-2.1221,-2.1463,-2.2408,-2.3255,-2.3917,-2.4836,-2.5508,-2.5811,-2.5893,-2.5893,-2.5893,-2.5893,-2.5893,-2.5893,-2.5893,-2.5893,-2.5893,-2.5921,-2.5921,-2.6029,-2.6138,-2.6258,-2.6418,-2.6551,-2.6671,-2.6779,-2.6794,-2.6794,-2.6794,-2.6707,-2.6286,-2.5633,-2.5139,-2.4689,-2.3809,-2.3345,-2.3171,-2.296,-2.2888,-2.2888,-2.2888,-2.2888,-2.2888,-2.2888,-2.291,-2.2947,-2.3149,-2.3312,-2.3509,-2.356,-2.3674,-2.3767,-2.3638,-2.3595,-2.3595,-2.3595,-2.3595,-2.3595,-2.3595,-2.3595,-2.3595,-2.3595,-2.3595,-2.3595,-2.3595,-2.3595,-2.3595,-2.3595,-2.3595,-2.3595,-2.3595,-2.3595,-2.3595,-2.3595,-2.3595,-2.3595,-2.3595,-2.3595,-2.3595,-2.3595,-2.3595,-2.3595,-2.3595,-2.3595,-2.3595,-2.3595,-2.3595,-2.3595,-2.3595,-2.3595,-2.3595,-2.3595,-2.3595,-2.3595,-2.3595,-2.3595,-2.3595,-2.3595,-2.3595,-2.3595,-2.3595,-2.3595,-2.3595,-2.3595,-2.3595,-2.3595,-2.3595,-2.3595,-2.361,-2.1201,-2.1201,-2.1201,-2.1201,-2.1201,-2.1265,-2.1305,-2.1545,-2.2882,-2.3568,-2.3888,-2.5231,-2.5839,-2.5893,-2.5893,-2.5864,-2.5837,-2.5837,-2.5836,-2.5878,-2.5864,-2.5865,-2.5921,-2.5907,-2.5975,-2.6056,-2.6165,-2.6353,-2.6353,-2.6606,-2.6753,-2.6794,-2.6794,-2.6794,-2.6794,-2.6678,-2.6228,-2.5749,-2.5444,-2.4907,-2.4085,-2.3688,-2.3461,-2.3229,-2.2989,-2.2902,-2.2888,-2.2888,-2.2925,-2.291,-2.291,-2.2947,-2.2992,-2.3045,-2.3179,-2.3356,-2.3545,-2.361,-2.3616,-2.3595,-2.3595,-2.3595,-2.3595,-2.3595,-2.3595,-2.3595,-2.3595,-2.3595,-2.3595,-2.3595,-2.3595,-2.3595,-2.3595,-2.3595,-2.3595,-2.3595,-2.3595,-2.3595,-2.3595,-2.3595,-2.3595,-2.3595,-2.3595,-2.3595,-2.3595,-2.3595,-2.3595,-2.3595,-2.3595,-2.3595,-2.3595,-2.3595,-2.3595,-2.3595,-2.3595,-2.3595,-2.3595,-2.3595,-2.3595,-2.3595,-2.3595,-2.3595,-2.3595,-2.3595,-2.3595,-2.3595,-2.3595,-2.3595,-2.3595,-2.3595,-2.3595,-2.3595,-2.3595,-2.361,-2.3671,-2.1201,-2.1201,-2.1201,-2.1201,-2.1265,-2.1545,-2.1577,-2.1628,-2.287,-2.3598,-2.3888,-2.5273,-2.5781,-2.5893,-2.5893,-2.5625,-2.557,-2.5584,-2.5527,-2.5597,-2.578,-2.5878,-2.5948,-2.6002,-2.6098,-2.6218,-2.6353,-2.6486,-2.6633,-2.6794,-2.6794,-2.6794,-2.6794,-2.6794,-2.6794,-2.6794,-2.646,-2.6184,-2.5966,-2.5357,-2.466,-2.4225,-2.392,-2.3534,-2.3084,-2.2946,-2.2888,-2.2888,-2.2933,-2.306,-2.3037,-2.3105,-2.3349,-2.3378,-2.3444,-2.3501,-2.3573,-2.3595,-2.3595,-2.3595,-2.3595,-2.3595,-2.3595,-2.3595,-2.3595,-2.3595,-2.3595,-2.3595,-2.3595,-2.3595,-2.3595,-2.3595,-2.3595,-2.3595,-2.3595,-2.3595,-2.3595,-2.3595,-2.3595,-2.3595,-2.3595,-2.3595,-2.3595,-2.3595,-2.3595,-2.3595,-2.3595,-2.3595,-2.3595,-2.3595,-2.3595,-2.3595,-2.3595,-2.3595,-2.3595,-2.3595,-2.3595,-2.3595,-2.3595,-2.3595,-2.3595,-2.3595,-2.3595,-2.3595,-2.3595,-2.3595,-2.3595,-2.3595,-2.3595,-2.3595,-2.3595,-2.3595,-2.361,-2.3699,-2.3776,-2.1201,-2.1201,-2.1201,-2.1086,-2.0945,-2.1202,-2.1147,-2.13,-2.2694,-2.3508,-2.3712,-2.4695,-2.533,-2.5471,-2.5288,-2.5217,-2.5471,-2.5428,-2.5442,-2.5696,-2.5696,-2.5877,-2.6002,-2.6056,-2.6165,-2.6299,-2.6459,-2.6551,-2.6712,-2.6779,-2.6794,-2.6794,-2.6779,-2.6779,-2.6794,-2.6794,-2.6794,-2.6591,-2.6358,-2.5963,-2.5338,-2.4689,-2.4297,-2.3818,-2.3273,-2.296,-2.2888,-2.2888,-2.3045,-2.3209,-2.3231,-2.329,-2.3531,-2.3581,-2.3538,-2.3551,-2.3573,-2.3595,-2.3595,-2.3595,-2.3595,-2.3595,-2.3595,-2.3595,-2.3595,-2.3595,-2.3595,-2.3595,-2.3595,-2.3595,-2.3595,-2.3595,-2.3595,-2.3595,-2.3595,-2.3595,-2.3595,-2.3595,-2.3595,-2.3595,-2.3595,-2.3595,-2.3595,-2.3595,-2.3595,-2.3595,-2.3595,-2.3595,-2.3595,-2.3595,-2.3595,-2.3595,-2.3595,-2.3595,-2.3595,-2.3595,-2.3595,-2.3595,-2.3595,-2.3595,-2.3595,-2.3595,-2.3595,-2.3595,-2.3595,-2.3595,-2.3595,-2.3595,-2.3595,-2.3595,-2.3595,-2.3595,-2.3744,-2.4014,-2.4104,-2.1098,-2.104,-2.1075,-2.0764,-2.0377,-2.0446,-2.048,-2.0581,-2.2332,-2.3193,-2.3307,-2.3866,-2.45,-2.481,-2.457,-2.4725,-2.4908,-2.4964,-2.4978,-2.571,-2.5667,-2.5723,-2.5873,-2.6068,-2.6204,-2.6326,-2.6459,-2.6604,-2.6618,-2.6698,-2.675,-2.6736,-2.666,-2.6588,-2.6533,-2.6547,-2.6591,-2.675,-2.6605,-2.6286,-2.5473,-2.4911,-2.4534,-2.4007,-2.3389,-2.2888,-2.2888,-2.2963,-2.3142,-2.3334,-2.3443,-2.3407,-2.3566,-2.3668,-2.3588,-2.3696,-2.376,-2.3852,-2.3852,-2.3831,-2.3745,-2.3702,-2.3616,-2.3595,-2.3595,-2.3595,-2.3595,-2.3595,-2.3595,-2.3595,-2.3595,-2.3595,-2.3595,-2.3595,-2.3595,-2.3595,-2.3595,-2.3595,-2.3595,-2.3595,-2.3595,-2.3595,-2.3595,-2.3595,-2.3595,-2.3595,-2.3595,-2.3595,-2.3595,-2.3595,-2.3595,-2.3595,-2.3595,-2.3595,-2.3595,-2.3595,-2.3595,-2.3595,-2.3595,-2.3595,-2.3595,-2.3595,-2.3595,-2.3595,-2.3595,-2.3595,-2.3595,-2.3595,-2.3595,-2.3595,-2.3595,-2.3595,-2.3804,-2.4096,-2.4178,-2.0377,-2.0056,-2.0044,-1.9964,-1.992,-2.0252,-2.0682,-2.1154,-2.1768,-2.2366,-2.2804,-2.362,-2.4146,-2.4205,-2.405,-2.4106,-2.3952,-2.4317,-2.4078,-2.4458,-2.4838,-2.5381,-2.5558,-2.5936,-2.6185,-2.6486,-2.6618,-2.6567,-2.6596,-2.6649,-2.6474,-2.6068,-2.605,-2.6025,-2.6039,-2.6039,-2.6199,-2.6489,-2.6489,-2.6416,-2.601,-2.5255,-2.4718,-2.4254,-2.3717,-2.302,-2.2933,-2.2955,-2.3098,-2.3297,-2.3297,-2.3414,-2.3623,-2.3631,-2.3803,-2.4051,-2.4141,-2.423,-2.4251,-2.4147,-2.4036,-2.3931,-2.3824,-2.3659,-2.3595,-2.3595,-2.3595,-2.3595,-2.3595,-2.3595,-2.3595,-2.3595,-2.3595,-2.3595,-2.3595,-2.3595,-2.3595,-2.3595,-2.3595,-2.3595,-2.3595,-2.3595,-2.3595,-2.3595,-2.3595,-2.3595,-2.3595,-2.3595,-2.3595,-2.3595,-2.3595,-2.3595,-2.3595,-2.3595,-2.3595,-2.3595,-2.3595,-2.3595,-2.3595,-2.3595,-2.3595,-2.3595,-2.3595,-2.3595,-2.3595,-2.3595,-2.3595,-2.3595,-2.3595,-2.3595,-2.3595,-2.3595,-2.3738,-2.4022,-2.4065,-1.993,-1.9677,-1.9436,-1.9344,-1.9448,-1.993,-2.0376,-2.0781,-2.1459,-2.1937,-2.2246,-2.2928,-2.3403,-2.3516,-2.3389,-2.36,-2.3389,-2.3572,-2.4022,-2.4221,-2.4202,-2.4841,-2.5299,-2.5659,-2.5615,-2.5842,-2.5875,-2.5937,-2.6297,-2.5992,-2.5643,-2.54,-2.5357,-2.5371,-2.5371,-2.5415,-2.5546,-2.5865,-2.5981,-2.5966,-2.5966,-2.5255,-2.466,-2.4239,-2.3771,-2.3208,-2.3135,-2.3164,-2.3458,-2.3724,-2.3915,-2.4105,-2.4256,-2.4256,-2.4338,-2.4477,-2.4574,-2.4594,-2.4594,-2.4451,-2.4219,-2.403,-2.3846,-2.3595,-2.3595,-2.3595,-2.3595,-2.3595,-2.3595,-2.3595,-2.3595,-2.3595,-2.3595,-2.3595,-2.3595,-2.3595,-2.3595,-2.3595,-2.3595,-2.3595,-2.3595,-2.3595,-2.3595,-2.3595,-2.3595,-2.3595,-2.3595,-2.3595,-2.3595,-2.3595,-2.3595,-2.3595,-2.3595,-2.3595,-2.3595,-2.3595,-2.3595,-2.3595,-2.3595,-2.3595,-2.3595,-2.3595,-2.3595,-2.3595,-2.3595,-2.3595,-2.3595,-2.3595,-2.3595,-2.3595,-2.3595,-2.3595,-2.3767,-2.3902,-2.3881,-1.9574,-1.9516,-1.9023,-1.8793,-1.8906,-1.9538,-1.9853,-2.0104,-2.1234,-2.1821,-2.1945,-2.2189,-2.2521,-2.262,-2.2536,-2.3122,-2.3361,-2.3108,-2.3631,-2.4005,-2.4044,-2.4365,-2.4775,-2.522,-2.516,-2.5059,-2.5061,-2.5317,-2.5647,-2.5342,-2.5081,-2.4766,-2.4694,-2.4708,-2.4733,-2.4747,-2.4824,-2.5027,-2.5071,-2.4882,-2.4781,-2.4733,-2.4408,-2.4042,-2.3711,-2.3459,-2.3385,-2.3501,-2.3852,-2.4084,-2.4313,-2.4563,-2.4704,-2.4704,-2.4827,-2.4922,-2.4843,-2.4759,-2.4634,-2.4467,-2.4141,-2.3867,-2.3681,-2.3595,-2.3595,-2.3595,-2.3595,-2.3595,-2.3595,-2.3595,-2.3595,-2.3595,-2.3595,-2.3595,-2.3595,-2.3595,-2.3595,-2.3595,-2.3595,-2.3595,-2.3595,-2.3595,-2.3595,-2.3595,-2.3595,-2.3595,-2.3595,-2.3595,-2.3595,-2.3595,-2.3595,-2.3595,-2.3595,-2.3595,-2.3595,-2.3595,-2.3595,-2.3595,-2.3595,-2.3595,-2.3595,-2.3595,-2.3595,-2.3595,-2.3595,-2.3595,-2.3595,-2.3595,-2.3595,-2.3595,-2.3595,-2.3595,-2.3625,-2.3729,-2.367,-1.9046,-1.9,-1.8467,-1.8272,-1.837,-1.9024,-1.9626,-2.0182,-2.0962,-2.1598,-2.201,-2.2161,-2.232,-2.239,-2.2292,-2.2531,-2.27,-2.2531,-2.2517,-2.2758,-2.3342,-2.3711,-2.4095,-2.4507,-2.4721,-2.4737,-2.4723,-2.4853,-2.495,-2.4849,-2.4573,-2.4094,-2.4065,-2.408,-2.408,-2.4123,-2.4239,-2.4418,-2.4534,-2.4462,-2.4123,-2.4089,-2.4107,-2.3844,-2.3509,-2.3363,-2.329,-2.3348,-2.3458,-2.3717,-2.4168,-2.4619,-2.4938,-2.5095,-2.5157,-2.5179,-2.5118,-2.4981,-2.4803,-2.4492,-2.4162,-2.3973,-2.3803,-2.3595,-2.3595,-2.3595,-2.3595,-2.3595,-2.3595,-2.3595,-2.3595,-2.3595,-2.3595,-2.3595,-2.3595,-2.3595,-2.3595,-2.3595,-2.3595,-2.3595,-2.3595,-2.3595,-2.3595,-2.3595,-2.3595,-2.3595,-2.3595,-2.3595,-2.3595,-2.3595,-2.358,-2.3595,-2.358,-2.3595,-2.3595,-2.3595,-2.3595,-2.3595,-2.3595,-2.3595,-2.3595,-2.3595,-2.3595,-2.3595,-2.3595,-2.3595,-2.3595,-2.3595,-2.3595,-2.3595,-2.3595,-2.3595,-2.3595,-2.3595,-2.3595]}]]